<?xml version="1.0" encoding="UTF-8" standalone="no" ?>
<gpx xmlns="http://www.topografix.com/GPX/1/1" xmlns:xsi="http://www.w3.org/2001/XMLSchema-instance" xsi:schemaLocation="http://www.topografix.com/GPX/1/1 http://www.topografix.com/GPX/1/1/gpx.xsd" version="1.1" creator="VisuGPX - https://www.visugpx.com">
  <metadata>
    <name>Valvignieres St Andeol</name>
    <desc><![CDATA[grp_trc:]]></desc>
  </metadata>
  <trk>
    <name><![CDATA[Valvignieres St Andeol]]></name>
    <cmt><![CDATA[06.03.2022]]></cmt>
    <desc><![CDATA[comment ...]]></desc>
    <trkseg>
      <trkpt lat="44.50034" lon="4.57521">
        <ele>168</ele>
        <time>2022-03-06T08:33:59Z</time>
      </trkpt>
      <trkpt lat="44.50083" lon="4.57424">
        <ele>165</ele>
        <time>2022-03-06T08:38:43Z</time>
      </trkpt>
      <trkpt lat="44.50079" lon="4.57431">
        <ele>178</ele>
        <time>2022-03-06T08:38:53Z</time>
      </trkpt>
      <trkpt lat="44.50084" lon="4.57433">
        <ele>187</ele>
        <time>2022-03-06T08:39:18Z</time>
      </trkpt>
      <trkpt lat="44.50085" lon="4.57436">
        <ele>187</ele>
        <time>2022-03-06T08:39:23Z</time>
      </trkpt>
      <trkpt lat="44.50084" lon="4.5744">
        <ele>187</ele>
        <time>2022-03-06T08:39:26Z</time>
      </trkpt>
      <trkpt lat="44.50084" lon="4.57444">
        <ele>186</ele>
        <time>2022-03-06T08:39:30Z</time>
      </trkpt>
      <trkpt lat="44.5008" lon="4.57445">
        <ele>186</ele>
        <time>2022-03-06T08:39:33Z</time>
      </trkpt>
      <trkpt lat="44.50076" lon="4.57445">
        <ele>187</ele>
        <time>2022-03-06T08:39:37Z</time>
      </trkpt>
      <trkpt lat="44.50048" lon="4.5745">
        <ele>188</ele>
        <time>2022-03-06T08:40:05Z</time>
      </trkpt>
      <trkpt lat="44.50046" lon="4.57454">
        <ele>188</ele>
        <time>2022-03-06T08:40:08Z</time>
      </trkpt>
      <trkpt lat="44.50045" lon="4.57459">
        <ele>188</ele>
        <time>2022-03-06T08:40:11Z</time>
      </trkpt>
      <trkpt lat="44.50044" lon="4.57464">
        <ele>187</ele>
        <time>2022-03-06T08:40:13Z</time>
      </trkpt>
      <trkpt lat="44.50044" lon="4.57471">
        <ele>187</ele>
        <time>2022-03-06T08:40:17Z</time>
      </trkpt>
      <trkpt lat="44.50043" lon="4.57476">
        <ele>186</ele>
        <time>2022-03-06T08:40:20Z</time>
      </trkpt>
      <trkpt lat="44.50043" lon="4.57483">
        <ele>187</ele>
        <time>2022-03-06T08:40:24Z</time>
      </trkpt>
      <trkpt lat="44.5004" lon="4.57488">
        <ele>187</ele>
        <time>2022-03-06T08:40:28Z</time>
      </trkpt>
      <trkpt lat="44.50037" lon="4.57505">
        <ele>185</ele>
        <time>2022-03-06T08:40:38Z</time>
      </trkpt>
      <trkpt lat="44.50032" lon="4.57521">
        <ele>183</ele>
        <time>2022-03-06T08:40:46Z</time>
      </trkpt>
      <trkpt lat="44.50026" lon="4.57529">
        <ele>183</ele>
        <time>2022-03-06T08:40:51Z</time>
      </trkpt>
      <trkpt lat="44.50023" lon="4.57536">
        <ele>183</ele>
        <time>2022-03-06T08:40:55Z</time>
      </trkpt>
      <trkpt lat="44.50022" lon="4.5754">
        <ele>182</ele>
        <time>2022-03-06T08:40:57Z</time>
      </trkpt>
      <trkpt lat="44.50024" lon="4.5756">
        <ele>180</ele>
        <time>2022-03-06T08:41:07Z</time>
      </trkpt>
      <trkpt lat="44.50026" lon="4.57563">
        <ele>180</ele>
        <time>2022-03-06T08:41:10Z</time>
      </trkpt>
      <trkpt lat="44.50028" lon="4.57566">
        <ele>180</ele>
        <time>2022-03-06T08:41:13Z</time>
      </trkpt>
      <trkpt lat="44.50027" lon="4.57564">
        <ele>177</ele>
        <time>2022-03-06T08:43:37Z</time>
      </trkpt>
      <trkpt lat="44.50025" lon="4.57562">
        <ele>177</ele>
        <time>2022-03-06T08:43:39Z</time>
      </trkpt>
      <trkpt lat="44.50022" lon="4.57559">
        <ele>175</ele>
        <time>2022-03-06T08:43:42Z</time>
      </trkpt>
      <trkpt lat="44.50023" lon="4.57556">
        <ele>174</ele>
        <time>2022-03-06T08:43:46Z</time>
      </trkpt>
      <trkpt lat="44.50022" lon="4.57551">
        <ele>175</ele>
        <time>2022-03-06T08:43:50Z</time>
      </trkpt>
      <trkpt lat="44.50012" lon="4.57528">
        <ele>176</ele>
        <time>2022-03-06T08:44:07Z</time>
      </trkpt>
      <trkpt lat="44.50009" lon="4.57525">
        <ele>176</ele>
        <time>2022-03-06T08:44:10Z</time>
      </trkpt>
      <trkpt lat="44.50009" lon="4.5752">
        <ele>177</ele>
        <time>2022-03-06T08:44:14Z</time>
      </trkpt>
      <trkpt lat="44.50008" lon="4.57516">
        <ele>176</ele>
        <time>2022-03-06T08:44:18Z</time>
      </trkpt>
      <trkpt lat="44.5001" lon="4.57511">
        <ele>177</ele>
        <time>2022-03-06T08:44:21Z</time>
      </trkpt>
      <trkpt lat="44.50007" lon="4.57496">
        <ele>180</ele>
        <time>2022-03-06T08:44:33Z</time>
      </trkpt>
      <trkpt lat="44.50007" lon="4.57489">
        <ele>182</ele>
        <time>2022-03-06T08:44:38Z</time>
      </trkpt>
      <trkpt lat="44.50007" lon="4.57478">
        <ele>184</ele>
        <time>2022-03-06T08:44:45Z</time>
      </trkpt>
      <trkpt lat="44.50007" lon="4.57472">
        <ele>184</ele>
        <time>2022-03-06T08:44:48Z</time>
      </trkpt>
      <trkpt lat="44.50008" lon="4.57466">
        <ele>184</ele>
        <time>2022-03-06T08:44:51Z</time>
      </trkpt>
      <trkpt lat="44.50007" lon="4.57452">
        <ele>183</ele>
        <time>2022-03-06T08:45:01Z</time>
      </trkpt>
      <trkpt lat="44.50009" lon="4.57448">
        <ele>183</ele>
        <time>2022-03-06T08:45:07Z</time>
      </trkpt>
      <trkpt lat="44.50016" lon="4.5744">
        <ele>183</ele>
        <time>2022-03-06T08:45:13Z</time>
      </trkpt>
      <trkpt lat="44.50024" lon="4.57423">
        <ele>181</ele>
        <time>2022-03-06T08:45:24Z</time>
      </trkpt>
      <trkpt lat="44.50025" lon="4.57418">
        <ele>182</ele>
        <time>2022-03-06T08:45:26Z</time>
      </trkpt>
      <trkpt lat="44.50034" lon="4.57405">
        <ele>181</ele>
        <time>2022-03-06T08:45:38Z</time>
      </trkpt>
      <trkpt lat="44.50037" lon="4.57402">
        <ele>181</ele>
        <time>2022-03-06T08:45:41Z</time>
      </trkpt>
      <trkpt lat="44.50039" lon="4.57399">
        <ele>181</ele>
        <time>2022-03-06T08:45:44Z</time>
      </trkpt>
      <trkpt lat="44.50041" lon="4.57395">
        <ele>181</ele>
        <time>2022-03-06T08:45:48Z</time>
      </trkpt>
      <trkpt lat="44.50044" lon="4.57393">
        <ele>181</ele>
        <time>2022-03-06T08:45:53Z</time>
      </trkpt>
      <trkpt lat="44.50057" lon="4.57383">
        <ele>185</ele>
        <time>2022-03-06T08:46:07Z</time>
      </trkpt>
      <trkpt lat="44.50065" lon="4.57382">
        <ele>185</ele>
        <time>2022-03-06T08:46:13Z</time>
      </trkpt>
      <trkpt lat="44.50068" lon="4.57378">
        <ele>186</ele>
        <time>2022-03-06T08:46:16Z</time>
      </trkpt>
      <trkpt lat="44.50072" lon="4.57377">
        <ele>187</ele>
        <time>2022-03-06T08:46:19Z</time>
      </trkpt>
      <trkpt lat="44.50076" lon="4.5738">
        <ele>187</ele>
        <time>2022-03-06T08:46:23Z</time>
      </trkpt>
      <trkpt lat="44.50081" lon="4.57379">
        <ele>189</ele>
        <time>2022-03-06T08:46:26Z</time>
      </trkpt>
      <trkpt lat="44.50101" lon="4.57389">
        <ele>189</ele>
        <time>2022-03-06T08:46:42Z</time>
      </trkpt>
      <trkpt lat="44.5011" lon="4.57396">
        <ele>188</ele>
        <time>2022-03-06T08:46:51Z</time>
      </trkpt>
      <trkpt lat="44.50119" lon="4.57398">
        <ele>188</ele>
        <time>2022-03-06T08:46:57Z</time>
      </trkpt>
      <trkpt lat="44.50129" lon="4.57404">
        <ele>187</ele>
        <time>2022-03-06T08:47:06Z</time>
      </trkpt>
      <trkpt lat="44.50134" lon="4.57407">
        <ele>187</ele>
        <time>2022-03-06T08:47:11Z</time>
      </trkpt>
      <trkpt lat="44.50137" lon="4.57412">
        <ele>187</ele>
        <time>2022-03-06T08:47:15Z</time>
      </trkpt>
      <trkpt lat="44.50146" lon="4.57415">
        <ele>187</ele>
        <time>2022-03-06T08:47:21Z</time>
      </trkpt>
      <trkpt lat="44.50148" lon="4.57415">
        <ele>187</ele>
        <time>2022-03-06T08:47:23Z</time>
      </trkpt>
      <trkpt lat="44.50164" lon="4.57421">
        <ele>187</ele>
        <time>2022-03-06T08:47:42Z</time>
      </trkpt>
      <trkpt lat="44.50167" lon="4.57423">
        <ele>188</ele>
        <time>2022-03-06T08:47:44Z</time>
      </trkpt>
      <trkpt lat="44.50178" lon="4.57424">
        <ele>189</ele>
        <time>2022-03-06T08:47:53Z</time>
      </trkpt>
      <trkpt lat="44.50184" lon="4.57426">
        <ele>190</ele>
        <time>2022-03-06T08:47:59Z</time>
      </trkpt>
      <trkpt lat="44.50219" lon="4.57435">
        <ele>189</ele>
        <time>2022-03-06T08:48:29Z</time>
      </trkpt>
      <trkpt lat="44.5023" lon="4.57439">
        <ele>189</ele>
        <time>2022-03-06T08:48:38Z</time>
      </trkpt>
      <trkpt lat="44.50232" lon="4.57441">
        <ele>189</ele>
        <time>2022-03-06T08:48:40Z</time>
      </trkpt>
      <trkpt lat="44.50249" lon="4.57448">
        <ele>189</ele>
        <time>2022-03-06T08:48:54Z</time>
      </trkpt>
      <trkpt lat="44.50251" lon="4.57448">
        <ele>188</ele>
        <time>2022-03-06T08:48:56Z</time>
      </trkpt>
      <trkpt lat="44.50272" lon="4.57442">
        <ele>190</ele>
        <time>2022-03-06T08:49:15Z</time>
      </trkpt>
      <trkpt lat="44.50284" lon="4.57439">
        <ele>189</ele>
        <time>2022-03-06T08:49:25Z</time>
      </trkpt>
      <trkpt lat="44.50299" lon="4.57439">
        <ele>192</ele>
        <time>2022-03-06T08:49:36Z</time>
      </trkpt>
      <trkpt lat="44.50303" lon="4.57437">
        <ele>191</ele>
        <time>2022-03-06T08:49:41Z</time>
      </trkpt>
      <trkpt lat="44.50307" lon="4.57439">
        <ele>192</ele>
        <time>2022-03-06T08:49:44Z</time>
      </trkpt>
      <trkpt lat="44.50311" lon="4.57437">
        <ele>193</ele>
        <time>2022-03-06T08:49:48Z</time>
      </trkpt>
      <trkpt lat="44.50315" lon="4.57437">
        <ele>192</ele>
        <time>2022-03-06T08:49:52Z</time>
      </trkpt>
      <trkpt lat="44.5032" lon="4.57435">
        <ele>192</ele>
        <time>2022-03-06T08:49:55Z</time>
      </trkpt>
      <trkpt lat="44.50327" lon="4.57435">
        <ele>192</ele>
        <time>2022-03-06T08:50:02Z</time>
      </trkpt>
      <trkpt lat="44.50331" lon="4.57434">
        <ele>191</ele>
        <time>2022-03-06T08:50:05Z</time>
      </trkpt>
      <trkpt lat="44.50335" lon="4.57432">
        <ele>190</ele>
        <time>2022-03-06T08:50:08Z</time>
      </trkpt>
      <trkpt lat="44.50338" lon="4.57431">
        <ele>190</ele>
        <time>2022-03-06T08:50:12Z</time>
      </trkpt>
      <trkpt lat="44.50346" lon="4.57422">
        <ele>190</ele>
        <time>2022-03-06T08:50:21Z</time>
      </trkpt>
      <trkpt lat="44.50348" lon="4.57421">
        <ele>191</ele>
        <time>2022-03-06T08:50:23Z</time>
      </trkpt>
      <trkpt lat="44.50351" lon="4.57418">
        <ele>191</ele>
        <time>2022-03-06T08:50:26Z</time>
      </trkpt>
      <trkpt lat="44.50355" lon="4.57415">
        <ele>190</ele>
        <time>2022-03-06T08:50:30Z</time>
      </trkpt>
      <trkpt lat="44.50386" lon="4.57387">
        <ele>190</ele>
        <time>2022-03-06T08:51:01Z</time>
      </trkpt>
      <trkpt lat="44.50388" lon="4.57385">
        <ele>190</ele>
        <time>2022-03-06T08:51:03Z</time>
      </trkpt>
      <trkpt lat="44.50394" lon="4.57379">
        <ele>191</ele>
        <time>2022-03-06T08:51:09Z</time>
      </trkpt>
      <trkpt lat="44.504" lon="4.57373">
        <ele>192</ele>
        <time>2022-03-06T08:51:15Z</time>
      </trkpt>
      <trkpt lat="44.50413" lon="4.57359">
        <ele>195</ele>
        <time>2022-03-06T08:51:29Z</time>
      </trkpt>
      <trkpt lat="44.50419" lon="4.57349">
        <ele>196</ele>
        <time>2022-03-06T08:51:37Z</time>
      </trkpt>
      <trkpt lat="44.50424" lon="4.57341">
        <ele>196</ele>
        <time>2022-03-06T08:51:44Z</time>
      </trkpt>
      <trkpt lat="44.50425" lon="4.57339">
        <ele>196</ele>
        <time>2022-03-06T08:51:46Z</time>
      </trkpt>
      <trkpt lat="44.50428" lon="4.57335">
        <ele>197</ele>
        <time>2022-03-06T08:51:50Z</time>
      </trkpt>
      <trkpt lat="44.5043" lon="4.5733">
        <ele>197</ele>
        <time>2022-03-06T08:51:56Z</time>
      </trkpt>
      <trkpt lat="44.50434" lon="4.57326">
        <ele>198</ele>
        <time>2022-03-06T08:52:00Z</time>
      </trkpt>
      <trkpt lat="44.50444" lon="4.57308">
        <ele>197</ele>
        <time>2022-03-06T08:52:13Z</time>
      </trkpt>
      <trkpt lat="44.5045" lon="4.57301">
        <ele>198</ele>
        <time>2022-03-06T08:52:20Z</time>
      </trkpt>
      <trkpt lat="44.50454" lon="4.57294">
        <ele>199</ele>
        <time>2022-03-06T08:52:26Z</time>
      </trkpt>
      <trkpt lat="44.5046" lon="4.57289">
        <ele>199</ele>
        <time>2022-03-06T08:52:31Z</time>
      </trkpt>
      <trkpt lat="44.50464" lon="4.57284">
        <ele>199</ele>
        <time>2022-03-06T08:52:36Z</time>
      </trkpt>
      <trkpt lat="44.50495" lon="4.57259">
        <ele>205</ele>
        <time>2022-03-06T08:53:07Z</time>
      </trkpt>
      <trkpt lat="44.50526" lon="4.57233">
        <ele>205</ele>
        <time>2022-03-06T08:53:38Z</time>
      </trkpt>
      <trkpt lat="44.50561" lon="4.57209">
        <ele>205</ele>
        <time>2022-03-06T08:54:09Z</time>
      </trkpt>
      <trkpt lat="44.50567" lon="4.57205">
        <ele>205</ele>
        <time>2022-03-06T08:54:15Z</time>
      </trkpt>
      <trkpt lat="44.5057" lon="4.57203">
        <ele>206</ele>
        <time>2022-03-06T08:54:19Z</time>
      </trkpt>
      <trkpt lat="44.506" lon="4.57182">
        <ele>204</ele>
        <time>2022-03-06T08:54:44Z</time>
      </trkpt>
      <trkpt lat="44.50605" lon="4.5717">
        <ele>204</ele>
        <time>2022-03-06T08:54:53Z</time>
      </trkpt>
      <trkpt lat="44.5061" lon="4.57153">
        <ele>204</ele>
        <time>2022-03-06T08:55:04Z</time>
      </trkpt>
      <trkpt lat="44.50611" lon="4.57139">
        <ele>205</ele>
        <time>2022-03-06T08:55:13Z</time>
      </trkpt>
      <trkpt lat="44.50613" lon="4.57131">
        <ele>206</ele>
        <time>2022-03-06T08:55:20Z</time>
      </trkpt>
      <trkpt lat="44.50614" lon="4.57127">
        <ele>205</ele>
        <time>2022-03-06T08:55:24Z</time>
      </trkpt>
      <trkpt lat="44.50617" lon="4.57107">
        <ele>205</ele>
        <time>2022-03-06T08:55:36Z</time>
      </trkpt>
      <trkpt lat="44.50621" lon="4.57101">
        <ele>207</ele>
        <time>2022-03-06T08:55:42Z</time>
      </trkpt>
      <trkpt lat="44.50621" lon="4.57097">
        <ele>208</ele>
        <time>2022-03-06T08:55:48Z</time>
      </trkpt>
      <trkpt lat="44.50621" lon="4.57093">
        <ele>208</ele>
        <time>2022-03-06T08:56:02Z</time>
      </trkpt>
      <trkpt lat="44.50622" lon="4.5709">
        <ele>210</ele>
        <time>2022-03-06T08:56:05Z</time>
      </trkpt>
      <trkpt lat="44.50628" lon="4.57094">
        <ele>211</ele>
        <time>2022-03-06T08:56:17Z</time>
      </trkpt>
      <trkpt lat="44.50634" lon="4.57092">
        <ele>212</ele>
        <time>2022-03-06T08:56:21Z</time>
      </trkpt>
      <trkpt lat="44.50631" lon="4.57084">
        <ele>215</ele>
        <time>2022-03-06T08:56:37Z</time>
      </trkpt>
      <trkpt lat="44.50628" lon="4.57087">
        <ele>213</ele>
        <time>2022-03-06T08:56:54Z</time>
      </trkpt>
      <trkpt lat="44.50629" lon="4.57087">
        <ele>211</ele>
        <time>2022-03-06T08:58:24Z</time>
      </trkpt>
      <trkpt lat="44.50631" lon="4.57088">
        <ele>211</ele>
        <time>2022-03-06T08:58:32Z</time>
      </trkpt>
      <trkpt lat="44.50635" lon="4.57088">
        <ele>211</ele>
        <time>2022-03-06T08:58:35Z</time>
      </trkpt>
      <trkpt lat="44.50643" lon="4.57081">
        <ele>212</ele>
        <time>2022-03-06T08:58:45Z</time>
      </trkpt>
      <trkpt lat="44.50661" lon="4.57068">
        <ele>212</ele>
        <time>2022-03-06T08:59:02Z</time>
      </trkpt>
      <trkpt lat="44.50672" lon="4.57053">
        <ele>212</ele>
        <time>2022-03-06T08:59:15Z</time>
      </trkpt>
      <trkpt lat="44.50675" lon="4.57047">
        <ele>212</ele>
        <time>2022-03-06T08:59:19Z</time>
      </trkpt>
      <trkpt lat="44.50676" lon="4.57045">
        <ele>212</ele>
        <time>2022-03-06T08:59:29Z</time>
      </trkpt>
      <trkpt lat="44.50678" lon="4.57043">
        <ele>215</ele>
        <time>2022-03-06T08:59:33Z</time>
      </trkpt>
      <trkpt lat="44.50682" lon="4.57041">
        <ele>216</ele>
        <time>2022-03-06T08:59:36Z</time>
      </trkpt>
      <trkpt lat="44.50684" lon="4.57037">
        <ele>218</ele>
        <time>2022-03-06T08:59:40Z</time>
      </trkpt>
      <trkpt lat="44.50684" lon="4.57033">
        <ele>219</ele>
        <time>2022-03-06T08:59:43Z</time>
      </trkpt>
      <trkpt lat="44.50696" lon="4.57018">
        <ele>217</ele>
        <time>2022-03-06T08:59:58Z</time>
      </trkpt>
      <trkpt lat="44.50699" lon="4.57016">
        <ele>216</ele>
        <time>2022-03-06T09:00:01Z</time>
      </trkpt>
      <trkpt lat="44.50725" lon="4.56987">
        <ele>216</ele>
        <time>2022-03-06T09:00:31Z</time>
      </trkpt>
      <trkpt lat="44.50727" lon="4.56984">
        <ele>217</ele>
        <time>2022-03-06T09:00:33Z</time>
      </trkpt>
      <trkpt lat="44.50731" lon="4.56976">
        <ele>218</ele>
        <time>2022-03-06T09:00:38Z</time>
      </trkpt>
      <trkpt lat="44.50735" lon="4.56975">
        <ele>218</ele>
        <time>2022-03-06T09:00:42Z</time>
      </trkpt>
      <trkpt lat="44.50736" lon="4.56971">
        <ele>219</ele>
        <time>2022-03-06T09:00:46Z</time>
      </trkpt>
      <trkpt lat="44.50744" lon="4.56961">
        <ele>219</ele>
        <time>2022-03-06T09:00:56Z</time>
      </trkpt>
      <trkpt lat="44.50749" lon="4.56953">
        <ele>218</ele>
        <time>2022-03-06T09:01:04Z</time>
      </trkpt>
      <trkpt lat="44.50754" lon="4.56946">
        <ele>218</ele>
        <time>2022-03-06T09:01:10Z</time>
      </trkpt>
      <trkpt lat="44.50758" lon="4.5694">
        <ele>220</ele>
        <time>2022-03-06T09:01:15Z</time>
      </trkpt>
      <trkpt lat="44.50765" lon="4.56931">
        <ele>219</ele>
        <time>2022-03-06T09:01:23Z</time>
      </trkpt>
      <trkpt lat="44.50771" lon="4.56922">
        <ele>220</ele>
        <time>2022-03-06T09:01:29Z</time>
      </trkpt>
      <trkpt lat="44.50774" lon="4.56921">
        <ele>220</ele>
        <time>2022-03-06T09:01:31Z</time>
      </trkpt>
      <trkpt lat="44.50776" lon="4.56919">
        <ele>220</ele>
        <time>2022-03-06T09:01:33Z</time>
      </trkpt>
      <trkpt lat="44.50779" lon="4.56916">
        <ele>220</ele>
        <time>2022-03-06T09:01:35Z</time>
      </trkpt>
      <trkpt lat="44.50782" lon="4.56905">
        <ele>218</ele>
        <time>2022-03-06T09:01:43Z</time>
      </trkpt>
      <trkpt lat="44.50781" lon="4.56902">
        <ele>218</ele>
        <time>2022-03-06T09:01:45Z</time>
      </trkpt>
      <trkpt lat="44.50783" lon="4.56898">
        <ele>218</ele>
        <time>2022-03-06T09:01:48Z</time>
      </trkpt>
      <trkpt lat="44.50783" lon="4.56894">
        <ele>219</ele>
        <time>2022-03-06T09:01:51Z</time>
      </trkpt>
      <trkpt lat="44.50788" lon="4.56881">
        <ele>220</ele>
        <time>2022-03-06T09:01:59Z</time>
      </trkpt>
      <trkpt lat="44.50791" lon="4.56878">
        <ele>220</ele>
        <time>2022-03-06T09:02:01Z</time>
      </trkpt>
      <trkpt lat="44.50792" lon="4.56876">
        <ele>221</ele>
        <time>2022-03-06T09:02:03Z</time>
      </trkpt>
      <trkpt lat="44.50792" lon="4.56872">
        <ele>221</ele>
        <time>2022-03-06T09:02:05Z</time>
      </trkpt>
      <trkpt lat="44.50797" lon="4.56863">
        <ele>222</ele>
        <time>2022-03-06T09:02:12Z</time>
      </trkpt>
      <trkpt lat="44.50803" lon="4.56836">
        <ele>224</ele>
        <time>2022-03-06T09:02:31Z</time>
      </trkpt>
      <trkpt lat="44.50805" lon="4.56827">
        <ele>224</ele>
        <time>2022-03-06T09:02:37Z</time>
      </trkpt>
      <trkpt lat="44.50805" lon="4.56825">
        <ele>225</ele>
        <time>2022-03-06T09:02:39Z</time>
      </trkpt>
      <trkpt lat="44.50805" lon="4.56822">
        <ele>225</ele>
        <time>2022-03-06T09:02:41Z</time>
      </trkpt>
      <trkpt lat="44.50814" lon="4.5678">
        <ele>228</ele>
        <time>2022-03-06T09:03:08Z</time>
      </trkpt>
      <trkpt lat="44.50814" lon="4.56776">
        <ele>228</ele>
        <time>2022-03-06T09:03:10Z</time>
      </trkpt>
      <trkpt lat="44.50815" lon="4.56774">
        <ele>229</ele>
        <time>2022-03-06T09:03:12Z</time>
      </trkpt>
      <trkpt lat="44.50815" lon="4.5677">
        <ele>229</ele>
        <time>2022-03-06T09:03:14Z</time>
      </trkpt>
      <trkpt lat="44.50817" lon="4.56761">
        <ele>230</ele>
        <time>2022-03-06T09:03:20Z</time>
      </trkpt>
      <trkpt lat="44.50818" lon="4.56754">
        <ele>229</ele>
        <time>2022-03-06T09:03:27Z</time>
      </trkpt>
      <trkpt lat="44.50822" lon="4.56743">
        <ele>230</ele>
        <time>2022-03-06T09:03:35Z</time>
      </trkpt>
      <trkpt lat="44.50822" lon="4.56727">
        <ele>229</ele>
        <time>2022-03-06T09:03:45Z</time>
      </trkpt>
      <trkpt lat="44.50821" lon="4.56721">
        <ele>229</ele>
        <time>2022-03-06T09:03:49Z</time>
      </trkpt>
      <trkpt lat="44.50821" lon="4.56718">
        <ele>228</ele>
        <time>2022-03-06T09:03:51Z</time>
      </trkpt>
      <trkpt lat="44.5082" lon="4.56711">
        <ele>230</ele>
        <time>2022-03-06T09:03:56Z</time>
      </trkpt>
      <trkpt lat="44.50821" lon="4.56705">
        <ele>229</ele>
        <time>2022-03-06T09:04:00Z</time>
      </trkpt>
      <trkpt lat="44.50821" lon="4.56703">
        <ele>229</ele>
        <time>2022-03-06T09:04:02Z</time>
      </trkpt>
      <trkpt lat="44.50823" lon="4.567">
        <ele>229</ele>
        <time>2022-03-06T09:04:04Z</time>
      </trkpt>
      <trkpt lat="44.50824" lon="4.56698">
        <ele>228</ele>
        <time>2022-03-06T09:04:07Z</time>
      </trkpt>
      <trkpt lat="44.50826" lon="4.56698">
        <ele>229</ele>
        <time>2022-03-06T09:04:09Z</time>
      </trkpt>
      <trkpt lat="44.50826" lon="4.56695">
        <ele>229</ele>
        <time>2022-03-06T09:04:24Z</time>
      </trkpt>
      <trkpt lat="44.50827" lon="4.56694">
        <ele>230</ele>
        <time>2022-03-06T09:04:29Z</time>
      </trkpt>
      <trkpt lat="44.50829" lon="4.56696">
        <ele>231</ele>
        <time>2022-03-06T09:04:39Z</time>
      </trkpt>
      <trkpt lat="44.5083" lon="4.56695">
        <ele>231</ele>
        <time>2022-03-06T09:06:26Z</time>
      </trkpt>
      <trkpt lat="44.50867" lon="4.56693">
        <ele>231</ele>
        <time>2022-03-06T09:06:57Z</time>
      </trkpt>
      <trkpt lat="44.50894" lon="4.56686">
        <ele>234</ele>
        <time>2022-03-06T09:07:27Z</time>
      </trkpt>
      <trkpt lat="44.50909" lon="4.56679">
        <ele>235</ele>
        <time>2022-03-06T09:07:42Z</time>
      </trkpt>
      <trkpt lat="44.50915" lon="4.56672">
        <ele>235</ele>
        <time>2022-03-06T09:07:50Z</time>
      </trkpt>
      <trkpt lat="44.50922" lon="4.56663">
        <ele>234</ele>
        <time>2022-03-06T09:07:59Z</time>
      </trkpt>
      <trkpt lat="44.50922" lon="4.56661">
        <ele>234</ele>
        <time>2022-03-06T09:08:05Z</time>
      </trkpt>
      <trkpt lat="44.50932" lon="4.5665">
        <ele>233</ele>
        <time>2022-03-06T09:08:17Z</time>
      </trkpt>
      <trkpt lat="44.50935" lon="4.56649">
        <ele>235</ele>
        <time>2022-03-06T09:08:19Z</time>
      </trkpt>
      <trkpt lat="44.50942" lon="4.56648">
        <ele>234</ele>
        <time>2022-03-06T09:08:25Z</time>
      </trkpt>
      <trkpt lat="44.50952" lon="4.56644">
        <ele>233</ele>
        <time>2022-03-06T09:08:34Z</time>
      </trkpt>
      <trkpt lat="44.5097" lon="4.56646">
        <ele>232</ele>
        <time>2022-03-06T09:08:50Z</time>
      </trkpt>
      <trkpt lat="44.50999" lon="4.56669">
        <ele>231</ele>
        <time>2022-03-06T09:09:18Z</time>
      </trkpt>
      <trkpt lat="44.51003" lon="4.56672">
        <ele>233</ele>
        <time>2022-03-06T09:09:22Z</time>
      </trkpt>
      <trkpt lat="44.5101" lon="4.56678">
        <ele>235</ele>
        <time>2022-03-06T09:09:30Z</time>
      </trkpt>
      <trkpt lat="44.51012" lon="4.5668">
        <ele>235</ele>
        <time>2022-03-06T09:09:33Z</time>
      </trkpt>
      <trkpt lat="44.51027" lon="4.56682">
        <ele>234</ele>
        <time>2022-03-06T09:09:47Z</time>
      </trkpt>
      <trkpt lat="44.5103" lon="4.56682">
        <ele>234</ele>
        <time>2022-03-06T09:09:50Z</time>
      </trkpt>
      <trkpt lat="44.51033" lon="4.56676">
        <ele>234</ele>
        <time>2022-03-06T09:09:55Z</time>
      </trkpt>
      <trkpt lat="44.51037" lon="4.56664">
        <ele>233</ele>
        <time>2022-03-06T09:10:04Z</time>
      </trkpt>
      <trkpt lat="44.51039" lon="4.56661">
        <ele>233</ele>
        <time>2022-03-06T09:10:06Z</time>
      </trkpt>
      <trkpt lat="44.51041" lon="4.56659">
        <ele>233</ele>
        <time>2022-03-06T09:10:09Z</time>
      </trkpt>
      <trkpt lat="44.51062" lon="4.56638">
        <ele>235</ele>
        <time>2022-03-06T09:10:33Z</time>
      </trkpt>
      <trkpt lat="44.51063" lon="4.56636">
        <ele>235</ele>
        <time>2022-03-06T09:10:35Z</time>
      </trkpt>
      <trkpt lat="44.51067" lon="4.56633">
        <ele>235</ele>
        <time>2022-03-06T09:10:39Z</time>
      </trkpt>
      <trkpt lat="44.51069" lon="4.56631">
        <ele>235</ele>
        <time>2022-03-06T09:10:41Z</time>
      </trkpt>
      <trkpt lat="44.5108" lon="4.56621">
        <ele>236</ele>
        <time>2022-03-06T09:10:53Z</time>
      </trkpt>
      <trkpt lat="44.51084" lon="4.5662">
        <ele>237</ele>
        <time>2022-03-06T09:10:57Z</time>
      </trkpt>
      <trkpt lat="44.511" lon="4.56603">
        <ele>240</ele>
        <time>2022-03-06T09:11:15Z</time>
      </trkpt>
      <trkpt lat="44.51107" lon="4.56599">
        <ele>240</ele>
        <time>2022-03-06T09:11:22Z</time>
      </trkpt>
      <trkpt lat="44.5111" lon="4.56598">
        <ele>241</ele>
        <time>2022-03-06T09:11:25Z</time>
      </trkpt>
      <trkpt lat="44.51113" lon="4.56598">
        <ele>241</ele>
        <time>2022-03-06T09:11:27Z</time>
      </trkpt>
      <trkpt lat="44.51114" lon="4.56595">
        <ele>241</ele>
        <time>2022-03-06T09:11:29Z</time>
      </trkpt>
      <trkpt lat="44.51128" lon="4.56593">
        <ele>240</ele>
        <time>2022-03-06T09:11:40Z</time>
      </trkpt>
      <trkpt lat="44.51135" lon="4.5659">
        <ele>241</ele>
        <time>2022-03-06T09:11:46Z</time>
      </trkpt>
      <trkpt lat="44.51148" lon="4.56587">
        <ele>240</ele>
        <time>2022-03-06T09:11:56Z</time>
      </trkpt>
      <trkpt lat="44.51155" lon="4.56584">
        <ele>240</ele>
        <time>2022-03-06T09:12:02Z</time>
      </trkpt>
      <trkpt lat="44.5116" lon="4.56579">
        <ele>240</ele>
        <time>2022-03-06T09:12:08Z</time>
      </trkpt>
      <trkpt lat="44.51162" lon="4.56575">
        <ele>241</ele>
        <time>2022-03-06T09:12:12Z</time>
      </trkpt>
      <trkpt lat="44.51163" lon="4.56572">
        <ele>241</ele>
        <time>2022-03-06T09:12:14Z</time>
      </trkpt>
      <trkpt lat="44.51165" lon="4.56568">
        <ele>242</ele>
        <time>2022-03-06T09:12:34Z</time>
      </trkpt>
      <trkpt lat="44.51166" lon="4.56556">
        <ele>245</ele>
        <time>2022-03-06T09:12:43Z</time>
      </trkpt>
      <trkpt lat="44.51172" lon="4.56543">
        <ele>245</ele>
        <time>2022-03-06T09:12:52Z</time>
      </trkpt>
      <trkpt lat="44.51172" lon="4.56538">
        <ele>249</ele>
        <time>2022-03-06T09:12:57Z</time>
      </trkpt>
      <trkpt lat="44.51175" lon="4.56529">
        <ele>252</ele>
        <time>2022-03-06T09:13:04Z</time>
      </trkpt>
      <trkpt lat="44.51182" lon="4.5651">
        <ele>251</ele>
        <time>2022-03-06T09:13:18Z</time>
      </trkpt>
      <trkpt lat="44.51182" lon="4.56505">
        <ele>250</ele>
        <time>2022-03-06T09:13:21Z</time>
      </trkpt>
      <trkpt lat="44.51182" lon="4.56496">
        <ele>250</ele>
        <time>2022-03-06T09:13:27Z</time>
      </trkpt>
      <trkpt lat="44.51184" lon="4.56495">
        <ele>251</ele>
        <time>2022-03-06T09:13:34Z</time>
      </trkpt>
      <trkpt lat="44.51186" lon="4.56491">
        <ele>251</ele>
        <time>2022-03-06T09:13:36Z</time>
      </trkpt>
      <trkpt lat="44.51188" lon="4.56482">
        <ele>251</ele>
        <time>2022-03-06T09:13:42Z</time>
      </trkpt>
      <trkpt lat="44.51187" lon="4.56456">
        <ele>252</ele>
        <time>2022-03-06T09:13:58Z</time>
      </trkpt>
      <trkpt lat="44.5119" lon="4.56442">
        <ele>255</ele>
        <time>2022-03-06T09:14:08Z</time>
      </trkpt>
      <trkpt lat="44.51192" lon="4.56433">
        <ele>255</ele>
        <time>2022-03-06T09:14:14Z</time>
      </trkpt>
      <trkpt lat="44.51194" lon="4.56419">
        <ele>255</ele>
        <time>2022-03-06T09:14:23Z</time>
      </trkpt>
      <trkpt lat="44.51196" lon="4.56414">
        <ele>254</ele>
        <time>2022-03-06T09:14:26Z</time>
      </trkpt>
      <trkpt lat="44.51198" lon="4.56409">
        <ele>254</ele>
        <time>2022-03-06T09:14:29Z</time>
      </trkpt>
      <trkpt lat="44.51199" lon="4.56404">
        <ele>255</ele>
        <time>2022-03-06T09:14:32Z</time>
      </trkpt>
      <trkpt lat="44.512" lon="4.56396">
        <ele>255</ele>
        <time>2022-03-06T09:14:38Z</time>
      </trkpt>
      <trkpt lat="44.51204" lon="4.56387">
        <ele>255</ele>
        <time>2022-03-06T09:14:44Z</time>
      </trkpt>
      <trkpt lat="44.51209" lon="4.56356">
        <ele>255</ele>
        <time>2022-03-06T09:15:04Z</time>
      </trkpt>
      <trkpt lat="44.51211" lon="4.56352">
        <ele>254</ele>
        <time>2022-03-06T09:15:07Z</time>
      </trkpt>
      <trkpt lat="44.51214" lon="4.56348">
        <ele>254</ele>
        <time>2022-03-06T09:15:11Z</time>
      </trkpt>
      <trkpt lat="44.51221" lon="4.56337">
        <ele>253</ele>
        <time>2022-03-06T09:15:19Z</time>
      </trkpt>
      <trkpt lat="44.51228" lon="4.56339">
        <ele>257</ele>
        <time>2022-03-06T09:15:47Z</time>
      </trkpt>
      <trkpt lat="44.51231" lon="4.56329">
        <ele>258</ele>
        <time>2022-03-06T09:15:52Z</time>
      </trkpt>
      <trkpt lat="44.5123" lon="4.56319">
        <ele>262</ele>
        <time>2022-03-06T09:15:57Z</time>
      </trkpt>
      <trkpt lat="44.51237" lon="4.56317">
        <ele>263</ele>
        <time>2022-03-06T09:16:01Z</time>
      </trkpt>
      <trkpt lat="44.51249" lon="4.56299">
        <ele>263</ele>
        <time>2022-03-06T09:16:19Z</time>
      </trkpt>
      <trkpt lat="44.51254" lon="4.56294">
        <ele>262</ele>
        <time>2022-03-06T09:16:27Z</time>
      </trkpt>
      <trkpt lat="44.51255" lon="4.56286">
        <ele>264</ele>
        <time>2022-03-06T09:16:33Z</time>
      </trkpt>
      <trkpt lat="44.51256" lon="4.5628">
        <ele>264</ele>
        <time>2022-03-06T09:16:37Z</time>
      </trkpt>
      <trkpt lat="44.51259" lon="4.56274">
        <ele>265</ele>
        <time>2022-03-06T09:16:41Z</time>
      </trkpt>
      <trkpt lat="44.51263" lon="4.56271">
        <ele>265</ele>
        <time>2022-03-06T09:16:46Z</time>
      </trkpt>
      <trkpt lat="44.51262" lon="4.56271">
        <ele>266</ele>
        <time>2022-03-06T09:17:26Z</time>
      </trkpt>
      <trkpt lat="44.51261" lon="4.56273">
        <ele>268</ele>
        <time>2022-03-06T09:18:02Z</time>
      </trkpt>
      <trkpt lat="44.51261" lon="4.56277">
        <ele>271</ele>
        <time>2022-03-06T09:18:42Z</time>
      </trkpt>
      <trkpt lat="44.51261" lon="4.56279">
        <ele>272</ele>
        <time>2022-03-06T09:18:59Z</time>
      </trkpt>
      <trkpt lat="44.51263" lon="4.56277">
        <ele>268</ele>
        <time>2022-03-06T09:19:19Z</time>
      </trkpt>
      <trkpt lat="44.51262" lon="4.56274">
        <ele>268</ele>
        <time>2022-03-06T09:19:21Z</time>
      </trkpt>
      <trkpt lat="44.51266" lon="4.56273">
        <ele>267</ele>
        <time>2022-03-06T09:19:26Z</time>
      </trkpt>
      <trkpt lat="44.51265" lon="4.56273">
        <ele>270</ele>
        <time>2022-03-06T09:20:17Z</time>
      </trkpt>
      <trkpt lat="44.51266" lon="4.56273">
        <ele>272</ele>
        <time>2022-03-06T09:20:44Z</time>
      </trkpt>
      <trkpt lat="44.51267" lon="4.56272">
        <ele>269</ele>
        <time>2022-03-06T09:21:12Z</time>
      </trkpt>
      <trkpt lat="44.51269" lon="4.56275">
        <ele>270</ele>
        <time>2022-03-06T09:21:16Z</time>
      </trkpt>
      <trkpt lat="44.51268" lon="4.56276">
        <ele>270</ele>
        <time>2022-03-06T09:21:19Z</time>
      </trkpt>
      <trkpt lat="44.51268" lon="4.5628">
        <ele>269</ele>
        <time>2022-03-06T09:21:23Z</time>
      </trkpt>
      <trkpt lat="44.5127" lon="4.56283">
        <ele>269</ele>
        <time>2022-03-06T09:21:25Z</time>
      </trkpt>
      <trkpt lat="44.5127" lon="4.56286">
        <ele>269</ele>
        <time>2022-03-06T09:21:27Z</time>
      </trkpt>
      <trkpt lat="44.51272" lon="4.563">
        <ele>269</ele>
        <time>2022-03-06T09:21:36Z</time>
      </trkpt>
      <trkpt lat="44.51272" lon="4.56303">
        <ele>269</ele>
        <time>2022-03-06T09:21:38Z</time>
      </trkpt>
      <trkpt lat="44.51272" lon="4.56307">
        <ele>269</ele>
        <time>2022-03-06T09:21:42Z</time>
      </trkpt>
      <trkpt lat="44.51273" lon="4.56323">
        <ele>270</ele>
        <time>2022-03-06T09:21:52Z</time>
      </trkpt>
      <trkpt lat="44.51272" lon="4.56335">
        <ele>270</ele>
        <time>2022-03-06T09:22:00Z</time>
      </trkpt>
      <trkpt lat="44.51271" lon="4.56342">
        <ele>271</ele>
        <time>2022-03-06T09:22:04Z</time>
      </trkpt>
      <trkpt lat="44.51269" lon="4.56345">
        <ele>271</ele>
        <time>2022-03-06T09:22:06Z</time>
      </trkpt>
      <trkpt lat="44.51267" lon="4.56347">
        <ele>272</ele>
        <time>2022-03-06T09:22:08Z</time>
      </trkpt>
      <trkpt lat="44.51265" lon="4.56355">
        <ele>272</ele>
        <time>2022-03-06T09:22:14Z</time>
      </trkpt>
      <trkpt lat="44.51263" lon="4.56357">
        <ele>271</ele>
        <time>2022-03-06T09:22:16Z</time>
      </trkpt>
      <trkpt lat="44.51261" lon="4.56365">
        <ele>270</ele>
        <time>2022-03-06T09:22:22Z</time>
      </trkpt>
      <trkpt lat="44.51258" lon="4.56375">
        <ele>269</ele>
        <time>2022-03-06T09:22:28Z</time>
      </trkpt>
      <trkpt lat="44.51253" lon="4.56383">
        <ele>269</ele>
        <time>2022-03-06T09:22:34Z</time>
      </trkpt>
      <trkpt lat="44.51248" lon="4.56395">
        <ele>268</ele>
        <time>2022-03-06T09:22:43Z</time>
      </trkpt>
      <trkpt lat="44.51248" lon="4.56399">
        <ele>268</ele>
        <time>2022-03-06T09:22:46Z</time>
      </trkpt>
      <trkpt lat="44.51251" lon="4.5642">
        <ele>270</ele>
        <time>2022-03-06T09:22:59Z</time>
      </trkpt>
      <trkpt lat="44.51252" lon="4.56423">
        <ele>270</ele>
        <time>2022-03-06T09:23:01Z</time>
      </trkpt>
      <trkpt lat="44.51254" lon="4.56425">
        <ele>270</ele>
        <time>2022-03-06T09:23:03Z</time>
      </trkpt>
      <trkpt lat="44.51258" lon="4.56426">
        <ele>271</ele>
        <time>2022-03-06T09:23:05Z</time>
      </trkpt>
      <trkpt lat="44.51264" lon="4.56425">
        <ele>273</ele>
        <time>2022-03-06T09:23:10Z</time>
      </trkpt>
      <trkpt lat="44.51277" lon="4.56412">
        <ele>274</ele>
        <time>2022-03-06T09:23:22Z</time>
      </trkpt>
      <trkpt lat="44.51281" lon="4.56411">
        <ele>273</ele>
        <time>2022-03-06T09:23:28Z</time>
      </trkpt>
      <trkpt lat="44.51288" lon="4.56405">
        <ele>274</ele>
        <time>2022-03-06T09:23:35Z</time>
      </trkpt>
      <trkpt lat="44.5129" lon="4.56402">
        <ele>274</ele>
        <time>2022-03-06T09:23:39Z</time>
      </trkpt>
      <trkpt lat="44.51295" lon="4.56396">
        <ele>274</ele>
        <time>2022-03-06T09:23:46Z</time>
      </trkpt>
      <trkpt lat="44.51298" lon="4.56395">
        <ele>273</ele>
        <time>2022-03-06T09:23:49Z</time>
      </trkpt>
      <trkpt lat="44.51301" lon="4.56395">
        <ele>274</ele>
        <time>2022-03-06T09:23:52Z</time>
      </trkpt>
      <trkpt lat="44.51304" lon="4.56393">
        <ele>275</ele>
        <time>2022-03-06T09:23:57Z</time>
      </trkpt>
      <trkpt lat="44.51308" lon="4.56391">
        <ele>274</ele>
        <time>2022-03-06T09:24:01Z</time>
      </trkpt>
      <trkpt lat="44.51327" lon="4.56379">
        <ele>279</ele>
        <time>2022-03-06T09:24:25Z</time>
      </trkpt>
      <trkpt lat="44.5133" lon="4.56376">
        <ele>280</ele>
        <time>2022-03-06T09:24:28Z</time>
      </trkpt>
      <trkpt lat="44.5134" lon="4.5637">
        <ele>281</ele>
        <time>2022-03-06T09:24:40Z</time>
      </trkpt>
      <trkpt lat="44.51348" lon="4.56369">
        <ele>283</ele>
        <time>2022-03-06T09:24:48Z</time>
      </trkpt>
      <trkpt lat="44.51352" lon="4.56368">
        <ele>285</ele>
        <time>2022-03-06T09:24:52Z</time>
      </trkpt>
      <trkpt lat="44.51355" lon="4.56364">
        <ele>287</ele>
        <time>2022-03-06T09:24:56Z</time>
      </trkpt>
      <trkpt lat="44.51359" lon="4.56362">
        <ele>287</ele>
        <time>2022-03-06T09:25:01Z</time>
      </trkpt>
      <trkpt lat="44.51363" lon="4.56362">
        <ele>286</ele>
        <time>2022-03-06T09:25:06Z</time>
      </trkpt>
      <trkpt lat="44.51376" lon="4.56355">
        <ele>286</ele>
        <time>2022-03-06T09:25:19Z</time>
      </trkpt>
      <trkpt lat="44.5138" lon="4.56354">
        <ele>286</ele>
        <time>2022-03-06T09:25:23Z</time>
      </trkpt>
      <trkpt lat="44.51387" lon="4.5635">
        <ele>286</ele>
        <time>2022-03-06T09:25:31Z</time>
      </trkpt>
      <trkpt lat="44.5139" lon="4.56346">
        <ele>286</ele>
        <time>2022-03-06T09:25:35Z</time>
      </trkpt>
      <trkpt lat="44.51392" lon="4.56345">
        <ele>287</ele>
        <time>2022-03-06T09:25:38Z</time>
      </trkpt>
      <trkpt lat="44.51394" lon="4.56342">
        <ele>289</ele>
        <time>2022-03-06T09:25:42Z</time>
      </trkpt>
      <trkpt lat="44.51396" lon="4.56337">
        <ele>290</ele>
        <time>2022-03-06T09:25:50Z</time>
      </trkpt>
      <trkpt lat="44.51409" lon="4.56331">
        <ele>291</ele>
        <time>2022-03-06T09:26:04Z</time>
      </trkpt>
      <trkpt lat="44.51419" lon="4.56326">
        <ele>291</ele>
        <time>2022-03-06T09:26:15Z</time>
      </trkpt>
      <trkpt lat="44.51436" lon="4.56314">
        <ele>293</ele>
        <time>2022-03-06T09:26:35Z</time>
      </trkpt>
      <trkpt lat="44.51453" lon="4.56304">
        <ele>298</ele>
        <time>2022-03-06T09:26:56Z</time>
      </trkpt>
      <trkpt lat="44.51455" lon="4.56301">
        <ele>298</ele>
        <time>2022-03-06T09:26:59Z</time>
      </trkpt>
      <trkpt lat="44.51458" lon="4.56297">
        <ele>297</ele>
        <time>2022-03-06T09:27:03Z</time>
      </trkpt>
      <trkpt lat="44.51459" lon="4.56293">
        <ele>297</ele>
        <time>2022-03-06T09:27:07Z</time>
      </trkpt>
      <trkpt lat="44.51466" lon="4.56286">
        <ele>298</ele>
        <time>2022-03-06T09:27:18Z</time>
      </trkpt>
      <trkpt lat="44.5147" lon="4.56283">
        <ele>297</ele>
        <time>2022-03-06T09:27:21Z</time>
      </trkpt>
      <trkpt lat="44.51473" lon="4.5628">
        <ele>297</ele>
        <time>2022-03-06T09:27:25Z</time>
      </trkpt>
      <trkpt lat="44.51478" lon="4.56274">
        <ele>299</ele>
        <time>2022-03-06T09:27:32Z</time>
      </trkpt>
      <trkpt lat="44.5148" lon="4.5627">
        <ele>300</ele>
        <time>2022-03-06T09:27:36Z</time>
      </trkpt>
      <trkpt lat="44.51483" lon="4.56269">
        <ele>300</ele>
        <time>2022-03-06T09:27:39Z</time>
      </trkpt>
      <trkpt lat="44.51489" lon="4.56263">
        <ele>303</ele>
        <time>2022-03-06T09:27:47Z</time>
      </trkpt>
      <trkpt lat="44.51495" lon="4.56259">
        <ele>304</ele>
        <time>2022-03-06T09:27:57Z</time>
      </trkpt>
      <trkpt lat="44.515" lon="4.56253">
        <ele>305</ele>
        <time>2022-03-06T09:28:05Z</time>
      </trkpt>
      <trkpt lat="44.51505" lon="4.56249">
        <ele>306</ele>
        <time>2022-03-06T09:28:13Z</time>
      </trkpt>
      <trkpt lat="44.51509" lon="4.56248">
        <ele>307</ele>
        <time>2022-03-06T09:28:22Z</time>
      </trkpt>
      <trkpt lat="44.51509" lon="4.56245">
        <ele>308</ele>
        <time>2022-03-06T09:29:05Z</time>
      </trkpt>
      <trkpt lat="44.51511" lon="4.56243">
        <ele>308</ele>
        <time>2022-03-06T09:29:11Z</time>
      </trkpt>
      <trkpt lat="44.51514" lon="4.56241">
        <ele>306</ele>
        <time>2022-03-06T09:29:15Z</time>
      </trkpt>
      <trkpt lat="44.51516" lon="4.56237">
        <ele>307</ele>
        <time>2022-03-06T09:29:18Z</time>
      </trkpt>
      <trkpt lat="44.51518" lon="4.56235">
        <ele>308</ele>
        <time>2022-03-06T09:29:23Z</time>
      </trkpt>
      <trkpt lat="44.51522" lon="4.5623">
        <ele>310</ele>
        <time>2022-03-06T09:29:53Z</time>
      </trkpt>
      <trkpt lat="44.51525" lon="4.56225">
        <ele>311</ele>
        <time>2022-03-06T09:29:59Z</time>
      </trkpt>
      <trkpt lat="44.51527" lon="4.56222">
        <ele>311</ele>
        <time>2022-03-06T09:30:02Z</time>
      </trkpt>
      <trkpt lat="44.51529" lon="4.56219">
        <ele>311</ele>
        <time>2022-03-06T09:30:06Z</time>
      </trkpt>
      <trkpt lat="44.51529" lon="4.56216">
        <ele>311</ele>
        <time>2022-03-06T09:30:08Z</time>
      </trkpt>
      <trkpt lat="44.51528" lon="4.56214">
        <ele>311</ele>
        <time>2022-03-06T09:30:10Z</time>
      </trkpt>
      <trkpt lat="44.51522" lon="4.56207">
        <ele>313</ele>
        <time>2022-03-06T09:30:17Z</time>
      </trkpt>
      <trkpt lat="44.5152" lon="4.56206">
        <ele>313</ele>
        <time>2022-03-06T09:30:20Z</time>
      </trkpt>
      <trkpt lat="44.51507" lon="4.56194">
        <ele>314</ele>
        <time>2022-03-06T09:30:36Z</time>
      </trkpt>
      <trkpt lat="44.51505" lon="4.56188">
        <ele>315</ele>
        <time>2022-03-06T09:30:43Z</time>
      </trkpt>
      <trkpt lat="44.51501" lon="4.56186">
        <ele>316</ele>
        <time>2022-03-06T09:30:48Z</time>
      </trkpt>
      <trkpt lat="44.51498" lon="4.5618">
        <ele>318</ele>
        <time>2022-03-06T09:31:05Z</time>
      </trkpt>
      <trkpt lat="44.51496" lon="4.56178">
        <ele>318</ele>
        <time>2022-03-06T09:31:10Z</time>
      </trkpt>
      <trkpt lat="44.51494" lon="4.56173">
        <ele>319</ele>
        <time>2022-03-06T09:31:15Z</time>
      </trkpt>
      <trkpt lat="44.51493" lon="4.56169">
        <ele>318</ele>
        <time>2022-03-06T09:31:19Z</time>
      </trkpt>
      <trkpt lat="44.51493" lon="4.56166">
        <ele>318</ele>
        <time>2022-03-06T09:31:22Z</time>
      </trkpt>
      <trkpt lat="44.51493" lon="4.56161">
        <ele>318</ele>
        <time>2022-03-06T09:31:26Z</time>
      </trkpt>
      <trkpt lat="44.5149" lon="4.56153">
        <ele>319</ele>
        <time>2022-03-06T09:31:34Z</time>
      </trkpt>
      <trkpt lat="44.51488" lon="4.5615">
        <ele>319</ele>
        <time>2022-03-06T09:31:36Z</time>
      </trkpt>
      <trkpt lat="44.51488" lon="4.56145">
        <ele>320</ele>
        <time>2022-03-06T09:31:40Z</time>
      </trkpt>
      <trkpt lat="44.51487" lon="4.56138">
        <ele>321</ele>
        <time>2022-03-06T09:31:47Z</time>
      </trkpt>
      <trkpt lat="44.51487" lon="4.56133">
        <ele>321</ele>
        <time>2022-03-06T09:31:50Z</time>
      </trkpt>
      <trkpt lat="44.51488" lon="4.5613">
        <ele>321</ele>
        <time>2022-03-06T09:31:53Z</time>
      </trkpt>
      <trkpt lat="44.51489" lon="4.56127">
        <ele>321</ele>
        <time>2022-03-06T09:31:56Z</time>
      </trkpt>
      <trkpt lat="44.5149" lon="4.56124">
        <ele>321</ele>
        <time>2022-03-06T09:31:59Z</time>
      </trkpt>
      <trkpt lat="44.515" lon="4.56124">
        <ele>324</ele>
        <time>2022-03-06T09:32:12Z</time>
      </trkpt>
      <trkpt lat="44.51506" lon="4.56128">
        <ele>324</ele>
        <time>2022-03-06T09:32:19Z</time>
      </trkpt>
      <trkpt lat="44.51509" lon="4.56127">
        <ele>324</ele>
        <time>2022-03-06T09:32:23Z</time>
      </trkpt>
      <trkpt lat="44.51514" lon="4.56127">
        <ele>326</ele>
        <time>2022-03-06T09:32:31Z</time>
      </trkpt>
      <trkpt lat="44.5154" lon="4.56122">
        <ele>332</ele>
        <time>2022-03-06T09:33:08Z</time>
      </trkpt>
      <trkpt lat="44.51541" lon="4.56124">
        <ele>334</ele>
        <time>2022-03-06T09:33:42Z</time>
      </trkpt>
      <trkpt lat="44.51549" lon="4.56125">
        <ele>335</ele>
        <time>2022-03-06T09:33:50Z</time>
      </trkpt>
      <trkpt lat="44.51555" lon="4.56128">
        <ele>336</ele>
        <time>2022-03-06T09:33:55Z</time>
      </trkpt>
      <trkpt lat="44.51562" lon="4.56123">
        <ele>337</ele>
        <time>2022-03-06T09:34:02Z</time>
      </trkpt>
      <trkpt lat="44.5157" lon="4.56122">
        <ele>336</ele>
        <time>2022-03-06T09:34:09Z</time>
      </trkpt>
      <trkpt lat="44.51573" lon="4.5612">
        <ele>336</ele>
        <time>2022-03-06T09:34:12Z</time>
      </trkpt>
      <trkpt lat="44.51577" lon="4.56119">
        <ele>336</ele>
        <time>2022-03-06T09:34:15Z</time>
      </trkpt>
      <trkpt lat="44.5158" lon="4.56115">
        <ele>337</ele>
        <time>2022-03-06T09:34:21Z</time>
      </trkpt>
      <trkpt lat="44.51583" lon="4.56114">
        <ele>337</ele>
        <time>2022-03-06T09:34:26Z</time>
      </trkpt>
      <trkpt lat="44.5159" lon="4.56112">
        <ele>336</ele>
        <time>2022-03-06T09:34:36Z</time>
      </trkpt>
      <trkpt lat="44.51594" lon="4.5611">
        <ele>337</ele>
        <time>2022-03-06T09:34:39Z</time>
      </trkpt>
      <trkpt lat="44.51601" lon="4.56102">
        <ele>337</ele>
        <time>2022-03-06T09:34:50Z</time>
      </trkpt>
      <trkpt lat="44.51604" lon="4.56101">
        <ele>337</ele>
        <time>2022-03-06T09:34:55Z</time>
      </trkpt>
      <trkpt lat="44.5161" lon="4.56101">
        <ele>339</ele>
        <time>2022-03-06T09:35:01Z</time>
      </trkpt>
      <trkpt lat="44.51613" lon="4.56095">
        <ele>340</ele>
        <time>2022-03-06T09:35:06Z</time>
      </trkpt>
      <trkpt lat="44.51617" lon="4.56092">
        <ele>341</ele>
        <time>2022-03-06T09:35:09Z</time>
      </trkpt>
      <trkpt lat="44.51618" lon="4.56086">
        <ele>342</ele>
        <time>2022-03-06T09:35:14Z</time>
      </trkpt>
      <trkpt lat="44.51618" lon="4.56081">
        <ele>342</ele>
        <time>2022-03-06T09:35:20Z</time>
      </trkpt>
      <trkpt lat="44.51621" lon="4.56072">
        <ele>343</ele>
        <time>2022-03-06T09:35:31Z</time>
      </trkpt>
      <trkpt lat="44.51622" lon="4.56069">
        <ele>344</ele>
        <time>2022-03-06T09:35:34Z</time>
      </trkpt>
      <trkpt lat="44.51623" lon="4.56065">
        <ele>344</ele>
        <time>2022-03-06T09:35:38Z</time>
      </trkpt>
      <trkpt lat="44.51624" lon="4.56062">
        <ele>345</ele>
        <time>2022-03-06T09:35:41Z</time>
      </trkpt>
      <trkpt lat="44.51627" lon="4.56051">
        <ele>348</ele>
        <time>2022-03-06T09:35:53Z</time>
      </trkpt>
      <trkpt lat="44.51628" lon="4.56047">
        <ele>348</ele>
        <time>2022-03-06T09:35:58Z</time>
      </trkpt>
      <trkpt lat="44.51628" lon="4.56042">
        <ele>348</ele>
        <time>2022-03-06T09:36:04Z</time>
      </trkpt>
      <trkpt lat="44.5163" lon="4.56037">
        <ele>348</ele>
        <time>2022-03-06T09:36:08Z</time>
      </trkpt>
      <trkpt lat="44.51633" lon="4.56021">
        <ele>351</ele>
        <time>2022-03-06T09:36:22Z</time>
      </trkpt>
      <trkpt lat="44.51635" lon="4.56019">
        <ele>352</ele>
        <time>2022-03-06T09:36:26Z</time>
      </trkpt>
      <trkpt lat="44.51633" lon="4.56015">
        <ele>353</ele>
        <time>2022-03-06T09:36:29Z</time>
      </trkpt>
      <trkpt lat="44.51635" lon="4.56007">
        <ele>355</ele>
        <time>2022-03-06T09:36:38Z</time>
      </trkpt>
      <trkpt lat="44.51636" lon="4.56003">
        <ele>356</ele>
        <time>2022-03-06T09:36:43Z</time>
      </trkpt>
      <trkpt lat="44.51635" lon="4.56">
        <ele>356</ele>
        <time>2022-03-06T09:36:47Z</time>
      </trkpt>
      <trkpt lat="44.51637" lon="4.55992">
        <ele>357</ele>
        <time>2022-03-06T09:36:54Z</time>
      </trkpt>
      <trkpt lat="44.51636" lon="4.55989">
        <ele>357</ele>
        <time>2022-03-06T09:37:00Z</time>
      </trkpt>
      <trkpt lat="44.51636" lon="4.55981">
        <ele>358</ele>
        <time>2022-03-06T09:37:08Z</time>
      </trkpt>
      <trkpt lat="44.51635" lon="4.55969">
        <ele>360</ele>
        <time>2022-03-06T09:37:21Z</time>
      </trkpt>
      <trkpt lat="44.51635" lon="4.55965">
        <ele>361</ele>
        <time>2022-03-06T09:37:26Z</time>
      </trkpt>
      <trkpt lat="44.51637" lon="4.55961">
        <ele>362</ele>
        <time>2022-03-06T09:37:30Z</time>
      </trkpt>
      <trkpt lat="44.51637" lon="4.55958">
        <ele>362</ele>
        <time>2022-03-06T09:37:33Z</time>
      </trkpt>
      <trkpt lat="44.51637" lon="4.55953">
        <ele>362</ele>
        <time>2022-03-06T09:37:37Z</time>
      </trkpt>
      <trkpt lat="44.51638" lon="4.55946">
        <ele>364</ele>
        <time>2022-03-06T09:37:46Z</time>
      </trkpt>
      <trkpt lat="44.51637" lon="4.55941">
        <ele>364</ele>
        <time>2022-03-06T09:37:52Z</time>
      </trkpt>
      <trkpt lat="44.51639" lon="4.55933">
        <ele>366</ele>
        <time>2022-03-06T09:38:01Z</time>
      </trkpt>
      <trkpt lat="44.51639" lon="4.55928">
        <ele>367</ele>
        <time>2022-03-06T09:38:05Z</time>
      </trkpt>
      <trkpt lat="44.51639" lon="4.55925">
        <ele>368</ele>
        <time>2022-03-06T09:38:10Z</time>
      </trkpt>
      <trkpt lat="44.5164" lon="4.5592">
        <ele>368</ele>
        <time>2022-03-06T09:38:15Z</time>
      </trkpt>
      <trkpt lat="44.51642" lon="4.55912">
        <ele>369</ele>
        <time>2022-03-06T09:38:23Z</time>
      </trkpt>
      <trkpt lat="44.51642" lon="4.55907">
        <ele>371</ele>
        <time>2022-03-06T09:38:28Z</time>
      </trkpt>
      <trkpt lat="44.51641" lon="4.55903">
        <ele>371</ele>
        <time>2022-03-06T09:38:32Z</time>
      </trkpt>
      <trkpt lat="44.51645" lon="4.55884">
        <ele>375</ele>
        <time>2022-03-06T09:38:52Z</time>
      </trkpt>
      <trkpt lat="44.51647" lon="4.55877">
        <ele>376</ele>
        <time>2022-03-06T09:39:00Z</time>
      </trkpt>
      <trkpt lat="44.51649" lon="4.55876">
        <ele>377</ele>
        <time>2022-03-06T09:39:04Z</time>
      </trkpt>
      <trkpt lat="44.5165" lon="4.55877">
        <ele>382</ele>
        <time>2022-03-06T09:40:08Z</time>
      </trkpt>
      <trkpt lat="44.51657" lon="4.55876">
        <ele>383</ele>
        <time>2022-03-06T09:40:13Z</time>
      </trkpt>
      <trkpt lat="44.5167" lon="4.55877">
        <ele>390</ele>
        <time>2022-03-06T09:40:26Z</time>
      </trkpt>
      <trkpt lat="44.51675" lon="4.55874">
        <ele>391</ele>
        <time>2022-03-06T09:40:33Z</time>
      </trkpt>
      <trkpt lat="44.51683" lon="4.55879">
        <ele>390</ele>
        <time>2022-03-06T09:40:48Z</time>
      </trkpt>
      <trkpt lat="44.51693" lon="4.5588">
        <ele>390</ele>
        <time>2022-03-06T09:40:58Z</time>
      </trkpt>
      <trkpt lat="44.51696" lon="4.55882">
        <ele>390</ele>
        <time>2022-03-06T09:41:03Z</time>
      </trkpt>
      <trkpt lat="44.51701" lon="4.55882">
        <ele>391</ele>
        <time>2022-03-06T09:41:08Z</time>
      </trkpt>
      <trkpt lat="44.51704" lon="4.55885">
        <ele>392</ele>
        <time>2022-03-06T09:41:13Z</time>
      </trkpt>
      <trkpt lat="44.51708" lon="4.55885">
        <ele>392</ele>
        <time>2022-03-06T09:41:17Z</time>
      </trkpt>
      <trkpt lat="44.51717" lon="4.55887">
        <ele>393</ele>
        <time>2022-03-06T09:41:27Z</time>
      </trkpt>
      <trkpt lat="44.51723" lon="4.55883">
        <ele>394</ele>
        <time>2022-03-06T09:41:30Z</time>
      </trkpt>
      <trkpt lat="44.51733" lon="4.55884">
        <ele>395</ele>
        <time>2022-03-06T09:41:39Z</time>
      </trkpt>
      <trkpt lat="44.51759" lon="4.55903">
        <ele>391</ele>
        <time>2022-03-06T09:42:11Z</time>
      </trkpt>
      <trkpt lat="44.51769" lon="4.5591">
        <ele>390</ele>
        <time>2022-03-06T09:42:21Z</time>
      </trkpt>
      <trkpt lat="44.51775" lon="4.55913">
        <ele>392</ele>
        <time>2022-03-06T09:42:27Z</time>
      </trkpt>
      <trkpt lat="44.51783" lon="4.55918">
        <ele>392</ele>
        <time>2022-03-06T09:42:35Z</time>
      </trkpt>
      <trkpt lat="44.51785" lon="4.55921">
        <ele>393</ele>
        <time>2022-03-06T09:42:37Z</time>
      </trkpt>
      <trkpt lat="44.51804" lon="4.55934">
        <ele>393</ele>
        <time>2022-03-06T09:42:59Z</time>
      </trkpt>
      <trkpt lat="44.51811" lon="4.55944">
        <ele>394</ele>
        <time>2022-03-06T09:43:08Z</time>
      </trkpt>
      <trkpt lat="44.51822" lon="4.55963">
        <ele>395</ele>
        <time>2022-03-06T09:43:25Z</time>
      </trkpt>
      <trkpt lat="44.51831" lon="4.55972">
        <ele>396</ele>
        <time>2022-03-06T09:43:35Z</time>
      </trkpt>
      <trkpt lat="44.51841" lon="4.55979">
        <ele>396</ele>
        <time>2022-03-06T09:43:47Z</time>
      </trkpt>
      <trkpt lat="44.51847" lon="4.55982">
        <ele>396</ele>
        <time>2022-03-06T09:43:53Z</time>
      </trkpt>
      <trkpt lat="44.51855" lon="4.55984">
        <ele>396</ele>
        <time>2022-03-06T09:44:03Z</time>
      </trkpt>
      <trkpt lat="44.51858" lon="4.55984">
        <ele>396</ele>
        <time>2022-03-06T09:44:06Z</time>
      </trkpt>
      <trkpt lat="44.51863" lon="4.55983">
        <ele>396</ele>
        <time>2022-03-06T09:44:11Z</time>
      </trkpt>
      <trkpt lat="44.51866" lon="4.55983">
        <ele>397</ele>
        <time>2022-03-06T09:44:14Z</time>
      </trkpt>
      <trkpt lat="44.51874" lon="4.55984">
        <ele>397</ele>
        <time>2022-03-06T09:44:24Z</time>
      </trkpt>
      <trkpt lat="44.51878" lon="4.55982">
        <ele>399</ele>
        <time>2022-03-06T09:44:29Z</time>
      </trkpt>
      <trkpt lat="44.51887" lon="4.55982">
        <ele>402</ele>
        <time>2022-03-06T09:44:37Z</time>
      </trkpt>
      <trkpt lat="44.51892" lon="4.55977">
        <ele>401</ele>
        <time>2022-03-06T09:44:45Z</time>
      </trkpt>
      <trkpt lat="44.51897" lon="4.55975">
        <ele>402</ele>
        <time>2022-03-06T09:44:54Z</time>
      </trkpt>
      <trkpt lat="44.51901" lon="4.55978">
        <ele>402</ele>
        <time>2022-03-06T09:44:58Z</time>
      </trkpt>
      <trkpt lat="44.51903" lon="4.55979">
        <ele>405</ele>
        <time>2022-03-06T09:45:01Z</time>
      </trkpt>
      <trkpt lat="44.51905" lon="4.55976">
        <ele>406</ele>
        <time>2022-03-06T09:45:05Z</time>
      </trkpt>
      <trkpt lat="44.51909" lon="4.55977">
        <ele>407</ele>
        <time>2022-03-06T09:45:11Z</time>
      </trkpt>
      <trkpt lat="44.51913" lon="4.55976">
        <ele>408</ele>
        <time>2022-03-06T09:45:16Z</time>
      </trkpt>
      <trkpt lat="44.51928" lon="4.55975">
        <ele>408</ele>
        <time>2022-03-06T09:45:32Z</time>
      </trkpt>
      <trkpt lat="44.51933" lon="4.55976">
        <ele>409</ele>
        <time>2022-03-06T09:45:38Z</time>
      </trkpt>
      <trkpt lat="44.51951" lon="4.55974">
        <ele>409</ele>
        <time>2022-03-06T09:45:54Z</time>
      </trkpt>
      <trkpt lat="44.51959" lon="4.55971">
        <ele>409</ele>
        <time>2022-03-06T09:46:00Z</time>
      </trkpt>
      <trkpt lat="44.51963" lon="4.55971">
        <ele>410</ele>
        <time>2022-03-06T09:46:03Z</time>
      </trkpt>
      <trkpt lat="44.51966" lon="4.55969">
        <ele>411</ele>
        <time>2022-03-06T09:46:06Z</time>
      </trkpt>
      <trkpt lat="44.51974" lon="4.55963">
        <ele>410</ele>
        <time>2022-03-06T09:46:15Z</time>
      </trkpt>
      <trkpt lat="44.51978" lon="4.55965">
        <ele>411</ele>
        <time>2022-03-06T09:46:18Z</time>
      </trkpt>
      <trkpt lat="44.51982" lon="4.55957">
        <ele>412</ele>
        <time>2022-03-06T09:46:27Z</time>
      </trkpt>
      <trkpt lat="44.51991" lon="4.55961">
        <ele>413</ele>
        <time>2022-03-06T09:46:41Z</time>
      </trkpt>
      <trkpt lat="44.51999" lon="4.55961">
        <ele>413</ele>
        <time>2022-03-06T09:46:46Z</time>
      </trkpt>
      <trkpt lat="44.52005" lon="4.55954">
        <ele>414</ele>
        <time>2022-03-06T09:46:52Z</time>
      </trkpt>
      <trkpt lat="44.52011" lon="4.55951">
        <ele>416</ele>
        <time>2022-03-06T09:47:16Z</time>
      </trkpt>
      <trkpt lat="44.52018" lon="4.55951">
        <ele>417</ele>
        <time>2022-03-06T09:48:15Z</time>
      </trkpt>
      <trkpt lat="44.52023" lon="4.55948">
        <ele>419</ele>
        <time>2022-03-06T09:48:21Z</time>
      </trkpt>
      <trkpt lat="44.52029" lon="4.55947">
        <ele>419</ele>
        <time>2022-03-06T09:48:28Z</time>
      </trkpt>
      <trkpt lat="44.52057" lon="4.55953">
        <ele>415</ele>
        <time>2022-03-06T09:48:53Z</time>
      </trkpt>
      <trkpt lat="44.52073" lon="4.55951">
        <ele>414</ele>
        <time>2022-03-06T09:49:09Z</time>
      </trkpt>
      <trkpt lat="44.52077" lon="4.5595">
        <ele>413</ele>
        <time>2022-03-06T09:49:12Z</time>
      </trkpt>
      <trkpt lat="44.52085" lon="4.55953">
        <ele>413</ele>
        <time>2022-03-06T09:49:19Z</time>
      </trkpt>
      <trkpt lat="44.52094" lon="4.5596">
        <ele>414</ele>
        <time>2022-03-06T09:49:27Z</time>
      </trkpt>
      <trkpt lat="44.52101" lon="4.55963">
        <ele>414</ele>
        <time>2022-03-06T09:49:33Z</time>
      </trkpt>
      <trkpt lat="44.52107" lon="4.55965">
        <ele>414</ele>
        <time>2022-03-06T09:49:39Z</time>
      </trkpt>
      <trkpt lat="44.52111" lon="4.55968">
        <ele>414</ele>
        <time>2022-03-06T09:49:45Z</time>
      </trkpt>
      <trkpt lat="44.52114" lon="4.5597">
        <ele>415</ele>
        <time>2022-03-06T09:49:48Z</time>
      </trkpt>
      <trkpt lat="44.52127" lon="4.55974">
        <ele>416</ele>
        <time>2022-03-06T09:49:59Z</time>
      </trkpt>
      <trkpt lat="44.5213" lon="4.55977">
        <ele>416</ele>
        <time>2022-03-06T09:50:02Z</time>
      </trkpt>
      <trkpt lat="44.52135" lon="4.5598">
        <ele>415</ele>
        <time>2022-03-06T09:50:07Z</time>
      </trkpt>
      <trkpt lat="44.5214" lon="4.55982">
        <ele>414</ele>
        <time>2022-03-06T09:50:11Z</time>
      </trkpt>
      <trkpt lat="44.52145" lon="4.55985">
        <ele>414</ele>
        <time>2022-03-06T09:50:15Z</time>
      </trkpt>
      <trkpt lat="44.5215" lon="4.55989">
        <ele>414</ele>
        <time>2022-03-06T09:50:20Z</time>
      </trkpt>
      <trkpt lat="44.52178" lon="4.56003">
        <ele>413</ele>
        <time>2022-03-06T09:50:47Z</time>
      </trkpt>
      <trkpt lat="44.52184" lon="4.56006">
        <ele>413</ele>
        <time>2022-03-06T09:50:52Z</time>
      </trkpt>
      <trkpt lat="44.52197" lon="4.56005">
        <ele>412</ele>
        <time>2022-03-06T09:51:03Z</time>
      </trkpt>
      <trkpt lat="44.52203" lon="4.56007">
        <ele>411</ele>
        <time>2022-03-06T09:51:08Z</time>
      </trkpt>
      <trkpt lat="44.52213" lon="4.56008">
        <ele>412</ele>
        <time>2022-03-06T09:51:18Z</time>
      </trkpt>
      <trkpt lat="44.5222" lon="4.56013">
        <ele>413</ele>
        <time>2022-03-06T09:51:27Z</time>
      </trkpt>
      <trkpt lat="44.52224" lon="4.56012">
        <ele>412</ele>
        <time>2022-03-06T09:51:30Z</time>
      </trkpt>
      <trkpt lat="44.52231" lon="4.56013">
        <ele>411</ele>
        <time>2022-03-06T09:51:37Z</time>
      </trkpt>
      <trkpt lat="44.52235" lon="4.56013">
        <ele>410</ele>
        <time>2022-03-06T09:51:40Z</time>
      </trkpt>
      <trkpt lat="44.52241" lon="4.56011">
        <ele>408</ele>
        <time>2022-03-06T09:51:47Z</time>
      </trkpt>
      <trkpt lat="44.52244" lon="4.56015">
        <ele>407</ele>
        <time>2022-03-06T09:51:51Z</time>
      </trkpt>
      <trkpt lat="44.52251" lon="4.56015">
        <ele>407</ele>
        <time>2022-03-06T09:51:56Z</time>
      </trkpt>
      <trkpt lat="44.52253" lon="4.56018">
        <ele>407</ele>
        <time>2022-03-06T09:51:58Z</time>
      </trkpt>
      <trkpt lat="44.52258" lon="4.56015">
        <ele>406</ele>
        <time>2022-03-06T09:52:03Z</time>
      </trkpt>
      <trkpt lat="44.52264" lon="4.56008">
        <ele>404</ele>
        <time>2022-03-06T09:52:08Z</time>
      </trkpt>
      <trkpt lat="44.52268" lon="4.56009">
        <ele>403</ele>
        <time>2022-03-06T09:52:12Z</time>
      </trkpt>
      <trkpt lat="44.52285" lon="4.56012">
        <ele>402</ele>
        <time>2022-03-06T09:52:28Z</time>
      </trkpt>
      <trkpt lat="44.52292" lon="4.56016">
        <ele>402</ele>
        <time>2022-03-06T09:52:34Z</time>
      </trkpt>
      <trkpt lat="44.52293" lon="4.56022">
        <ele>404</ele>
        <time>2022-03-06T09:52:38Z</time>
      </trkpt>
      <trkpt lat="44.52302" lon="4.5603">
        <ele>404</ele>
        <time>2022-03-06T09:52:48Z</time>
      </trkpt>
      <trkpt lat="44.52311" lon="4.56036">
        <ele>403</ele>
        <time>2022-03-06T09:52:57Z</time>
      </trkpt>
      <trkpt lat="44.52323" lon="4.5605">
        <ele>402</ele>
        <time>2022-03-06T09:53:10Z</time>
      </trkpt>
      <trkpt lat="44.52325" lon="4.56053">
        <ele>402</ele>
        <time>2022-03-06T09:53:13Z</time>
      </trkpt>
      <trkpt lat="44.52327" lon="4.56057">
        <ele>403</ele>
        <time>2022-03-06T09:53:16Z</time>
      </trkpt>
      <trkpt lat="44.52331" lon="4.56057">
        <ele>404</ele>
        <time>2022-03-06T09:53:19Z</time>
      </trkpt>
      <trkpt lat="44.52333" lon="4.5606">
        <ele>404</ele>
        <time>2022-03-06T09:53:22Z</time>
      </trkpt>
      <trkpt lat="44.52339" lon="4.56063">
        <ele>404</ele>
        <time>2022-03-06T09:53:31Z</time>
      </trkpt>
      <trkpt lat="44.52342" lon="4.56065">
        <ele>404</ele>
        <time>2022-03-06T09:53:35Z</time>
      </trkpt>
      <trkpt lat="44.52345" lon="4.56066">
        <ele>405</ele>
        <time>2022-03-06T09:53:39Z</time>
      </trkpt>
      <trkpt lat="44.52359" lon="4.56065">
        <ele>403</ele>
        <time>2022-03-06T09:53:56Z</time>
      </trkpt>
      <trkpt lat="44.52373" lon="4.56067">
        <ele>403</ele>
        <time>2022-03-06T09:54:11Z</time>
      </trkpt>
      <trkpt lat="44.52376" lon="4.56069">
        <ele>403</ele>
        <time>2022-03-06T09:54:16Z</time>
      </trkpt>
      <trkpt lat="44.52392" lon="4.56075">
        <ele>402</ele>
        <time>2022-03-06T09:54:33Z</time>
      </trkpt>
      <trkpt lat="44.52398" lon="4.56077">
        <ele>401</ele>
        <time>2022-03-06T09:54:39Z</time>
      </trkpt>
      <trkpt lat="44.52401" lon="4.56077">
        <ele>401</ele>
        <time>2022-03-06T09:54:41Z</time>
      </trkpt>
      <trkpt lat="44.52404" lon="4.56076">
        <ele>401</ele>
        <time>2022-03-06T09:54:43Z</time>
      </trkpt>
      <trkpt lat="44.52408" lon="4.56072">
        <ele>402</ele>
        <time>2022-03-06T09:54:45Z</time>
      </trkpt>
      <trkpt lat="44.52411" lon="4.5607">
        <ele>401</ele>
        <time>2022-03-06T09:54:50Z</time>
      </trkpt>
      <trkpt lat="44.52415" lon="4.56071">
        <ele>399</ele>
        <time>2022-03-06T09:54:56Z</time>
      </trkpt>
      <trkpt lat="44.52419" lon="4.56072">
        <ele>397</ele>
        <time>2022-03-06T09:55:00Z</time>
      </trkpt>
      <trkpt lat="44.52442" lon="4.56078">
        <ele>394</ele>
        <time>2022-03-06T09:55:24Z</time>
      </trkpt>
      <trkpt lat="44.52445" lon="4.5608">
        <ele>394</ele>
        <time>2022-03-06T09:55:28Z</time>
      </trkpt>
      <trkpt lat="44.52448" lon="4.56083">
        <ele>392</ele>
        <time>2022-03-06T09:55:31Z</time>
      </trkpt>
      <trkpt lat="44.52465" lon="4.56093">
        <ele>393</ele>
        <time>2022-03-06T09:55:49Z</time>
      </trkpt>
      <trkpt lat="44.52467" lon="4.56096">
        <ele>394</ele>
        <time>2022-03-06T09:55:52Z</time>
      </trkpt>
      <trkpt lat="44.52469" lon="4.56098">
        <ele>394</ele>
        <time>2022-03-06T09:55:55Z</time>
      </trkpt>
      <trkpt lat="44.52473" lon="4.56101">
        <ele>395</ele>
        <time>2022-03-06T09:55:58Z</time>
      </trkpt>
      <trkpt lat="44.52475" lon="4.56103">
        <ele>395</ele>
        <time>2022-03-06T09:56:01Z</time>
      </trkpt>
      <trkpt lat="44.52481" lon="4.5611">
        <ele>396</ele>
        <time>2022-03-06T09:56:07Z</time>
      </trkpt>
      <trkpt lat="44.52486" lon="4.56118">
        <ele>396</ele>
        <time>2022-03-06T09:56:15Z</time>
      </trkpt>
      <trkpt lat="44.52489" lon="4.56122">
        <ele>395</ele>
        <time>2022-03-06T09:56:19Z</time>
      </trkpt>
      <trkpt lat="44.52492" lon="4.56125">
        <ele>396</ele>
        <time>2022-03-06T09:56:23Z</time>
      </trkpt>
      <trkpt lat="44.52495" lon="4.56128">
        <ele>397</ele>
        <time>2022-03-06T09:56:26Z</time>
      </trkpt>
      <trkpt lat="44.525" lon="4.56134">
        <ele>398</ele>
        <time>2022-03-06T09:56:32Z</time>
      </trkpt>
      <trkpt lat="44.52509" lon="4.56147">
        <ele>398</ele>
        <time>2022-03-06T09:56:45Z</time>
      </trkpt>
      <trkpt lat="44.52511" lon="4.56151">
        <ele>398</ele>
        <time>2022-03-06T09:56:50Z</time>
      </trkpt>
      <trkpt lat="44.52513" lon="4.56155">
        <ele>399</ele>
        <time>2022-03-06T09:56:53Z</time>
      </trkpt>
      <trkpt lat="44.52515" lon="4.56159">
        <ele>400</ele>
        <time>2022-03-06T09:56:57Z</time>
      </trkpt>
      <trkpt lat="44.5252" lon="4.56165">
        <ele>401</ele>
        <time>2022-03-06T09:57:03Z</time>
      </trkpt>
      <trkpt lat="44.52525" lon="4.56176">
        <ele>404</ele>
        <time>2022-03-06T09:57:15Z</time>
      </trkpt>
      <trkpt lat="44.52537" lon="4.56188">
        <ele>406</ele>
        <time>2022-03-06T09:57:32Z</time>
      </trkpt>
      <trkpt lat="44.52541" lon="4.56187">
        <ele>407</ele>
        <time>2022-03-06T09:57:34Z</time>
      </trkpt>
      <trkpt lat="44.52544" lon="4.56187">
        <ele>408</ele>
        <time>2022-03-06T09:57:45Z</time>
      </trkpt>
      <trkpt lat="44.52546" lon="4.56183">
        <ele>410</ele>
        <time>2022-03-06T09:57:48Z</time>
      </trkpt>
      <trkpt lat="44.52546" lon="4.56179">
        <ele>409</ele>
        <time>2022-03-06T09:57:51Z</time>
      </trkpt>
      <trkpt lat="44.52547" lon="4.56171">
        <ele>411</ele>
        <time>2022-03-06T09:57:58Z</time>
      </trkpt>
      <trkpt lat="44.52552" lon="4.56145">
        <ele>412</ele>
        <time>2022-03-06T09:58:16Z</time>
      </trkpt>
      <trkpt lat="44.52555" lon="4.56142">
        <ele>413</ele>
        <time>2022-03-06T09:58:18Z</time>
      </trkpt>
      <trkpt lat="44.52553" lon="4.56138">
        <ele>414</ele>
        <time>2022-03-06T09:58:21Z</time>
      </trkpt>
      <trkpt lat="44.52553" lon="4.56133">
        <ele>414</ele>
        <time>2022-03-06T09:58:25Z</time>
      </trkpt>
      <trkpt lat="44.52554" lon="4.56115">
        <ele>413</ele>
        <time>2022-03-06T09:58:37Z</time>
      </trkpt>
      <trkpt lat="44.52554" lon="4.5611">
        <ele>413</ele>
        <time>2022-03-06T09:58:41Z</time>
      </trkpt>
      <trkpt lat="44.52558" lon="4.56091">
        <ele>414</ele>
        <time>2022-03-06T09:58:55Z</time>
      </trkpt>
      <trkpt lat="44.5256" lon="4.56083">
        <ele>414</ele>
        <time>2022-03-06T09:59:01Z</time>
      </trkpt>
      <trkpt lat="44.52561" lon="4.56077">
        <ele>414</ele>
        <time>2022-03-06T09:59:06Z</time>
      </trkpt>
      <trkpt lat="44.52563" lon="4.56073">
        <ele>414</ele>
        <time>2022-03-06T09:59:10Z</time>
      </trkpt>
      <trkpt lat="44.52584" lon="4.5603">
        <ele>418</ele>
        <time>2022-03-06T09:59:42Z</time>
      </trkpt>
      <trkpt lat="44.52598" lon="4.56013">
        <ele>419</ele>
        <time>2022-03-06T10:00:00Z</time>
      </trkpt>
      <trkpt lat="44.52601" lon="4.5601">
        <ele>419</ele>
        <time>2022-03-06T10:00:04Z</time>
      </trkpt>
      <trkpt lat="44.52605" lon="4.56005">
        <ele>421</ele>
        <time>2022-03-06T10:00:08Z</time>
      </trkpt>
      <trkpt lat="44.52611" lon="4.56">
        <ele>418</ele>
        <time>2022-03-06T10:00:15Z</time>
      </trkpt>
      <trkpt lat="44.52615" lon="4.55996">
        <ele>418</ele>
        <time>2022-03-06T10:00:19Z</time>
      </trkpt>
      <trkpt lat="44.52618" lon="4.55994">
        <ele>418</ele>
        <time>2022-03-06T10:00:23Z</time>
      </trkpt>
      <trkpt lat="44.52624" lon="4.55986">
        <ele>418</ele>
        <time>2022-03-06T10:00:30Z</time>
      </trkpt>
      <trkpt lat="44.52636" lon="4.55975">
        <ele>420</ele>
        <time>2022-03-06T10:00:44Z</time>
      </trkpt>
      <trkpt lat="44.52641" lon="4.55969">
        <ele>420</ele>
        <time>2022-03-06T10:00:49Z</time>
      </trkpt>
      <trkpt lat="44.5265" lon="4.55962">
        <ele>421</ele>
        <time>2022-03-06T10:01:08Z</time>
      </trkpt>
      <trkpt lat="44.52653" lon="4.55959">
        <ele>420</ele>
        <time>2022-03-06T10:01:15Z</time>
      </trkpt>
      <trkpt lat="44.52655" lon="4.55957">
        <ele>419</ele>
        <time>2022-03-06T10:01:19Z</time>
      </trkpt>
      <trkpt lat="44.52661" lon="4.55954">
        <ele>417</ele>
        <time>2022-03-06T10:01:27Z</time>
      </trkpt>
      <trkpt lat="44.52673" lon="4.55938">
        <ele>420</ele>
        <time>2022-03-06T10:01:46Z</time>
      </trkpt>
      <trkpt lat="44.52694" lon="4.55923">
        <ele>422</ele>
        <time>2022-03-06T10:02:14Z</time>
      </trkpt>
      <trkpt lat="44.52697" lon="4.55922">
        <ele>422</ele>
        <time>2022-03-06T10:02:19Z</time>
      </trkpt>
      <trkpt lat="44.527" lon="4.55919">
        <ele>422</ele>
        <time>2022-03-06T10:02:22Z</time>
      </trkpt>
      <trkpt lat="44.52703" lon="4.55918">
        <ele>422</ele>
        <time>2022-03-06T10:02:26Z</time>
      </trkpt>
      <trkpt lat="44.52711" lon="4.55911">
        <ele>424</ele>
        <time>2022-03-06T10:02:40Z</time>
      </trkpt>
      <trkpt lat="44.52713" lon="4.55908">
        <ele>424</ele>
        <time>2022-03-06T10:02:44Z</time>
      </trkpt>
      <trkpt lat="44.52715" lon="4.55905">
        <ele>425</ele>
        <time>2022-03-06T10:02:47Z</time>
      </trkpt>
      <trkpt lat="44.52717" lon="4.55902">
        <ele>425</ele>
        <time>2022-03-06T10:02:53Z</time>
      </trkpt>
      <trkpt lat="44.52718" lon="4.559">
        <ele>425</ele>
        <time>2022-03-06T10:02:58Z</time>
      </trkpt>
      <trkpt lat="44.52722" lon="4.55895">
        <ele>427</ele>
        <time>2022-03-06T10:03:09Z</time>
      </trkpt>
      <trkpt lat="44.52724" lon="4.55891">
        <ele>428</ele>
        <time>2022-03-06T10:03:13Z</time>
      </trkpt>
      <trkpt lat="44.52725" lon="4.55889">
        <ele>430</ele>
        <time>2022-03-06T10:03:17Z</time>
      </trkpt>
      <trkpt lat="44.52726" lon="4.55886">
        <ele>431</ele>
        <time>2022-03-06T10:03:22Z</time>
      </trkpt>
      <trkpt lat="44.52728" lon="4.55882">
        <ele>432</ele>
        <time>2022-03-06T10:03:27Z</time>
      </trkpt>
      <trkpt lat="44.5273" lon="4.55879">
        <ele>433</ele>
        <time>2022-03-06T10:03:31Z</time>
      </trkpt>
      <trkpt lat="44.52733" lon="4.55877">
        <ele>436</ele>
        <time>2022-03-06T10:03:58Z</time>
      </trkpt>
      <trkpt lat="44.52732" lon="4.55876">
        <ele>438</ele>
        <time>2022-03-06T10:04:24Z</time>
      </trkpt>
      <trkpt lat="44.52734" lon="4.55874">
        <ele>438</ele>
        <time>2022-03-06T10:04:32Z</time>
      </trkpt>
      <trkpt lat="44.52732" lon="4.55872">
        <ele>438</ele>
        <time>2022-03-06T10:04:35Z</time>
      </trkpt>
      <trkpt lat="44.52731" lon="4.55873">
        <ele>441</ele>
        <time>2022-03-06T10:04:52Z</time>
      </trkpt>
      <trkpt lat="44.52732" lon="4.55875">
        <ele>441</ele>
        <time>2022-03-06T10:04:59Z</time>
      </trkpt>
      <trkpt lat="44.52731" lon="4.55876">
        <ele>445</ele>
        <time>2022-03-06T10:06:31Z</time>
      </trkpt>
      <trkpt lat="44.5273" lon="4.55874">
        <ele>445</ele>
        <time>2022-03-06T10:07:20Z</time>
      </trkpt>
      <trkpt lat="44.52732" lon="4.55873">
        <ele>445</ele>
        <time>2022-03-06T10:07:53Z</time>
      </trkpt>
      <trkpt lat="44.52758" lon="4.55868">
        <ele>441</ele>
        <time>2022-03-06T10:08:15Z</time>
      </trkpt>
      <trkpt lat="44.52764" lon="4.55865">
        <ele>441</ele>
        <time>2022-03-06T10:08:20Z</time>
      </trkpt>
      <trkpt lat="44.52766" lon="4.55863">
        <ele>441</ele>
        <time>2022-03-06T10:08:22Z</time>
      </trkpt>
      <trkpt lat="44.52771" lon="4.55861">
        <ele>440</ele>
        <time>2022-03-06T10:08:27Z</time>
      </trkpt>
      <trkpt lat="44.52774" lon="4.5586">
        <ele>440</ele>
        <time>2022-03-06T10:08:29Z</time>
      </trkpt>
      <trkpt lat="44.52785" lon="4.55857">
        <ele>440</ele>
        <time>2022-03-06T10:08:40Z</time>
      </trkpt>
      <trkpt lat="44.52788" lon="4.55856">
        <ele>440</ele>
        <time>2022-03-06T10:08:43Z</time>
      </trkpt>
      <trkpt lat="44.52802" lon="4.5585">
        <ele>438</ele>
        <time>2022-03-06T10:08:55Z</time>
      </trkpt>
      <trkpt lat="44.52819" lon="4.55835">
        <ele>437</ele>
        <time>2022-03-06T10:09:14Z</time>
      </trkpt>
      <trkpt lat="44.52821" lon="4.55831">
        <ele>436</ele>
        <time>2022-03-06T10:09:18Z</time>
      </trkpt>
      <trkpt lat="44.52825" lon="4.55828">
        <ele>435</ele>
        <time>2022-03-06T10:09:23Z</time>
      </trkpt>
      <trkpt lat="44.5285" lon="4.55813">
        <ele>433</ele>
        <time>2022-03-06T10:09:47Z</time>
      </trkpt>
      <trkpt lat="44.52877" lon="4.55787">
        <ele>429</ele>
        <time>2022-03-06T10:10:17Z</time>
      </trkpt>
      <trkpt lat="44.52887" lon="4.55778">
        <ele>429</ele>
        <time>2022-03-06T10:10:29Z</time>
      </trkpt>
      <trkpt lat="44.52889" lon="4.55775">
        <ele>428</ele>
        <time>2022-03-06T10:10:32Z</time>
      </trkpt>
      <trkpt lat="44.52895" lon="4.5577">
        <ele>426</ele>
        <time>2022-03-06T10:10:37Z</time>
      </trkpt>
      <trkpt lat="44.52899" lon="4.55765">
        <ele>426</ele>
        <time>2022-03-06T10:10:43Z</time>
      </trkpt>
      <trkpt lat="44.52901" lon="4.55762">
        <ele>426</ele>
        <time>2022-03-06T10:10:46Z</time>
      </trkpt>
      <trkpt lat="44.52906" lon="4.55756">
        <ele>425</ele>
        <time>2022-03-06T10:10:52Z</time>
      </trkpt>
      <trkpt lat="44.52918" lon="4.5574">
        <ele>423</ele>
        <time>2022-03-06T10:11:07Z</time>
      </trkpt>
      <trkpt lat="44.52921" lon="4.55737">
        <ele>423</ele>
        <time>2022-03-06T10:11:10Z</time>
      </trkpt>
      <trkpt lat="44.52925" lon="4.55732">
        <ele>423</ele>
        <time>2022-03-06T10:11:16Z</time>
      </trkpt>
      <trkpt lat="44.52929" lon="4.55728">
        <ele>422</ele>
        <time>2022-03-06T10:11:19Z</time>
      </trkpt>
      <trkpt lat="44.52934" lon="4.55722">
        <ele>421</ele>
        <time>2022-03-06T10:11:25Z</time>
      </trkpt>
      <trkpt lat="44.52956" lon="4.55701">
        <ele>423</ele>
        <time>2022-03-06T10:11:45Z</time>
      </trkpt>
      <trkpt lat="44.52961" lon="4.55695">
        <ele>422</ele>
        <time>2022-03-06T10:11:52Z</time>
      </trkpt>
      <trkpt lat="44.52975" lon="4.55679">
        <ele>423</ele>
        <time>2022-03-06T10:12:06Z</time>
      </trkpt>
      <trkpt lat="44.53009" lon="4.55659">
        <ele>425</ele>
        <time>2022-03-06T10:12:38Z</time>
      </trkpt>
      <trkpt lat="44.53014" lon="4.55657">
        <ele>425</ele>
        <time>2022-03-06T10:12:42Z</time>
      </trkpt>
      <trkpt lat="44.53019" lon="4.55655">
        <ele>425</ele>
        <time>2022-03-06T10:12:47Z</time>
      </trkpt>
      <trkpt lat="44.53022" lon="4.55654">
        <ele>425</ele>
        <time>2022-03-06T10:12:49Z</time>
      </trkpt>
      <trkpt lat="44.53029" lon="4.55651">
        <ele>425</ele>
        <time>2022-03-06T10:12:55Z</time>
      </trkpt>
      <trkpt lat="44.53035" lon="4.55649">
        <ele>425</ele>
        <time>2022-03-06T10:13:02Z</time>
      </trkpt>
      <trkpt lat="44.53039" lon="4.55648">
        <ele>424</ele>
        <time>2022-03-06T10:13:05Z</time>
      </trkpt>
      <trkpt lat="44.53056" lon="4.55638">
        <ele>421</ele>
        <time>2022-03-06T10:13:20Z</time>
      </trkpt>
      <trkpt lat="44.5307" lon="4.55632">
        <ele>425</ele>
        <time>2022-03-06T10:13:44Z</time>
      </trkpt>
      <trkpt lat="44.53077" lon="4.55632">
        <ele>425</ele>
        <time>2022-03-06T10:13:52Z</time>
      </trkpt>
      <trkpt lat="44.53094" lon="4.55627">
        <ele>420</ele>
        <time>2022-03-06T10:14:07Z</time>
      </trkpt>
      <trkpt lat="44.53111" lon="4.55624">
        <ele>418</ele>
        <time>2022-03-06T10:14:22Z</time>
      </trkpt>
      <trkpt lat="44.53119" lon="4.55621">
        <ele>418</ele>
        <time>2022-03-06T10:14:29Z</time>
      </trkpt>
      <trkpt lat="44.53151" lon="4.55601">
        <ele>416</ele>
        <time>2022-03-06T10:14:59Z</time>
      </trkpt>
      <trkpt lat="44.53159" lon="4.55595">
        <ele>417</ele>
        <time>2022-03-06T10:15:09Z</time>
      </trkpt>
      <trkpt lat="44.53181" lon="4.55583">
        <ele>420</ele>
        <time>2022-03-06T10:15:32Z</time>
      </trkpt>
      <trkpt lat="44.5321" lon="4.55575">
        <ele>422</ele>
        <time>2022-03-06T10:16:02Z</time>
      </trkpt>
      <trkpt lat="44.53213" lon="4.55573">
        <ele>422</ele>
        <time>2022-03-06T10:16:05Z</time>
      </trkpt>
      <trkpt lat="44.53215" lon="4.55572">
        <ele>423</ele>
        <time>2022-03-06T10:16:08Z</time>
      </trkpt>
      <trkpt lat="44.53217" lon="4.55575">
        <ele>424</ele>
        <time>2022-03-06T10:16:11Z</time>
      </trkpt>
      <trkpt lat="44.5322" lon="4.55575">
        <ele>424</ele>
        <time>2022-03-06T10:16:14Z</time>
      </trkpt>
      <trkpt lat="44.53224" lon="4.55577">
        <ele>424</ele>
        <time>2022-03-06T10:16:19Z</time>
      </trkpt>
      <trkpt lat="44.53234" lon="4.55577">
        <ele>427</ele>
        <time>2022-03-06T10:16:30Z</time>
      </trkpt>
      <trkpt lat="44.53236" lon="4.55578">
        <ele>428</ele>
        <time>2022-03-06T10:16:33Z</time>
      </trkpt>
      <trkpt lat="44.53248" lon="4.55578">
        <ele>429</ele>
        <time>2022-03-06T10:16:46Z</time>
      </trkpt>
      <trkpt lat="44.53261" lon="4.55576">
        <ele>432</ele>
        <time>2022-03-06T10:16:58Z</time>
      </trkpt>
      <trkpt lat="44.53277" lon="4.55572">
        <ele>433</ele>
        <time>2022-03-06T10:17:13Z</time>
      </trkpt>
      <trkpt lat="44.5328" lon="4.5557">
        <ele>433</ele>
        <time>2022-03-06T10:17:16Z</time>
      </trkpt>
      <trkpt lat="44.53283" lon="4.55569">
        <ele>433</ele>
        <time>2022-03-06T10:17:19Z</time>
      </trkpt>
      <trkpt lat="44.53286" lon="4.55571">
        <ele>434</ele>
        <time>2022-03-06T10:17:21Z</time>
      </trkpt>
      <trkpt lat="44.533" lon="4.55568">
        <ele>435</ele>
        <time>2022-03-06T10:17:34Z</time>
      </trkpt>
      <trkpt lat="44.53298" lon="4.55566">
        <ele>436</ele>
        <time>2022-03-06T10:17:57Z</time>
      </trkpt>
      <trkpt lat="44.53302" lon="4.55564">
        <ele>434</ele>
        <time>2022-03-06T10:18:56Z</time>
      </trkpt>
      <trkpt lat="44.53303" lon="4.55568">
        <ele>434</ele>
        <time>2022-03-06T10:19:26Z</time>
      </trkpt>
      <trkpt lat="44.53306" lon="4.55568">
        <ele>436</ele>
        <time>2022-03-06T10:19:30Z</time>
      </trkpt>
      <trkpt lat="44.53307" lon="4.55571">
        <ele>436</ele>
        <time>2022-03-06T10:19:33Z</time>
      </trkpt>
      <trkpt lat="44.53311" lon="4.55571">
        <ele>436</ele>
        <time>2022-03-06T10:19:36Z</time>
      </trkpt>
      <trkpt lat="44.53314" lon="4.55571">
        <ele>437</ele>
        <time>2022-03-06T10:19:40Z</time>
      </trkpt>
      <trkpt lat="44.53322" lon="4.55569">
        <ele>438</ele>
        <time>2022-03-06T10:19:45Z</time>
      </trkpt>
      <trkpt lat="44.53342" lon="4.55573">
        <ele>439</ele>
        <time>2022-03-06T10:20:04Z</time>
      </trkpt>
      <trkpt lat="44.53355" lon="4.55578">
        <ele>437</ele>
        <time>2022-03-06T10:20:16Z</time>
      </trkpt>
      <trkpt lat="44.53362" lon="4.55578">
        <ele>437</ele>
        <time>2022-03-06T10:20:22Z</time>
      </trkpt>
      <trkpt lat="44.53373" lon="4.55581">
        <ele>440</ele>
        <time>2022-03-06T10:20:31Z</time>
      </trkpt>
      <trkpt lat="44.53377" lon="4.55582">
        <ele>440</ele>
        <time>2022-03-06T10:20:34Z</time>
      </trkpt>
      <trkpt lat="44.53383" lon="4.55584">
        <ele>441</ele>
        <time>2022-03-06T10:20:40Z</time>
      </trkpt>
      <trkpt lat="44.53414" lon="4.5559">
        <ele>441</ele>
        <time>2022-03-06T10:21:06Z</time>
      </trkpt>
      <trkpt lat="44.53418" lon="4.5559">
        <ele>441</ele>
        <time>2022-03-06T10:21:09Z</time>
      </trkpt>
      <trkpt lat="44.53425" lon="4.55591">
        <ele>441</ele>
        <time>2022-03-06T10:21:14Z</time>
      </trkpt>
      <trkpt lat="44.53429" lon="4.55593">
        <ele>441</ele>
        <time>2022-03-06T10:21:18Z</time>
      </trkpt>
      <trkpt lat="44.53435" lon="4.55598">
        <ele>441</ele>
        <time>2022-03-06T10:21:23Z</time>
      </trkpt>
      <trkpt lat="44.53438" lon="4.55599">
        <ele>439</ele>
        <time>2022-03-06T10:21:26Z</time>
      </trkpt>
      <trkpt lat="44.53441" lon="4.556">
        <ele>439</ele>
        <time>2022-03-06T10:21:29Z</time>
      </trkpt>
      <trkpt lat="44.53447" lon="4.55603">
        <ele>439</ele>
        <time>2022-03-06T10:21:35Z</time>
      </trkpt>
      <trkpt lat="44.53461" lon="4.55612">
        <ele>437</ele>
        <time>2022-03-06T10:21:51Z</time>
      </trkpt>
      <trkpt lat="44.53494" lon="4.55613">
        <ele>435</ele>
        <time>2022-03-06T10:22:21Z</time>
      </trkpt>
      <trkpt lat="44.53501" lon="4.55614">
        <ele>432</ele>
        <time>2022-03-06T10:22:27Z</time>
      </trkpt>
      <trkpt lat="44.53524" lon="4.55621">
        <ele>431</ele>
        <time>2022-03-06T10:22:50Z</time>
      </trkpt>
      <trkpt lat="44.53551" lon="4.55622">
        <ele>425</ele>
        <time>2022-03-06T10:23:16Z</time>
      </trkpt>
      <trkpt lat="44.53556" lon="4.55621">
        <ele>425</ele>
        <time>2022-03-06T10:23:20Z</time>
      </trkpt>
      <trkpt lat="44.53559" lon="4.55621">
        <ele>426</ele>
        <time>2022-03-06T10:23:23Z</time>
      </trkpt>
      <trkpt lat="44.53564" lon="4.5562">
        <ele>426</ele>
        <time>2022-03-06T10:23:26Z</time>
      </trkpt>
      <trkpt lat="44.53567" lon="4.5562">
        <ele>425</ele>
        <time>2022-03-06T10:23:29Z</time>
      </trkpt>
      <trkpt lat="44.53571" lon="4.55618">
        <ele>425</ele>
        <time>2022-03-06T10:23:32Z</time>
      </trkpt>
      <trkpt lat="44.53575" lon="4.55618">
        <ele>425</ele>
        <time>2022-03-06T10:23:35Z</time>
      </trkpt>
      <trkpt lat="44.53586" lon="4.55614">
        <ele>424</ele>
        <time>2022-03-06T10:23:44Z</time>
      </trkpt>
      <trkpt lat="44.5359" lon="4.55614">
        <ele>424</ele>
        <time>2022-03-06T10:23:47Z</time>
      </trkpt>
      <trkpt lat="44.536" lon="4.5561">
        <ele>424</ele>
        <time>2022-03-06T10:23:57Z</time>
      </trkpt>
      <trkpt lat="44.53614" lon="4.55604">
        <ele>422</ele>
        <time>2022-03-06T10:24:09Z</time>
      </trkpt>
      <trkpt lat="44.5362" lon="4.55605">
        <ele>423</ele>
        <time>2022-03-06T10:24:15Z</time>
      </trkpt>
      <trkpt lat="44.53626" lon="4.55603">
        <ele>422</ele>
        <time>2022-03-06T10:24:19Z</time>
      </trkpt>
      <trkpt lat="44.53643" lon="4.55605">
        <ele>423</ele>
        <time>2022-03-06T10:24:33Z</time>
      </trkpt>
      <trkpt lat="44.53646" lon="4.55607">
        <ele>423</ele>
        <time>2022-03-06T10:24:36Z</time>
      </trkpt>
      <trkpt lat="44.53674" lon="4.55607">
        <ele>425</ele>
        <time>2022-03-06T10:25:03Z</time>
      </trkpt>
      <trkpt lat="44.53679" lon="4.55611">
        <ele>426</ele>
        <time>2022-03-06T10:25:07Z</time>
      </trkpt>
      <trkpt lat="44.53685" lon="4.55611">
        <ele>426</ele>
        <time>2022-03-06T10:25:12Z</time>
      </trkpt>
      <trkpt lat="44.53695" lon="4.55613">
        <ele>426</ele>
        <time>2022-03-06T10:25:22Z</time>
      </trkpt>
      <trkpt lat="44.537" lon="4.55614">
        <ele>428</ele>
        <time>2022-03-06T10:25:27Z</time>
      </trkpt>
      <trkpt lat="44.53704" lon="4.5561">
        <ele>430</ele>
        <time>2022-03-06T10:25:30Z</time>
      </trkpt>
      <trkpt lat="44.53714" lon="4.55608">
        <ele>429</ele>
        <time>2022-03-06T10:25:38Z</time>
      </trkpt>
      <trkpt lat="44.53719" lon="4.55607">
        <ele>429</ele>
        <time>2022-03-06T10:25:42Z</time>
      </trkpt>
      <trkpt lat="44.53724" lon="4.5561">
        <ele>431</ele>
        <time>2022-03-06T10:25:46Z</time>
      </trkpt>
      <trkpt lat="44.53731" lon="4.5561">
        <ele>432</ele>
        <time>2022-03-06T10:25:51Z</time>
      </trkpt>
      <trkpt lat="44.53736" lon="4.55604">
        <ele>432</ele>
        <time>2022-03-06T10:25:54Z</time>
      </trkpt>
      <trkpt lat="44.53741" lon="4.55605">
        <ele>431</ele>
        <time>2022-03-06T10:25:58Z</time>
      </trkpt>
      <trkpt lat="44.53746" lon="4.55606">
        <ele>431</ele>
        <time>2022-03-06T10:26:03Z</time>
      </trkpt>
      <trkpt lat="44.53751" lon="4.55607">
        <ele>431</ele>
        <time>2022-03-06T10:26:07Z</time>
      </trkpt>
      <trkpt lat="44.53755" lon="4.55609">
        <ele>431</ele>
        <time>2022-03-06T10:26:11Z</time>
      </trkpt>
      <trkpt lat="44.53772" lon="4.5561">
        <ele>429</ele>
        <time>2022-03-06T10:26:32Z</time>
      </trkpt>
      <trkpt lat="44.53776" lon="4.55612">
        <ele>430</ele>
        <time>2022-03-06T10:26:37Z</time>
      </trkpt>
      <trkpt lat="44.53779" lon="4.55608">
        <ele>429</ele>
        <time>2022-03-06T10:26:42Z</time>
      </trkpt>
      <trkpt lat="44.53783" lon="4.55607">
        <ele>430</ele>
        <time>2022-03-06T10:27:05Z</time>
      </trkpt>
      <trkpt lat="44.53785" lon="4.55604">
        <ele>432</ele>
        <time>2022-03-06T10:27:09Z</time>
      </trkpt>
      <trkpt lat="44.53796" lon="4.55602">
        <ele>433</ele>
        <time>2022-03-06T10:27:21Z</time>
      </trkpt>
      <trkpt lat="44.538" lon="4.55603">
        <ele>433</ele>
        <time>2022-03-06T10:27:26Z</time>
      </trkpt>
      <trkpt lat="44.5381" lon="4.55603">
        <ele>434</ele>
        <time>2022-03-06T10:27:40Z</time>
      </trkpt>
      <trkpt lat="44.5382" lon="4.55603">
        <ele>435</ele>
        <time>2022-03-06T10:27:50Z</time>
      </trkpt>
      <trkpt lat="44.53824" lon="4.55603">
        <ele>436</ele>
        <time>2022-03-06T10:27:54Z</time>
      </trkpt>
      <trkpt lat="44.53828" lon="4.55601">
        <ele>438</ele>
        <time>2022-03-06T10:27:57Z</time>
      </trkpt>
      <trkpt lat="44.53832" lon="4.55601">
        <ele>438</ele>
        <time>2022-03-06T10:28:01Z</time>
      </trkpt>
      <trkpt lat="44.53835" lon="4.556">
        <ele>439</ele>
        <time>2022-03-06T10:28:04Z</time>
      </trkpt>
      <trkpt lat="44.53846" lon="4.55598">
        <ele>439</ele>
        <time>2022-03-06T10:28:13Z</time>
      </trkpt>
      <trkpt lat="44.53849" lon="4.55597">
        <ele>439</ele>
        <time>2022-03-06T10:28:16Z</time>
      </trkpt>
      <trkpt lat="44.53851" lon="4.55594">
        <ele>439</ele>
        <time>2022-03-06T10:28:19Z</time>
      </trkpt>
      <trkpt lat="44.53854" lon="4.55584">
        <ele>439</ele>
        <time>2022-03-06T10:28:25Z</time>
      </trkpt>
      <trkpt lat="44.53854" lon="4.55578">
        <ele>438</ele>
        <time>2022-03-06T10:28:29Z</time>
      </trkpt>
      <trkpt lat="44.53849" lon="4.55571">
        <ele>438</ele>
        <time>2022-03-06T10:28:36Z</time>
      </trkpt>
      <trkpt lat="44.53832" lon="4.55562">
        <ele>442</ele>
        <time>2022-03-06T10:28:55Z</time>
      </trkpt>
      <trkpt lat="44.5383" lon="4.55557">
        <ele>441</ele>
        <time>2022-03-06T10:28:59Z</time>
      </trkpt>
      <trkpt lat="44.53808" lon="4.55548">
        <ele>443</ele>
        <time>2022-03-06T10:29:18Z</time>
      </trkpt>
      <trkpt lat="44.53805" lon="4.55544">
        <ele>443</ele>
        <time>2022-03-06T10:29:22Z</time>
      </trkpt>
      <trkpt lat="44.538" lon="4.55536">
        <ele>443</ele>
        <time>2022-03-06T10:29:30Z</time>
      </trkpt>
      <trkpt lat="44.53794" lon="4.55531">
        <ele>444</ele>
        <time>2022-03-06T10:29:43Z</time>
      </trkpt>
      <trkpt lat="44.53792" lon="4.55527">
        <ele>444</ele>
        <time>2022-03-06T10:29:49Z</time>
      </trkpt>
      <trkpt lat="44.53789" lon="4.55523">
        <ele>445</ele>
        <time>2022-03-06T10:29:52Z</time>
      </trkpt>
      <trkpt lat="44.53786" lon="4.55519">
        <ele>445</ele>
        <time>2022-03-06T10:29:55Z</time>
      </trkpt>
      <trkpt lat="44.53783" lon="4.55516">
        <ele>445</ele>
        <time>2022-03-06T10:29:59Z</time>
      </trkpt>
      <trkpt lat="44.53778" lon="4.55502">
        <ele>444</ele>
        <time>2022-03-06T10:30:08Z</time>
      </trkpt>
      <trkpt lat="44.53771" lon="4.55493">
        <ele>446</ele>
        <time>2022-03-06T10:30:19Z</time>
      </trkpt>
      <trkpt lat="44.53771" lon="4.55485">
        <ele>447</ele>
        <time>2022-03-06T10:30:24Z</time>
      </trkpt>
      <trkpt lat="44.53769" lon="4.55478">
        <ele>448</ele>
        <time>2022-03-06T10:30:29Z</time>
      </trkpt>
      <trkpt lat="44.53777" lon="4.55461">
        <ele>450</ele>
        <time>2022-03-06T10:30:46Z</time>
      </trkpt>
      <trkpt lat="44.53786" lon="4.55427">
        <ele>453</ele>
        <time>2022-03-06T10:31:13Z</time>
      </trkpt>
      <trkpt lat="44.53793" lon="4.55421">
        <ele>454</ele>
        <time>2022-03-06T10:31:21Z</time>
      </trkpt>
      <trkpt lat="44.53797" lon="4.55414">
        <ele>452</ele>
        <time>2022-03-06T10:31:27Z</time>
      </trkpt>
      <trkpt lat="44.53801" lon="4.55409">
        <ele>452</ele>
        <time>2022-03-06T10:31:31Z</time>
      </trkpt>
      <trkpt lat="44.53805" lon="4.55404">
        <ele>455</ele>
        <time>2022-03-06T10:31:39Z</time>
      </trkpt>
      <trkpt lat="44.5381" lon="4.55402">
        <ele>457</ele>
        <time>2022-03-06T10:31:44Z</time>
      </trkpt>
      <trkpt lat="44.53813" lon="4.55397">
        <ele>457</ele>
        <time>2022-03-06T10:31:49Z</time>
      </trkpt>
      <trkpt lat="44.5382" lon="4.55395">
        <ele>458</ele>
        <time>2022-03-06T10:31:57Z</time>
      </trkpt>
      <trkpt lat="44.53835" lon="4.5539">
        <ele>460</ele>
        <time>2022-03-06T10:32:08Z</time>
      </trkpt>
      <trkpt lat="44.53844" lon="4.5539">
        <ele>461</ele>
        <time>2022-03-06T10:32:17Z</time>
      </trkpt>
      <trkpt lat="44.53848" lon="4.55388">
        <ele>460</ele>
        <time>2022-03-06T10:32:22Z</time>
      </trkpt>
      <trkpt lat="44.53851" lon="4.55389">
        <ele>461</ele>
        <time>2022-03-06T10:32:31Z</time>
      </trkpt>
      <trkpt lat="44.53856" lon="4.5539">
        <ele>460</ele>
        <time>2022-03-06T10:32:35Z</time>
      </trkpt>
      <trkpt lat="44.5386" lon="4.55389">
        <ele>461</ele>
        <time>2022-03-06T10:32:39Z</time>
      </trkpt>
      <trkpt lat="44.5387" lon="4.55389">
        <ele>460</ele>
        <time>2022-03-06T10:32:48Z</time>
      </trkpt>
      <trkpt lat="44.53881" lon="4.55385">
        <ele>462</ele>
        <time>2022-03-06T10:33:05Z</time>
      </trkpt>
      <trkpt lat="44.53883" lon="4.55388">
        <ele>466</ele>
        <time>2022-03-06T10:33:22Z</time>
      </trkpt>
      <trkpt lat="44.53887" lon="4.55388">
        <ele>465</ele>
        <time>2022-03-06T10:33:25Z</time>
      </trkpt>
      <trkpt lat="44.5389" lon="4.55389">
        <ele>465</ele>
        <time>2022-03-06T10:33:28Z</time>
      </trkpt>
      <trkpt lat="44.53893" lon="4.55386">
        <ele>466</ele>
        <time>2022-03-06T10:33:32Z</time>
      </trkpt>
      <trkpt lat="44.539" lon="4.55387">
        <ele>467</ele>
        <time>2022-03-06T10:33:46Z</time>
      </trkpt>
      <trkpt lat="44.53903" lon="4.55387">
        <ele>467</ele>
        <time>2022-03-06T10:33:50Z</time>
      </trkpt>
      <trkpt lat="44.53912" lon="4.55383">
        <ele>467</ele>
        <time>2022-03-06T10:34:05Z</time>
      </trkpt>
      <trkpt lat="44.53921" lon="4.5538">
        <ele>467</ele>
        <time>2022-03-06T10:34:12Z</time>
      </trkpt>
      <trkpt lat="44.53923" lon="4.55382">
        <ele>468</ele>
        <time>2022-03-06T10:34:15Z</time>
      </trkpt>
      <trkpt lat="44.53929" lon="4.55377">
        <ele>469</ele>
        <time>2022-03-06T10:34:21Z</time>
      </trkpt>
      <trkpt lat="44.53933" lon="4.55378">
        <ele>469</ele>
        <time>2022-03-06T10:34:25Z</time>
      </trkpt>
      <trkpt lat="44.53937" lon="4.55378">
        <ele>468</ele>
        <time>2022-03-06T10:34:29Z</time>
      </trkpt>
      <trkpt lat="44.53944" lon="4.55376">
        <ele>468</ele>
        <time>2022-03-06T10:34:37Z</time>
      </trkpt>
      <trkpt lat="44.53948" lon="4.55376">
        <ele>470</ele>
        <time>2022-03-06T10:34:41Z</time>
      </trkpt>
      <trkpt lat="44.53965" lon="4.55365">
        <ele>471</ele>
        <time>2022-03-06T10:34:56Z</time>
      </trkpt>
      <trkpt lat="44.53973" lon="4.55364">
        <ele>470</ele>
        <time>2022-03-06T10:35:06Z</time>
      </trkpt>
      <trkpt lat="44.53975" lon="4.55362">
        <ele>472</ele>
        <time>2022-03-06T10:35:09Z</time>
      </trkpt>
      <trkpt lat="44.53983" lon="4.55356">
        <ele>473</ele>
        <time>2022-03-06T10:35:19Z</time>
      </trkpt>
      <trkpt lat="44.53987" lon="4.55354">
        <ele>472</ele>
        <time>2022-03-06T10:35:22Z</time>
      </trkpt>
      <trkpt lat="44.5399" lon="4.55356">
        <ele>471</ele>
        <time>2022-03-06T10:35:33Z</time>
      </trkpt>
      <trkpt lat="44.5401" lon="4.55346">
        <ele>473</ele>
        <time>2022-03-06T10:35:53Z</time>
      </trkpt>
      <trkpt lat="44.54012" lon="4.55342">
        <ele>476</ele>
        <time>2022-03-06T10:35:57Z</time>
      </trkpt>
      <trkpt lat="44.54016" lon="4.55339">
        <ele>476</ele>
        <time>2022-03-06T10:36:01Z</time>
      </trkpt>
      <trkpt lat="44.54025" lon="4.55335">
        <ele>475</ele>
        <time>2022-03-06T10:36:09Z</time>
      </trkpt>
      <trkpt lat="44.54028" lon="4.55332">
        <ele>475</ele>
        <time>2022-03-06T10:36:14Z</time>
      </trkpt>
      <trkpt lat="44.54031" lon="4.55328">
        <ele>475</ele>
        <time>2022-03-06T10:36:19Z</time>
      </trkpt>
      <trkpt lat="44.54039" lon="4.55322">
        <ele>477</ele>
        <time>2022-03-06T10:36:27Z</time>
      </trkpt>
      <trkpt lat="44.54041" lon="4.5532">
        <ele>476</ele>
        <time>2022-03-06T10:36:30Z</time>
      </trkpt>
      <trkpt lat="44.54057" lon="4.55306">
        <ele>477</ele>
        <time>2022-03-06T10:36:48Z</time>
      </trkpt>
      <trkpt lat="44.5406" lon="4.55302">
        <ele>477</ele>
        <time>2022-03-06T10:36:51Z</time>
      </trkpt>
      <trkpt lat="44.54066" lon="4.55296">
        <ele>479</ele>
        <time>2022-03-06T10:36:59Z</time>
      </trkpt>
      <trkpt lat="44.54075" lon="4.55291">
        <ele>481</ele>
        <time>2022-03-06T10:37:09Z</time>
      </trkpt>
      <trkpt lat="44.54104" lon="4.55267">
        <ele>480</ele>
        <time>2022-03-06T10:37:45Z</time>
      </trkpt>
      <trkpt lat="44.54107" lon="4.55263">
        <ele>480</ele>
        <time>2022-03-06T10:37:49Z</time>
      </trkpt>
      <trkpt lat="44.54109" lon="4.55252">
        <ele>480</ele>
        <time>2022-03-06T10:37:56Z</time>
      </trkpt>
      <trkpt lat="44.54117" lon="4.55251">
        <ele>480</ele>
        <time>2022-03-06T10:38:03Z</time>
      </trkpt>
      <trkpt lat="44.54132" lon="4.55243">
        <ele>483</ele>
        <time>2022-03-06T10:38:18Z</time>
      </trkpt>
      <trkpt lat="44.54137" lon="4.55239">
        <ele>483</ele>
        <time>2022-03-06T10:38:23Z</time>
      </trkpt>
      <trkpt lat="44.54143" lon="4.55236">
        <ele>484</ele>
        <time>2022-03-06T10:38:27Z</time>
      </trkpt>
      <trkpt lat="44.54148" lon="4.55234">
        <ele>485</ele>
        <time>2022-03-06T10:38:31Z</time>
      </trkpt>
      <trkpt lat="44.54152" lon="4.55234">
        <ele>487</ele>
        <time>2022-03-06T10:38:36Z</time>
      </trkpt>
      <trkpt lat="44.54155" lon="4.55232">
        <ele>487</ele>
        <time>2022-03-06T10:38:40Z</time>
      </trkpt>
      <trkpt lat="44.54158" lon="4.55232">
        <ele>491</ele>
        <time>2022-03-06T10:39:04Z</time>
      </trkpt>
      <trkpt lat="44.5416" lon="4.55234">
        <ele>489</ele>
        <time>2022-03-06T10:39:15Z</time>
      </trkpt>
      <trkpt lat="44.54163" lon="4.5523">
        <ele>489</ele>
        <time>2022-03-06T10:39:21Z</time>
      </trkpt>
      <trkpt lat="44.54176" lon="4.55218">
        <ele>489</ele>
        <time>2022-03-06T10:39:36Z</time>
      </trkpt>
      <trkpt lat="44.54186" lon="4.55208">
        <ele>490</ele>
        <time>2022-03-06T10:39:48Z</time>
      </trkpt>
      <trkpt lat="44.54204" lon="4.55184">
        <ele>490</ele>
        <time>2022-03-06T10:40:10Z</time>
      </trkpt>
      <trkpt lat="44.54209" lon="4.55179">
        <ele>490</ele>
        <time>2022-03-06T10:40:13Z</time>
      </trkpt>
      <trkpt lat="44.54212" lon="4.55174">
        <ele>491</ele>
        <time>2022-03-06T10:40:18Z</time>
      </trkpt>
      <trkpt lat="44.54214" lon="4.55168">
        <ele>492</ele>
        <time>2022-03-06T10:40:23Z</time>
      </trkpt>
      <trkpt lat="44.54218" lon="4.55168">
        <ele>494</ele>
        <time>2022-03-06T10:40:29Z</time>
      </trkpt>
      <trkpt lat="44.54221" lon="4.55168">
        <ele>495</ele>
        <time>2022-03-06T10:41:07Z</time>
      </trkpt>
      <trkpt lat="44.54222" lon="4.55165">
        <ele>495</ele>
        <time>2022-03-06T10:41:09Z</time>
      </trkpt>
      <trkpt lat="44.54225" lon="4.55153">
        <ele>497</ele>
        <time>2022-03-06T10:41:15Z</time>
      </trkpt>
      <trkpt lat="44.54229" lon="4.55144">
        <ele>498</ele>
        <time>2022-03-06T10:41:21Z</time>
      </trkpt>
      <trkpt lat="44.5423" lon="4.55138">
        <ele>499</ele>
        <time>2022-03-06T10:41:24Z</time>
      </trkpt>
      <trkpt lat="44.54229" lon="4.55126">
        <ele>498</ele>
        <time>2022-03-06T10:41:31Z</time>
      </trkpt>
      <trkpt lat="44.54229" lon="4.5512">
        <ele>498</ele>
        <time>2022-03-06T10:41:34Z</time>
      </trkpt>
      <trkpt lat="44.54227" lon="4.55109">
        <ele>499</ele>
        <time>2022-03-06T10:41:41Z</time>
      </trkpt>
      <trkpt lat="44.54225" lon="4.55105">
        <ele>499</ele>
        <time>2022-03-06T10:41:44Z</time>
      </trkpt>
      <trkpt lat="44.54223" lon="4.55102">
        <ele>499</ele>
        <time>2022-03-06T10:41:46Z</time>
      </trkpt>
      <trkpt lat="44.54221" lon="4.55098">
        <ele>498</ele>
        <time>2022-03-06T10:41:49Z</time>
      </trkpt>
      <trkpt lat="44.5422" lon="4.55094">
        <ele>499</ele>
        <time>2022-03-06T10:41:52Z</time>
      </trkpt>
      <trkpt lat="44.54218" lon="4.55091">
        <ele>498</ele>
        <time>2022-03-06T10:42:01Z</time>
      </trkpt>
      <trkpt lat="44.54216" lon="4.55089">
        <ele>498</ele>
        <time>2022-03-06T10:42:03Z</time>
      </trkpt>
      <trkpt lat="44.54216" lon="4.55083">
        <ele>499</ele>
        <time>2022-03-06T10:42:07Z</time>
      </trkpt>
      <trkpt lat="44.54214" lon="4.55078">
        <ele>500</ele>
        <time>2022-03-06T10:42:10Z</time>
      </trkpt>
      <trkpt lat="44.5421" lon="4.55069">
        <ele>499</ele>
        <time>2022-03-06T10:42:16Z</time>
      </trkpt>
      <trkpt lat="44.54208" lon="4.55065">
        <ele>497</ele>
        <time>2022-03-06T10:42:19Z</time>
      </trkpt>
      <trkpt lat="44.54207" lon="4.55061">
        <ele>497</ele>
        <time>2022-03-06T10:42:22Z</time>
      </trkpt>
      <trkpt lat="44.54202" lon="4.55053">
        <ele>498</ele>
        <time>2022-03-06T10:42:28Z</time>
      </trkpt>
      <trkpt lat="44.54201" lon="4.55049">
        <ele>498</ele>
        <time>2022-03-06T10:42:31Z</time>
      </trkpt>
      <trkpt lat="44.54199" lon="4.55045">
        <ele>498</ele>
        <time>2022-03-06T10:42:35Z</time>
      </trkpt>
      <trkpt lat="44.54197" lon="4.55035">
        <ele>499</ele>
        <time>2022-03-06T10:42:41Z</time>
      </trkpt>
      <trkpt lat="44.54194" lon="4.55032">
        <ele>499</ele>
        <time>2022-03-06T10:42:44Z</time>
      </trkpt>
      <trkpt lat="44.54193" lon="4.55027">
        <ele>499</ele>
        <time>2022-03-06T10:42:47Z</time>
      </trkpt>
      <trkpt lat="44.54191" lon="4.55015">
        <ele>498</ele>
        <time>2022-03-06T10:42:57Z</time>
      </trkpt>
      <trkpt lat="44.54191" lon="4.5501">
        <ele>498</ele>
        <time>2022-03-06T10:43:00Z</time>
      </trkpt>
      <trkpt lat="44.54189" lon="4.55004">
        <ele>499</ele>
        <time>2022-03-06T10:43:04Z</time>
      </trkpt>
      <trkpt lat="44.54184" lon="4.5499">
        <ele>500</ele>
        <time>2022-03-06T10:43:15Z</time>
      </trkpt>
      <trkpt lat="44.54182" lon="4.54986">
        <ele>501</ele>
        <time>2022-03-06T10:43:18Z</time>
      </trkpt>
      <trkpt lat="44.54179" lon="4.54983">
        <ele>501</ele>
        <time>2022-03-06T10:43:21Z</time>
      </trkpt>
      <trkpt lat="44.54175" lon="4.54977">
        <ele>502</ele>
        <time>2022-03-06T10:43:25Z</time>
      </trkpt>
      <trkpt lat="44.54172" lon="4.54973">
        <ele>502</ele>
        <time>2022-03-06T10:43:29Z</time>
      </trkpt>
      <trkpt lat="44.5417" lon="4.54966">
        <ele>502</ele>
        <time>2022-03-06T10:43:33Z</time>
      </trkpt>
      <trkpt lat="44.54166" lon="4.54963">
        <ele>504</ele>
        <time>2022-03-06T10:43:37Z</time>
      </trkpt>
      <trkpt lat="44.54165" lon="4.54958">
        <ele>504</ele>
        <time>2022-03-06T10:43:41Z</time>
      </trkpt>
      <trkpt lat="44.54161" lon="4.54955">
        <ele>504</ele>
        <time>2022-03-06T10:43:45Z</time>
      </trkpt>
      <trkpt lat="44.54159" lon="4.54951">
        <ele>505</ele>
        <time>2022-03-06T10:43:48Z</time>
      </trkpt>
      <trkpt lat="44.54156" lon="4.54947">
        <ele>505</ele>
        <time>2022-03-06T10:43:51Z</time>
      </trkpt>
      <trkpt lat="44.54154" lon="4.54942">
        <ele>507</ele>
        <time>2022-03-06T10:43:54Z</time>
      </trkpt>
      <trkpt lat="44.54152" lon="4.54936">
        <ele>508</ele>
        <time>2022-03-06T10:43:58Z</time>
      </trkpt>
      <trkpt lat="44.5415" lon="4.54931">
        <ele>507</ele>
        <time>2022-03-06T10:44:01Z</time>
      </trkpt>
      <trkpt lat="44.54147" lon="4.54929">
        <ele>507</ele>
        <time>2022-03-06T10:44:03Z</time>
      </trkpt>
      <trkpt lat="44.54144" lon="4.54927">
        <ele>506</ele>
        <time>2022-03-06T10:44:06Z</time>
      </trkpt>
      <trkpt lat="44.54136" lon="4.5492">
        <ele>505</ele>
        <time>2022-03-06T10:44:12Z</time>
      </trkpt>
      <trkpt lat="44.54132" lon="4.54914">
        <ele>505</ele>
        <time>2022-03-06T10:44:17Z</time>
      </trkpt>
      <trkpt lat="44.54122" lon="4.54902">
        <ele>506</ele>
        <time>2022-03-06T10:44:27Z</time>
      </trkpt>
      <trkpt lat="44.54119" lon="4.54894">
        <ele>508</ele>
        <time>2022-03-06T10:44:33Z</time>
      </trkpt>
      <trkpt lat="44.54112" lon="4.54884">
        <ele>507</ele>
        <time>2022-03-06T10:44:40Z</time>
      </trkpt>
      <trkpt lat="44.5411" lon="4.54881">
        <ele>506</ele>
        <time>2022-03-06T10:44:42Z</time>
      </trkpt>
      <trkpt lat="44.541" lon="4.54861">
        <ele>505</ele>
        <time>2022-03-06T10:44:55Z</time>
      </trkpt>
      <trkpt lat="44.54094" lon="4.54852">
        <ele>505</ele>
        <time>2022-03-06T10:45:02Z</time>
      </trkpt>
      <trkpt lat="44.54089" lon="4.54848">
        <ele>504</ele>
        <time>2022-03-06T10:45:06Z</time>
      </trkpt>
      <trkpt lat="44.54075" lon="4.54844">
        <ele>503</ele>
        <time>2022-03-06T10:45:20Z</time>
      </trkpt>
      <trkpt lat="44.54072" lon="4.54844">
        <ele>502</ele>
        <time>2022-03-06T10:45:23Z</time>
      </trkpt>
      <trkpt lat="44.54069" lon="4.54846">
        <ele>502</ele>
        <time>2022-03-06T10:45:26Z</time>
      </trkpt>
      <trkpt lat="44.54066" lon="4.54848">
        <ele>502</ele>
        <time>2022-03-06T10:45:29Z</time>
      </trkpt>
      <trkpt lat="44.54064" lon="4.54853">
        <ele>502</ele>
        <time>2022-03-06T10:45:33Z</time>
      </trkpt>
      <trkpt lat="44.54062" lon="4.54856">
        <ele>502</ele>
        <time>2022-03-06T10:45:36Z</time>
      </trkpt>
      <trkpt lat="44.54059" lon="4.54857">
        <ele>502</ele>
        <time>2022-03-06T10:45:39Z</time>
      </trkpt>
      <trkpt lat="44.54056" lon="4.54859">
        <ele>502</ele>
        <time>2022-03-06T10:45:44Z</time>
      </trkpt>
      <trkpt lat="44.54054" lon="4.54863">
        <ele>501</ele>
        <time>2022-03-06T10:45:54Z</time>
      </trkpt>
      <trkpt lat="44.54051" lon="4.54862">
        <ele>501</ele>
        <time>2022-03-06T10:46:02Z</time>
      </trkpt>
      <trkpt lat="44.54047" lon="4.54863">
        <ele>500</ele>
        <time>2022-03-06T10:46:09Z</time>
      </trkpt>
      <trkpt lat="44.5404" lon="4.54871">
        <ele>500</ele>
        <time>2022-03-06T10:46:19Z</time>
      </trkpt>
      <trkpt lat="44.54034" lon="4.54874">
        <ele>499</ele>
        <time>2022-03-06T10:46:25Z</time>
      </trkpt>
      <trkpt lat="44.54032" lon="4.54878">
        <ele>498</ele>
        <time>2022-03-06T10:46:29Z</time>
      </trkpt>
      <trkpt lat="44.54026" lon="4.54882">
        <ele>498</ele>
        <time>2022-03-06T10:46:42Z</time>
      </trkpt>
      <trkpt lat="44.5402" lon="4.5489">
        <ele>497</ele>
        <time>2022-03-06T10:46:51Z</time>
      </trkpt>
      <trkpt lat="44.54012" lon="4.54905">
        <ele>497</ele>
        <time>2022-03-06T10:47:05Z</time>
      </trkpt>
      <trkpt lat="44.54008" lon="4.54908">
        <ele>497</ele>
        <time>2022-03-06T10:47:10Z</time>
      </trkpt>
      <trkpt lat="44.54002" lon="4.54912">
        <ele>495</ele>
        <time>2022-03-06T10:47:23Z</time>
      </trkpt>
      <trkpt lat="44.53999" lon="4.54912">
        <ele>494</ele>
        <time>2022-03-06T10:47:26Z</time>
      </trkpt>
      <trkpt lat="44.53995" lon="4.54911">
        <ele>494</ele>
        <time>2022-03-06T10:47:30Z</time>
      </trkpt>
      <trkpt lat="44.53988" lon="4.54912">
        <ele>493</ele>
        <time>2022-03-06T10:47:39Z</time>
      </trkpt>
      <trkpt lat="44.53984" lon="4.54913">
        <ele>492</ele>
        <time>2022-03-06T10:47:45Z</time>
      </trkpt>
      <trkpt lat="44.53981" lon="4.54913">
        <ele>491</ele>
        <time>2022-03-06T10:47:48Z</time>
      </trkpt>
      <trkpt lat="44.53978" lon="4.54912">
        <ele>492</ele>
        <time>2022-03-06T10:47:50Z</time>
      </trkpt>
      <trkpt lat="44.53975" lon="4.54911">
        <ele>493</ele>
        <time>2022-03-06T10:47:53Z</time>
      </trkpt>
      <trkpt lat="44.53971" lon="4.5491">
        <ele>494</ele>
        <time>2022-03-06T10:47:56Z</time>
      </trkpt>
      <trkpt lat="44.53964" lon="4.54911">
        <ele>493</ele>
        <time>2022-03-06T10:48:04Z</time>
      </trkpt>
      <trkpt lat="44.53955" lon="4.54909">
        <ele>491</ele>
        <time>2022-03-06T10:48:11Z</time>
      </trkpt>
      <trkpt lat="44.53951" lon="4.5491">
        <ele>488</ele>
        <time>2022-03-06T10:48:18Z</time>
      </trkpt>
      <trkpt lat="44.53947" lon="4.54907">
        <ele>486</ele>
        <time>2022-03-06T10:48:22Z</time>
      </trkpt>
      <trkpt lat="44.53944" lon="4.54907">
        <ele>486</ele>
        <time>2022-03-06T10:48:26Z</time>
      </trkpt>
      <trkpt lat="44.5394" lon="4.54906">
        <ele>483</ele>
        <time>2022-03-06T10:48:32Z</time>
      </trkpt>
      <trkpt lat="44.53937" lon="4.54907">
        <ele>483</ele>
        <time>2022-03-06T10:48:36Z</time>
      </trkpt>
      <trkpt lat="44.53925" lon="4.54902">
        <ele>483</ele>
        <time>2022-03-06T10:48:47Z</time>
      </trkpt>
      <trkpt lat="44.53918" lon="4.54904">
        <ele>483</ele>
        <time>2022-03-06T10:48:56Z</time>
      </trkpt>
      <trkpt lat="44.53914" lon="4.54901">
        <ele>482</ele>
        <time>2022-03-06T10:49:01Z</time>
      </trkpt>
      <trkpt lat="44.53911" lon="4.549">
        <ele>481</ele>
        <time>2022-03-06T10:49:06Z</time>
      </trkpt>
      <trkpt lat="44.53909" lon="4.54893">
        <ele>481</ele>
        <time>2022-03-06T10:49:13Z</time>
      </trkpt>
      <trkpt lat="44.53905" lon="4.54883">
        <ele>481</ele>
        <time>2022-03-06T10:49:21Z</time>
      </trkpt>
      <trkpt lat="44.53906" lon="4.54878">
        <ele>481</ele>
        <time>2022-03-06T10:49:25Z</time>
      </trkpt>
      <trkpt lat="44.53906" lon="4.54873">
        <ele>481</ele>
        <time>2022-03-06T10:49:29Z</time>
      </trkpt>
      <trkpt lat="44.53907" lon="4.54863">
        <ele>480</ele>
        <time>2022-03-06T10:49:40Z</time>
      </trkpt>
      <trkpt lat="44.53908" lon="4.54857">
        <ele>481</ele>
        <time>2022-03-06T10:49:45Z</time>
      </trkpt>
      <trkpt lat="44.53911" lon="4.54854">
        <ele>481</ele>
        <time>2022-03-06T10:49:51Z</time>
      </trkpt>
      <trkpt lat="44.53914" lon="4.5485">
        <ele>480</ele>
        <time>2022-03-06T10:49:56Z</time>
      </trkpt>
      <trkpt lat="44.53918" lon="4.54844">
        <ele>481</ele>
        <time>2022-03-06T10:49:59Z</time>
      </trkpt>
      <trkpt lat="44.53922" lon="4.54834">
        <ele>481</ele>
        <time>2022-03-06T10:50:06Z</time>
      </trkpt>
      <trkpt lat="44.53926" lon="4.54832">
        <ele>480</ele>
        <time>2022-03-06T10:50:10Z</time>
      </trkpt>
      <trkpt lat="44.5393" lon="4.54828">
        <ele>479</ele>
        <time>2022-03-06T10:50:14Z</time>
      </trkpt>
      <trkpt lat="44.53937" lon="4.5482">
        <ele>479</ele>
        <time>2022-03-06T10:50:22Z</time>
      </trkpt>
      <trkpt lat="44.5394" lon="4.54816">
        <ele>479</ele>
        <time>2022-03-06T10:50:26Z</time>
      </trkpt>
      <trkpt lat="44.53943" lon="4.54812">
        <ele>479</ele>
        <time>2022-03-06T10:50:30Z</time>
      </trkpt>
      <trkpt lat="44.53946" lon="4.54808">
        <ele>479</ele>
        <time>2022-03-06T10:50:35Z</time>
      </trkpt>
      <trkpt lat="44.53947" lon="4.54803">
        <ele>479</ele>
        <time>2022-03-06T10:50:39Z</time>
      </trkpt>
      <trkpt lat="44.5395" lon="4.548">
        <ele>479</ele>
        <time>2022-03-06T10:50:43Z</time>
      </trkpt>
      <trkpt lat="44.53953" lon="4.54791">
        <ele>479</ele>
        <time>2022-03-06T10:50:49Z</time>
      </trkpt>
      <trkpt lat="44.53954" lon="4.54787">
        <ele>479</ele>
        <time>2022-03-06T10:50:53Z</time>
      </trkpt>
      <trkpt lat="44.53956" lon="4.54782">
        <ele>479</ele>
        <time>2022-03-06T10:50:57Z</time>
      </trkpt>
      <trkpt lat="44.53958" lon="4.54777">
        <ele>479</ele>
        <time>2022-03-06T10:51:02Z</time>
      </trkpt>
      <trkpt lat="44.53959" lon="4.54772">
        <ele>478</ele>
        <time>2022-03-06T10:51:07Z</time>
      </trkpt>
      <trkpt lat="44.5396" lon="4.54766">
        <ele>478</ele>
        <time>2022-03-06T10:51:11Z</time>
      </trkpt>
      <trkpt lat="44.53962" lon="4.54756">
        <ele>477</ele>
        <time>2022-03-06T10:51:17Z</time>
      </trkpt>
      <trkpt lat="44.53965" lon="4.54752">
        <ele>477</ele>
        <time>2022-03-06T10:51:21Z</time>
      </trkpt>
      <trkpt lat="44.53962" lon="4.54748">
        <ele>476</ele>
        <time>2022-03-06T10:51:25Z</time>
      </trkpt>
      <trkpt lat="44.53962" lon="4.54742">
        <ele>477</ele>
        <time>2022-03-06T10:51:29Z</time>
      </trkpt>
      <trkpt lat="44.53961" lon="4.54724">
        <ele>478</ele>
        <time>2022-03-06T10:51:43Z</time>
      </trkpt>
      <trkpt lat="44.53961" lon="4.54719">
        <ele>478</ele>
        <time>2022-03-06T10:51:47Z</time>
      </trkpt>
      <trkpt lat="44.53961" lon="4.54714">
        <ele>477</ele>
        <time>2022-03-06T10:51:51Z</time>
      </trkpt>
      <trkpt lat="44.53953" lon="4.54683">
        <ele>477</ele>
        <time>2022-03-06T10:52:15Z</time>
      </trkpt>
      <trkpt lat="44.53951" lon="4.54678">
        <ele>478</ele>
        <time>2022-03-06T10:52:19Z</time>
      </trkpt>
      <trkpt lat="44.53945" lon="4.54654">
        <ele>481</ele>
        <time>2022-03-06T10:52:36Z</time>
      </trkpt>
      <trkpt lat="44.53941" lon="4.5465">
        <ele>479</ele>
        <time>2022-03-06T10:52:42Z</time>
      </trkpt>
      <trkpt lat="44.53933" lon="4.54641">
        <ele>477</ele>
        <time>2022-03-06T10:52:50Z</time>
      </trkpt>
      <trkpt lat="44.53929" lon="4.5463">
        <ele>479</ele>
        <time>2022-03-06T10:52:57Z</time>
      </trkpt>
      <trkpt lat="44.53926" lon="4.54624">
        <ele>482</ele>
        <time>2022-03-06T10:53:04Z</time>
      </trkpt>
      <trkpt lat="44.53923" lon="4.54618">
        <ele>482</ele>
        <time>2022-03-06T10:53:11Z</time>
      </trkpt>
      <trkpt lat="44.53919" lon="4.54614">
        <ele>483</ele>
        <time>2022-03-06T10:53:15Z</time>
      </trkpt>
      <trkpt lat="44.53916" lon="4.54607">
        <ele>483</ele>
        <time>2022-03-06T10:53:21Z</time>
      </trkpt>
      <trkpt lat="44.5391" lon="4.546">
        <ele>482</ele>
        <time>2022-03-06T10:53:27Z</time>
      </trkpt>
      <trkpt lat="44.53893" lon="4.54574">
        <ele>479</ele>
        <time>2022-03-06T10:53:50Z</time>
      </trkpt>
      <trkpt lat="44.53891" lon="4.5457">
        <ele>479</ele>
        <time>2022-03-06T10:53:54Z</time>
      </trkpt>
      <trkpt lat="44.5389" lon="4.54561">
        <ele>480</ele>
        <time>2022-03-06T10:54:00Z</time>
      </trkpt>
      <trkpt lat="44.53888" lon="4.54552">
        <ele>479</ele>
        <time>2022-03-06T10:54:07Z</time>
      </trkpt>
      <trkpt lat="44.53886" lon="4.54549">
        <ele>478</ele>
        <time>2022-03-06T10:54:16Z</time>
      </trkpt>
      <trkpt lat="44.53884" lon="4.54546">
        <ele>477</ele>
        <time>2022-03-06T10:54:20Z</time>
      </trkpt>
      <trkpt lat="44.53882" lon="4.54542">
        <ele>477</ele>
        <time>2022-03-06T10:54:25Z</time>
      </trkpt>
      <trkpt lat="44.53883" lon="4.54539">
        <ele>477</ele>
        <time>2022-03-06T10:54:34Z</time>
      </trkpt>
      <trkpt lat="44.53884" lon="4.54536">
        <ele>476</ele>
        <time>2022-03-06T10:55:03Z</time>
      </trkpt>
      <trkpt lat="44.53884" lon="4.54533">
        <ele>475</ele>
        <time>2022-03-06T10:55:27Z</time>
      </trkpt>
      <trkpt lat="44.53883" lon="4.54527">
        <ele>475</ele>
        <time>2022-03-06T10:55:32Z</time>
      </trkpt>
      <trkpt lat="44.53883" lon="4.54521">
        <ele>475</ele>
        <time>2022-03-06T10:55:37Z</time>
      </trkpt>
      <trkpt lat="44.53882" lon="4.54517">
        <ele>475</ele>
        <time>2022-03-06T10:55:40Z</time>
      </trkpt>
      <trkpt lat="44.5388" lon="4.54512">
        <ele>475</ele>
        <time>2022-03-06T10:55:43Z</time>
      </trkpt>
      <trkpt lat="44.53878" lon="4.54507">
        <ele>476</ele>
        <time>2022-03-06T10:55:47Z</time>
      </trkpt>
      <trkpt lat="44.53876" lon="4.54502">
        <ele>476</ele>
        <time>2022-03-06T10:55:50Z</time>
      </trkpt>
      <trkpt lat="44.53874" lon="4.54497">
        <ele>474</ele>
        <time>2022-03-06T10:55:53Z</time>
      </trkpt>
      <trkpt lat="44.53871" lon="4.54491">
        <ele>475</ele>
        <time>2022-03-06T10:55:58Z</time>
      </trkpt>
      <trkpt lat="44.53855" lon="4.54469">
        <ele>476</ele>
        <time>2022-03-06T10:56:20Z</time>
      </trkpt>
      <trkpt lat="44.53846" lon="4.54462">
        <ele>475</ele>
        <time>2022-03-06T10:56:28Z</time>
      </trkpt>
      <trkpt lat="44.53842" lon="4.54458">
        <ele>477</ele>
        <time>2022-03-06T10:56:31Z</time>
      </trkpt>
      <trkpt lat="44.5384" lon="4.54454">
        <ele>477</ele>
        <time>2022-03-06T10:56:34Z</time>
      </trkpt>
      <trkpt lat="44.53831" lon="4.54447">
        <ele>475</ele>
        <time>2022-03-06T10:56:41Z</time>
      </trkpt>
      <trkpt lat="44.53828" lon="4.54442">
        <ele>474</ele>
        <time>2022-03-06T10:56:45Z</time>
      </trkpt>
      <trkpt lat="44.53819" lon="4.54437">
        <ele>473</ele>
        <time>2022-03-06T10:56:52Z</time>
      </trkpt>
      <trkpt lat="44.53813" lon="4.54429">
        <ele>473</ele>
        <time>2022-03-06T10:56:59Z</time>
      </trkpt>
      <trkpt lat="44.53804" lon="4.54424">
        <ele>473</ele>
        <time>2022-03-06T10:57:06Z</time>
      </trkpt>
      <trkpt lat="44.538" lon="4.54422">
        <ele>473</ele>
        <time>2022-03-06T10:57:09Z</time>
      </trkpt>
      <trkpt lat="44.53797" lon="4.54418">
        <ele>474</ele>
        <time>2022-03-06T10:57:12Z</time>
      </trkpt>
      <trkpt lat="44.53793" lon="4.54416">
        <ele>474</ele>
        <time>2022-03-06T10:57:15Z</time>
      </trkpt>
      <trkpt lat="44.53776" lon="4.54406">
        <ele>474</ele>
        <time>2022-03-06T10:57:29Z</time>
      </trkpt>
      <trkpt lat="44.53764" lon="4.54409">
        <ele>473</ele>
        <time>2022-03-06T10:57:37Z</time>
      </trkpt>
      <trkpt lat="44.53751" lon="4.54415">
        <ele>472</ele>
        <time>2022-03-06T10:57:48Z</time>
      </trkpt>
      <trkpt lat="44.53746" lon="4.54415">
        <ele>472</ele>
        <time>2022-03-06T10:57:52Z</time>
      </trkpt>
      <trkpt lat="44.53736" lon="4.54413">
        <ele>471</ele>
        <time>2022-03-06T10:58:00Z</time>
      </trkpt>
      <trkpt lat="44.53732" lon="4.54413">
        <ele>471</ele>
        <time>2022-03-06T10:58:03Z</time>
      </trkpt>
      <trkpt lat="44.5373" lon="4.54414">
        <ele>471</ele>
        <time>2022-03-06T10:58:06Z</time>
      </trkpt>
      <trkpt lat="44.53729" lon="4.54411">
        <ele>472</ele>
        <time>2022-03-06T10:58:31Z</time>
      </trkpt>
      <trkpt lat="44.53728" lon="4.54408">
        <ele>472</ele>
        <time>2022-03-06T10:58:56Z</time>
      </trkpt>
      <trkpt lat="44.5373" lon="4.54403">
        <ele>472</ele>
        <time>2022-03-06T10:59:00Z</time>
      </trkpt>
      <trkpt lat="44.53732" lon="4.544">
        <ele>472</ele>
        <time>2022-03-06T10:59:03Z</time>
      </trkpt>
      <trkpt lat="44.53739" lon="4.54391">
        <ele>473</ele>
        <time>2022-03-06T10:59:11Z</time>
      </trkpt>
      <trkpt lat="44.53748" lon="4.54376">
        <ele>471</ele>
        <time>2022-03-06T10:59:22Z</time>
      </trkpt>
      <trkpt lat="44.5375" lon="4.5437">
        <ele>470</ele>
        <time>2022-03-06T10:59:29Z</time>
      </trkpt>
      <trkpt lat="44.53763" lon="4.5436">
        <ele>470</ele>
        <time>2022-03-06T10:59:44Z</time>
      </trkpt>
      <trkpt lat="44.53779" lon="4.54336">
        <ele>473</ele>
        <time>2022-03-06T10:59:59Z</time>
      </trkpt>
      <trkpt lat="44.53799" lon="4.54325">
        <ele>473</ele>
        <time>2022-03-06T11:00:14Z</time>
      </trkpt>
      <trkpt lat="44.53805" lon="4.54314">
        <ele>473</ele>
        <time>2022-03-06T11:00:20Z</time>
      </trkpt>
      <trkpt lat="44.53825" lon="4.54309">
        <ele>474</ele>
        <time>2022-03-06T11:00:35Z</time>
      </trkpt>
      <trkpt lat="44.53833" lon="4.54301">
        <ele>474</ele>
        <time>2022-03-06T11:00:44Z</time>
      </trkpt>
      <trkpt lat="44.53836" lon="4.5429">
        <ele>472</ele>
        <time>2022-03-06T11:00:48Z</time>
      </trkpt>
      <trkpt lat="44.5383" lon="4.54269">
        <ele>471</ele>
        <time>2022-03-06T11:00:59Z</time>
      </trkpt>
      <trkpt lat="44.53828" lon="4.5426">
        <ele>470</ele>
        <time>2022-03-06T11:01:14Z</time>
      </trkpt>
      <trkpt lat="44.5383" lon="4.54254">
        <ele>468</ele>
        <time>2022-03-06T11:01:37Z</time>
      </trkpt>
      <trkpt lat="44.53828" lon="4.54251">
        <ele>467</ele>
        <time>2022-03-06T11:02:10Z</time>
      </trkpt>
      <trkpt lat="44.53819" lon="4.54248">
        <ele>466</ele>
        <time>2022-03-06T11:02:39Z</time>
      </trkpt>
      <trkpt lat="44.53826" lon="4.54255">
        <ele>466</ele>
        <time>2022-03-06T11:03:56Z</time>
      </trkpt>
      <trkpt lat="44.53827" lon="4.54247">
        <ele>467</ele>
        <time>2022-03-06T11:04:59Z</time>
      </trkpt>
      <trkpt lat="44.53827" lon="4.5425">
        <ele>468</ele>
        <time>2022-03-06T11:06:30Z</time>
      </trkpt>
      <trkpt lat="44.53826" lon="4.54256">
        <ele>468</ele>
        <time>2022-03-06T11:08:04Z</time>
      </trkpt>
      <trkpt lat="44.53822" lon="4.54257">
        <ele>467</ele>
        <time>2022-03-06T11:08:35Z</time>
      </trkpt>
      <trkpt lat="44.53821" lon="4.54254">
        <ele>467</ele>
        <time>2022-03-06T11:09:47Z</time>
      </trkpt>
      <trkpt lat="44.53822" lon="4.5425">
        <ele>469</ele>
        <time>2022-03-06T11:13:50Z</time>
      </trkpt>
      <trkpt lat="44.53822" lon="4.54245">
        <ele>467</ele>
        <time>2022-03-06T11:14:27Z</time>
      </trkpt>
      <trkpt lat="44.53827" lon="4.54255">
        <ele>468</ele>
        <time>2022-03-06T11:14:38Z</time>
      </trkpt>
      <trkpt lat="44.53825" lon="4.54259">
        <ele>458</ele>
        <time>2022-03-06T11:17:21Z</time>
      </trkpt>
      <trkpt lat="44.53823" lon="4.54257">
        <ele>458</ele>
        <time>2022-03-06T11:17:42Z</time>
      </trkpt>
      <trkpt lat="44.53825" lon="4.54254">
        <ele>459</ele>
        <time>2022-03-06T11:18:06Z</time>
      </trkpt>
      <trkpt lat="44.53826" lon="4.54259">
        <ele>458</ele>
        <time>2022-03-06T11:18:41Z</time>
      </trkpt>
      <trkpt lat="44.53823" lon="4.54261">
        <ele>458</ele>
        <time>2022-03-06T11:19:26Z</time>
      </trkpt>
      <trkpt lat="44.53825" lon="4.54261">
        <ele>458</ele>
        <time>2022-03-06T11:24:10Z</time>
      </trkpt>
      <trkpt lat="44.53826" lon="4.54256">
        <ele>458</ele>
        <time>2022-03-06T11:24:17Z</time>
      </trkpt>
      <trkpt lat="44.53828" lon="4.54251">
        <ele>457</ele>
        <time>2022-03-06T11:26:57Z</time>
      </trkpt>
      <trkpt lat="44.53828" lon="4.54252">
        <ele>463</ele>
        <time>2022-03-06T11:28:54Z</time>
      </trkpt>
      <trkpt lat="44.53827" lon="4.54253">
        <ele>461</ele>
        <time>2022-03-06T11:30:11Z</time>
      </trkpt>
      <trkpt lat="44.53828" lon="4.54252">
        <ele>462</ele>
        <time>2022-03-06T11:33:20Z</time>
      </trkpt>
      <trkpt lat="44.53825" lon="4.54247">
        <ele>464</ele>
        <time>2022-03-06T11:33:43Z</time>
      </trkpt>
      <trkpt lat="44.53823" lon="4.54244">
        <ele>465</ele>
        <time>2022-03-06T11:33:59Z</time>
      </trkpt>
      <trkpt lat="44.53824" lon="4.54245">
        <ele>465</ele>
        <time>2022-03-06T11:36:55Z</time>
      </trkpt>
      <trkpt lat="44.53824" lon="4.54246">
        <ele>465</ele>
        <time>2022-03-06T11:37:32Z</time>
      </trkpt>
      <trkpt lat="44.53825" lon="4.54243">
        <ele>466</ele>
        <time>2022-03-06T11:39:00Z</time>
      </trkpt>
      <trkpt lat="44.53825" lon="4.54244">
        <ele>466</ele>
        <time>2022-03-06T11:39:20Z</time>
      </trkpt>
      <trkpt lat="44.53826" lon="4.54246">
        <ele>465</ele>
        <time>2022-03-06T11:40:47Z</time>
      </trkpt>
      <trkpt lat="44.53829" lon="4.54245">
        <ele>466</ele>
        <time>2022-03-06T11:42:35Z</time>
      </trkpt>
      <trkpt lat="44.53829" lon="4.54249">
        <ele>465</ele>
        <time>2022-03-06T11:43:08Z</time>
      </trkpt>
      <trkpt lat="44.53829" lon="4.5425">
        <ele>462</ele>
        <time>2022-03-06T11:44:18Z</time>
      </trkpt>
      <trkpt lat="44.53828" lon="4.54249">
        <ele>458</ele>
        <time>2022-03-06T11:46:29Z</time>
      </trkpt>
      <trkpt lat="44.53827" lon="4.54246">
        <ele>458</ele>
        <time>2022-03-06T11:46:53Z</time>
      </trkpt>
      <trkpt lat="44.53823" lon="4.54247">
        <ele>458</ele>
        <time>2022-03-06T11:46:57Z</time>
      </trkpt>
      <trkpt lat="44.5382" lon="4.54248">
        <ele>461</ele>
        <time>2022-03-06T11:47:05Z</time>
      </trkpt>
      <trkpt lat="44.53823" lon="4.54251">
        <ele>461</ele>
        <time>2022-03-06T11:47:25Z</time>
      </trkpt>
      <trkpt lat="44.53826" lon="4.54252">
        <ele>461</ele>
        <time>2022-03-06T11:47:38Z</time>
      </trkpt>
      <trkpt lat="44.53826" lon="4.54248">
        <ele>460</ele>
        <time>2022-03-06T11:47:47Z</time>
      </trkpt>
      <trkpt lat="44.53824" lon="4.54245">
        <ele>458</ele>
        <time>2022-03-06T11:48:21Z</time>
      </trkpt>
      <trkpt lat="44.53822" lon="4.54243">
        <ele>458</ele>
        <time>2022-03-06T11:48:34Z</time>
      </trkpt>
      <trkpt lat="44.53822" lon="4.54239">
        <ele>457</ele>
        <time>2022-03-06T11:48:43Z</time>
      </trkpt>
      <trkpt lat="44.53819" lon="4.54236">
        <ele>459</ele>
        <time>2022-03-06T11:48:50Z</time>
      </trkpt>
      <trkpt lat="44.53818" lon="4.54233">
        <ele>459</ele>
        <time>2022-03-06T11:48:57Z</time>
      </trkpt>
      <trkpt lat="44.53817" lon="4.54228">
        <ele>459</ele>
        <time>2022-03-06T11:49:02Z</time>
      </trkpt>
      <trkpt lat="44.53815" lon="4.5422">
        <ele>458</ele>
        <time>2022-03-06T11:49:09Z</time>
      </trkpt>
      <trkpt lat="44.53808" lon="4.54209">
        <ele>458</ele>
        <time>2022-03-06T11:49:23Z</time>
      </trkpt>
      <trkpt lat="44.53802" lon="4.54202">
        <ele>459</ele>
        <time>2022-03-06T11:49:30Z</time>
      </trkpt>
      <trkpt lat="44.53794" lon="4.54198">
        <ele>458</ele>
        <time>2022-03-06T11:49:38Z</time>
      </trkpt>
      <trkpt lat="44.53788" lon="4.54198">
        <ele>457</ele>
        <time>2022-03-06T11:49:45Z</time>
      </trkpt>
      <trkpt lat="44.53782" lon="4.54196">
        <ele>454</ele>
        <time>2022-03-06T11:49:54Z</time>
      </trkpt>
      <trkpt lat="44.53775" lon="4.54194">
        <ele>454</ele>
        <time>2022-03-06T11:50:05Z</time>
      </trkpt>
      <trkpt lat="44.53771" lon="4.54194">
        <ele>452</ele>
        <time>2022-03-06T11:50:12Z</time>
      </trkpt>
      <trkpt lat="44.53767" lon="4.54192">
        <ele>451</ele>
        <time>2022-03-06T11:50:16Z</time>
      </trkpt>
      <trkpt lat="44.53764" lon="4.54189">
        <ele>450</ele>
        <time>2022-03-06T11:50:19Z</time>
      </trkpt>
      <trkpt lat="44.53763" lon="4.54186">
        <ele>450</ele>
        <time>2022-03-06T11:50:22Z</time>
      </trkpt>
      <trkpt lat="44.53758" lon="4.5418">
        <ele>449</ele>
        <time>2022-03-06T11:50:28Z</time>
      </trkpt>
      <trkpt lat="44.53755" lon="4.54176">
        <ele>449</ele>
        <time>2022-03-06T11:50:31Z</time>
      </trkpt>
      <trkpt lat="44.53744" lon="4.54157">
        <ele>446</ele>
        <time>2022-03-06T11:50:47Z</time>
      </trkpt>
      <trkpt lat="44.53743" lon="4.54154">
        <ele>446</ele>
        <time>2022-03-06T11:50:50Z</time>
      </trkpt>
      <trkpt lat="44.53738" lon="4.54148">
        <ele>444</ele>
        <time>2022-03-06T11:50:58Z</time>
      </trkpt>
      <trkpt lat="44.53735" lon="4.54146">
        <ele>443</ele>
        <time>2022-03-06T11:51:01Z</time>
      </trkpt>
      <trkpt lat="44.53734" lon="4.54142">
        <ele>442</ele>
        <time>2022-03-06T11:51:04Z</time>
      </trkpt>
      <trkpt lat="44.53729" lon="4.54135">
        <ele>440</ele>
        <time>2022-03-06T11:51:10Z</time>
      </trkpt>
      <trkpt lat="44.53725" lon="4.54128">
        <ele>441</ele>
        <time>2022-03-06T11:51:16Z</time>
      </trkpt>
      <trkpt lat="44.53721" lon="4.54121">
        <ele>442</ele>
        <time>2022-03-06T11:51:24Z</time>
      </trkpt>
      <trkpt lat="44.53716" lon="4.54108">
        <ele>442</ele>
        <time>2022-03-06T11:51:34Z</time>
      </trkpt>
      <trkpt lat="44.53713" lon="4.54106">
        <ele>442</ele>
        <time>2022-03-06T11:51:37Z</time>
      </trkpt>
      <trkpt lat="44.53711" lon="4.54104">
        <ele>441</ele>
        <time>2022-03-06T11:51:40Z</time>
      </trkpt>
      <trkpt lat="44.53709" lon="4.54102">
        <ele>441</ele>
        <time>2022-03-06T11:51:43Z</time>
      </trkpt>
      <trkpt lat="44.53707" lon="4.54098">
        <ele>440</ele>
        <time>2022-03-06T11:51:47Z</time>
      </trkpt>
      <trkpt lat="44.53702" lon="4.54093">
        <ele>438</ele>
        <time>2022-03-06T11:51:54Z</time>
      </trkpt>
      <trkpt lat="44.537" lon="4.54091">
        <ele>437</ele>
        <time>2022-03-06T11:51:57Z</time>
      </trkpt>
      <trkpt lat="44.53699" lon="4.54088">
        <ele>437</ele>
        <time>2022-03-06T11:51:59Z</time>
      </trkpt>
      <trkpt lat="44.53699" lon="4.54083">
        <ele>438</ele>
        <time>2022-03-06T11:52:02Z</time>
      </trkpt>
      <trkpt lat="44.53698" lon="4.5408">
        <ele>438</ele>
        <time>2022-03-06T11:52:06Z</time>
      </trkpt>
      <trkpt lat="44.53697" lon="4.54076">
        <ele>437</ele>
        <time>2022-03-06T11:52:09Z</time>
      </trkpt>
      <trkpt lat="44.53698" lon="4.54072">
        <ele>437</ele>
        <time>2022-03-06T11:52:12Z</time>
      </trkpt>
      <trkpt lat="44.53697" lon="4.54062">
        <ele>436</ele>
        <time>2022-03-06T11:52:18Z</time>
      </trkpt>
      <trkpt lat="44.53697" lon="4.54059">
        <ele>435</ele>
        <time>2022-03-06T11:52:21Z</time>
      </trkpt>
      <trkpt lat="44.53698" lon="4.54054">
        <ele>435</ele>
        <time>2022-03-06T11:52:24Z</time>
      </trkpt>
      <trkpt lat="44.53698" lon="4.5405">
        <ele>434</ele>
        <time>2022-03-06T11:52:28Z</time>
      </trkpt>
      <trkpt lat="44.53696" lon="4.54046">
        <ele>434</ele>
        <time>2022-03-06T11:52:32Z</time>
      </trkpt>
      <trkpt lat="44.53695" lon="4.54043">
        <ele>433</ele>
        <time>2022-03-06T11:52:35Z</time>
      </trkpt>
      <trkpt lat="44.53693" lon="4.5404">
        <ele>433</ele>
        <time>2022-03-06T11:52:39Z</time>
      </trkpt>
      <trkpt lat="44.53692" lon="4.54037">
        <ele>432</ele>
        <time>2022-03-06T11:52:42Z</time>
      </trkpt>
      <trkpt lat="44.53691" lon="4.54034">
        <ele>431</ele>
        <time>2022-03-06T11:52:45Z</time>
      </trkpt>
      <trkpt lat="44.5369" lon="4.54029">
        <ele>431</ele>
        <time>2022-03-06T11:52:54Z</time>
      </trkpt>
      <trkpt lat="44.53685" lon="4.54013">
        <ele>430</ele>
        <time>2022-03-06T11:53:08Z</time>
      </trkpt>
      <trkpt lat="44.53681" lon="4.54009">
        <ele>430</ele>
        <time>2022-03-06T11:53:11Z</time>
      </trkpt>
      <trkpt lat="44.53677" lon="4.54007">
        <ele>429</ele>
        <time>2022-03-06T11:53:15Z</time>
      </trkpt>
      <trkpt lat="44.53674" lon="4.54001">
        <ele>429</ele>
        <time>2022-03-06T11:53:20Z</time>
      </trkpt>
      <trkpt lat="44.53666" lon="4.53988">
        <ele>428</ele>
        <time>2022-03-06T11:53:30Z</time>
      </trkpt>
      <trkpt lat="44.5366" lon="4.53982">
        <ele>427</ele>
        <time>2022-03-06T11:53:37Z</time>
      </trkpt>
      <trkpt lat="44.53642" lon="4.53966">
        <ele>426</ele>
        <time>2022-03-06T11:53:56Z</time>
      </trkpt>
      <trkpt lat="44.5364" lon="4.53962">
        <ele>425</ele>
        <time>2022-03-06T11:54:00Z</time>
      </trkpt>
      <trkpt lat="44.53629" lon="4.5395">
        <ele>423</ele>
        <time>2022-03-06T11:54:13Z</time>
      </trkpt>
      <trkpt lat="44.53624" lon="4.53948">
        <ele>423</ele>
        <time>2022-03-06T11:54:17Z</time>
      </trkpt>
      <trkpt lat="44.53598" lon="4.53924">
        <ele>423</ele>
        <time>2022-03-06T11:54:44Z</time>
      </trkpt>
      <trkpt lat="44.53588" lon="4.53923">
        <ele>424</ele>
        <time>2022-03-06T11:54:50Z</time>
      </trkpt>
      <trkpt lat="44.53583" lon="4.53923">
        <ele>423</ele>
        <time>2022-03-06T11:54:52Z</time>
      </trkpt>
      <trkpt lat="44.53578" lon="4.5392">
        <ele>422</ele>
        <time>2022-03-06T11:54:57Z</time>
      </trkpt>
      <trkpt lat="44.53575" lon="4.53914">
        <ele>421</ele>
        <time>2022-03-06T11:55:02Z</time>
      </trkpt>
      <trkpt lat="44.53575" lon="4.53907">
        <ele>421</ele>
        <time>2022-03-06T11:55:06Z</time>
      </trkpt>
      <trkpt lat="44.5357" lon="4.53898">
        <ele>422</ele>
        <time>2022-03-06T11:55:14Z</time>
      </trkpt>
      <trkpt lat="44.53568" lon="4.53894">
        <ele>422</ele>
        <time>2022-03-06T11:55:17Z</time>
      </trkpt>
      <trkpt lat="44.53565" lon="4.53884">
        <ele>424</ele>
        <time>2022-03-06T11:55:25Z</time>
      </trkpt>
      <trkpt lat="44.53562" lon="4.53878">
        <ele>424</ele>
        <time>2022-03-06T11:55:29Z</time>
      </trkpt>
      <trkpt lat="44.53561" lon="4.53873">
        <ele>425</ele>
        <time>2022-03-06T11:55:32Z</time>
      </trkpt>
      <trkpt lat="44.53559" lon="4.53868">
        <ele>426</ele>
        <time>2022-03-06T11:55:38Z</time>
      </trkpt>
      <trkpt lat="44.53556" lon="4.53865">
        <ele>426</ele>
        <time>2022-03-06T11:55:41Z</time>
      </trkpt>
      <trkpt lat="44.53554" lon="4.53861">
        <ele>426</ele>
        <time>2022-03-06T11:55:44Z</time>
      </trkpt>
      <trkpt lat="44.53553" lon="4.53845">
        <ele>428</ele>
        <time>2022-03-06T11:55:53Z</time>
      </trkpt>
      <trkpt lat="44.53554" lon="4.5384">
        <ele>428</ele>
        <time>2022-03-06T11:55:56Z</time>
      </trkpt>
      <trkpt lat="44.53555" lon="4.53831">
        <ele>428</ele>
        <time>2022-03-06T11:56:02Z</time>
      </trkpt>
      <trkpt lat="44.53555" lon="4.53826">
        <ele>429</ele>
        <time>2022-03-06T11:56:06Z</time>
      </trkpt>
      <trkpt lat="44.53555" lon="4.53817">
        <ele>429</ele>
        <time>2022-03-06T11:56:12Z</time>
      </trkpt>
      <trkpt lat="44.53556" lon="4.53808">
        <ele>430</ele>
        <time>2022-03-06T11:56:17Z</time>
      </trkpt>
      <trkpt lat="44.53557" lon="4.53803">
        <ele>430</ele>
        <time>2022-03-06T11:56:20Z</time>
      </trkpt>
      <trkpt lat="44.53557" lon="4.53788">
        <ele>429</ele>
        <time>2022-03-06T11:56:29Z</time>
      </trkpt>
      <trkpt lat="44.53555" lon="4.53783">
        <ele>430</ele>
        <time>2022-03-06T11:56:32Z</time>
      </trkpt>
      <trkpt lat="44.53555" lon="4.53778">
        <ele>431</ele>
        <time>2022-03-06T11:56:36Z</time>
      </trkpt>
      <trkpt lat="44.53557" lon="4.53771">
        <ele>432</ele>
        <time>2022-03-06T11:56:40Z</time>
      </trkpt>
      <trkpt lat="44.53558" lon="4.53759">
        <ele>432</ele>
        <time>2022-03-06T11:56:48Z</time>
      </trkpt>
      <trkpt lat="44.53553" lon="4.5372">
        <ele>430</ele>
        <time>2022-03-06T11:57:16Z</time>
      </trkpt>
      <trkpt lat="44.53552" lon="4.53711">
        <ele>430</ele>
        <time>2022-03-06T11:57:24Z</time>
      </trkpt>
      <trkpt lat="44.53551" lon="4.53705">
        <ele>430</ele>
        <time>2022-03-06T11:57:27Z</time>
      </trkpt>
      <trkpt lat="44.5355" lon="4.53703">
        <ele>429</ele>
        <time>2022-03-06T11:58:20Z</time>
      </trkpt>
      <trkpt lat="44.53548" lon="4.537">
        <ele>430</ele>
        <time>2022-03-06T11:58:33Z</time>
      </trkpt>
      <trkpt lat="44.53546" lon="4.53697">
        <ele>431</ele>
        <time>2022-03-06T11:58:38Z</time>
      </trkpt>
      <trkpt lat="44.53539" lon="4.53689">
        <ele>431</ele>
        <time>2022-03-06T11:58:53Z</time>
      </trkpt>
      <trkpt lat="44.53535" lon="4.53675">
        <ele>429</ele>
        <time>2022-03-06T11:59:04Z</time>
      </trkpt>
      <trkpt lat="44.53534" lon="4.53671">
        <ele>428</ele>
        <time>2022-03-06T11:59:07Z</time>
      </trkpt>
      <trkpt lat="44.53533" lon="4.53666">
        <ele>428</ele>
        <time>2022-03-06T11:59:10Z</time>
      </trkpt>
      <trkpt lat="44.53532" lon="4.53661">
        <ele>427</ele>
        <time>2022-03-06T11:59:14Z</time>
      </trkpt>
      <trkpt lat="44.53526" lon="4.53648">
        <ele>427</ele>
        <time>2022-03-06T11:59:24Z</time>
      </trkpt>
      <trkpt lat="44.53526" lon="4.53644">
        <ele>427</ele>
        <time>2022-03-06T11:59:28Z</time>
      </trkpt>
      <trkpt lat="44.53522" lon="4.53606">
        <ele>426</ele>
        <time>2022-03-06T11:59:55Z</time>
      </trkpt>
      <trkpt lat="44.53523" lon="4.53601">
        <ele>427</ele>
        <time>2022-03-06T11:59:59Z</time>
      </trkpt>
      <trkpt lat="44.53521" lon="4.53598">
        <ele>427</ele>
        <time>2022-03-06T12:00:02Z</time>
      </trkpt>
      <trkpt lat="44.53518" lon="4.53595">
        <ele>427</ele>
        <time>2022-03-06T12:00:05Z</time>
      </trkpt>
      <trkpt lat="44.53515" lon="4.53594">
        <ele>426</ele>
        <time>2022-03-06T12:00:08Z</time>
      </trkpt>
      <trkpt lat="44.53512" lon="4.53592">
        <ele>427</ele>
        <time>2022-03-06T12:00:11Z</time>
      </trkpt>
      <trkpt lat="44.53502" lon="4.53583">
        <ele>427</ele>
        <time>2022-03-06T12:00:22Z</time>
      </trkpt>
      <trkpt lat="44.53496" lon="4.53581">
        <ele>427</ele>
        <time>2022-03-06T12:00:28Z</time>
      </trkpt>
      <trkpt lat="44.5349" lon="4.53574">
        <ele>425</ele>
        <time>2022-03-06T12:00:37Z</time>
      </trkpt>
      <trkpt lat="44.53479" lon="4.5357">
        <ele>423</ele>
        <time>2022-03-06T12:00:49Z</time>
      </trkpt>
      <trkpt lat="44.53472" lon="4.53571">
        <ele>423</ele>
        <time>2022-03-06T12:00:55Z</time>
      </trkpt>
      <trkpt lat="44.53465" lon="4.5357">
        <ele>422</ele>
        <time>2022-03-06T12:01:01Z</time>
      </trkpt>
      <trkpt lat="44.53454" lon="4.53571">
        <ele>422</ele>
        <time>2022-03-06T12:01:11Z</time>
      </trkpt>
      <trkpt lat="44.53451" lon="4.53573">
        <ele>421</ele>
        <time>2022-03-06T12:01:14Z</time>
      </trkpt>
      <trkpt lat="44.53447" lon="4.53574">
        <ele>421</ele>
        <time>2022-03-06T12:01:17Z</time>
      </trkpt>
      <trkpt lat="44.53444" lon="4.53572">
        <ele>420</ele>
        <time>2022-03-06T12:01:21Z</time>
      </trkpt>
      <trkpt lat="44.53435" lon="4.53565">
        <ele>419</ele>
        <time>2022-03-06T12:01:30Z</time>
      </trkpt>
      <trkpt lat="44.53434" lon="4.53562">
        <ele>418</ele>
        <time>2022-03-06T12:01:33Z</time>
      </trkpt>
      <trkpt lat="44.53434" lon="4.53558">
        <ele>418</ele>
        <time>2022-03-06T12:01:36Z</time>
      </trkpt>
      <trkpt lat="44.53435" lon="4.53553">
        <ele>418</ele>
        <time>2022-03-06T12:01:39Z</time>
      </trkpt>
      <trkpt lat="44.53435" lon="4.53549">
        <ele>418</ele>
        <time>2022-03-06T12:01:44Z</time>
      </trkpt>
      <trkpt lat="44.53427" lon="4.53544">
        <ele>414</ele>
        <time>2022-03-06T12:02:04Z</time>
      </trkpt>
      <trkpt lat="44.53422" lon="4.53541">
        <ele>415</ele>
        <time>2022-03-06T12:02:16Z</time>
      </trkpt>
      <trkpt lat="44.5342" lon="4.53537">
        <ele>416</ele>
        <time>2022-03-06T12:02:22Z</time>
      </trkpt>
      <trkpt lat="44.53417" lon="4.53534">
        <ele>417</ele>
        <time>2022-03-06T12:02:25Z</time>
      </trkpt>
      <trkpt lat="44.53412" lon="4.53533">
        <ele>417</ele>
        <time>2022-03-06T12:03:06Z</time>
      </trkpt>
      <trkpt lat="44.53408" lon="4.5353">
        <ele>419</ele>
        <time>2022-03-06T12:03:12Z</time>
      </trkpt>
      <trkpt lat="44.53403" lon="4.53519">
        <ele>418</ele>
        <time>2022-03-06T12:03:18Z</time>
      </trkpt>
      <trkpt lat="44.534" lon="4.53516">
        <ele>417</ele>
        <time>2022-03-06T12:03:21Z</time>
      </trkpt>
      <trkpt lat="44.53396" lon="4.53516">
        <ele>415</ele>
        <time>2022-03-06T12:03:24Z</time>
      </trkpt>
      <trkpt lat="44.53389" lon="4.5351">
        <ele>410</ele>
        <time>2022-03-06T12:03:32Z</time>
      </trkpt>
      <trkpt lat="44.53387" lon="4.53507">
        <ele>408</ele>
        <time>2022-03-06T12:03:36Z</time>
      </trkpt>
      <trkpt lat="44.53385" lon="4.53505">
        <ele>408</ele>
        <time>2022-03-06T12:03:43Z</time>
      </trkpt>
      <trkpt lat="44.53383" lon="4.53502">
        <ele>410</ele>
        <time>2022-03-06T12:04:00Z</time>
      </trkpt>
      <trkpt lat="44.53379" lon="4.53501">
        <ele>410</ele>
        <time>2022-03-06T12:04:09Z</time>
      </trkpt>
      <trkpt lat="44.53376" lon="4.53498">
        <ele>410</ele>
        <time>2022-03-06T12:04:12Z</time>
      </trkpt>
      <trkpt lat="44.53373" lon="4.53497">
        <ele>410</ele>
        <time>2022-03-06T12:04:17Z</time>
      </trkpt>
      <trkpt lat="44.5337" lon="4.53494">
        <ele>408</ele>
        <time>2022-03-06T12:04:27Z</time>
      </trkpt>
      <trkpt lat="44.53371" lon="4.5349">
        <ele>407</ele>
        <time>2022-03-06T12:06:09Z</time>
      </trkpt>
      <trkpt lat="44.53371" lon="4.53482">
        <ele>407</ele>
        <time>2022-03-06T12:06:15Z</time>
      </trkpt>
      <trkpt lat="44.53369" lon="4.53474">
        <ele>405</ele>
        <time>2022-03-06T12:06:20Z</time>
      </trkpt>
      <trkpt lat="44.5337" lon="4.53467">
        <ele>405</ele>
        <time>2022-03-06T12:06:25Z</time>
      </trkpt>
      <trkpt lat="44.53367" lon="4.53459">
        <ele>404</ele>
        <time>2022-03-06T12:06:31Z</time>
      </trkpt>
      <trkpt lat="44.53363" lon="4.53454">
        <ele>403</ele>
        <time>2022-03-06T12:06:40Z</time>
      </trkpt>
      <trkpt lat="44.53358" lon="4.5345">
        <ele>402</ele>
        <time>2022-03-06T12:06:46Z</time>
      </trkpt>
      <trkpt lat="44.53355" lon="4.53434">
        <ele>400</ele>
        <time>2022-03-06T12:06:58Z</time>
      </trkpt>
      <trkpt lat="44.53353" lon="4.53426">
        <ele>399</ele>
        <time>2022-03-06T12:07:01Z</time>
      </trkpt>
      <trkpt lat="44.53349" lon="4.53418">
        <ele>399</ele>
        <time>2022-03-06T12:07:09Z</time>
      </trkpt>
      <trkpt lat="44.53346" lon="4.534">
        <ele>395</ele>
        <time>2022-03-06T12:07:29Z</time>
      </trkpt>
      <trkpt lat="44.53341" lon="4.53397">
        <ele>395</ele>
        <time>2022-03-06T12:07:38Z</time>
      </trkpt>
      <trkpt lat="44.53336" lon="4.53392">
        <ele>392</ele>
        <time>2022-03-06T12:07:46Z</time>
      </trkpt>
      <trkpt lat="44.53335" lon="4.53384">
        <ele>392</ele>
        <time>2022-03-06T12:07:55Z</time>
      </trkpt>
      <trkpt lat="44.53322" lon="4.53376">
        <ele>387</ele>
        <time>2022-03-06T12:08:12Z</time>
      </trkpt>
      <trkpt lat="44.53321" lon="4.5337">
        <ele>385</ele>
        <time>2022-03-06T12:08:17Z</time>
      </trkpt>
      <trkpt lat="44.53322" lon="4.53362">
        <ele>386</ele>
        <time>2022-03-06T12:08:22Z</time>
      </trkpt>
      <trkpt lat="44.5332" lon="4.53357">
        <ele>385</ele>
        <time>2022-03-06T12:08:30Z</time>
      </trkpt>
      <trkpt lat="44.53319" lon="4.53351">
        <ele>385</ele>
        <time>2022-03-06T12:08:37Z</time>
      </trkpt>
      <trkpt lat="44.53316" lon="4.53346">
        <ele>384</ele>
        <time>2022-03-06T12:08:43Z</time>
      </trkpt>
      <trkpt lat="44.53316" lon="4.5334">
        <ele>384</ele>
        <time>2022-03-06T12:08:49Z</time>
      </trkpt>
      <trkpt lat="44.53321" lon="4.53339">
        <ele>384</ele>
        <time>2022-03-06T12:08:56Z</time>
      </trkpt>
      <trkpt lat="44.53326" lon="4.5334">
        <ele>385</ele>
        <time>2022-03-06T12:09:01Z</time>
      </trkpt>
      <trkpt lat="44.53329" lon="4.53336">
        <ele>385</ele>
        <time>2022-03-06T12:09:07Z</time>
      </trkpt>
      <trkpt lat="44.53326" lon="4.53327">
        <ele>383</ele>
        <time>2022-03-06T12:09:22Z</time>
      </trkpt>
      <trkpt lat="44.53324" lon="4.53322">
        <ele>381</ele>
        <time>2022-03-06T12:09:30Z</time>
      </trkpt>
      <trkpt lat="44.53321" lon="4.53315">
        <ele>378</ele>
        <time>2022-03-06T12:09:39Z</time>
      </trkpt>
      <trkpt lat="44.53317" lon="4.5331">
        <ele>376</ele>
        <time>2022-03-06T12:09:48Z</time>
      </trkpt>
      <trkpt lat="44.53313" lon="4.53306">
        <ele>376</ele>
        <time>2022-03-06T12:09:54Z</time>
      </trkpt>
      <trkpt lat="44.53313" lon="4.53295">
        <ele>376</ele>
        <time>2022-03-06T12:10:04Z</time>
      </trkpt>
      <trkpt lat="44.53314" lon="4.53286">
        <ele>376</ele>
        <time>2022-03-06T12:10:12Z</time>
      </trkpt>
      <trkpt lat="44.53312" lon="4.53282">
        <ele>375</ele>
        <time>2022-03-06T12:10:17Z</time>
      </trkpt>
      <trkpt lat="44.53307" lon="4.53264">
        <ele>374</ele>
        <time>2022-03-06T12:10:37Z</time>
      </trkpt>
      <trkpt lat="44.53306" lon="4.53257">
        <ele>372</ele>
        <time>2022-03-06T12:10:43Z</time>
      </trkpt>
      <trkpt lat="44.53306" lon="4.53254">
        <ele>372</ele>
        <time>2022-03-06T12:10:46Z</time>
      </trkpt>
      <trkpt lat="44.53304" lon="4.53251">
        <ele>371</ele>
        <time>2022-03-06T12:10:52Z</time>
      </trkpt>
      <trkpt lat="44.53304" lon="4.53248">
        <ele>370</ele>
        <time>2022-03-06T12:10:56Z</time>
      </trkpt>
      <trkpt lat="44.53304" lon="4.53244">
        <ele>370</ele>
        <time>2022-03-06T12:11:03Z</time>
      </trkpt>
      <trkpt lat="44.53302" lon="4.5324">
        <ele>369</ele>
        <time>2022-03-06T12:11:10Z</time>
      </trkpt>
      <trkpt lat="44.533" lon="4.53229">
        <ele>367</ele>
        <time>2022-03-06T12:11:31Z</time>
      </trkpt>
      <trkpt lat="44.53299" lon="4.53226">
        <ele>367</ele>
        <time>2022-03-06T12:11:34Z</time>
      </trkpt>
      <trkpt lat="44.53297" lon="4.53219">
        <ele>365</ele>
        <time>2022-03-06T12:11:41Z</time>
      </trkpt>
      <trkpt lat="44.53296" lon="4.53216">
        <ele>365</ele>
        <time>2022-03-06T12:11:44Z</time>
      </trkpt>
      <trkpt lat="44.53296" lon="4.53212">
        <ele>364</ele>
        <time>2022-03-06T12:11:47Z</time>
      </trkpt>
      <trkpt lat="44.53295" lon="4.53209">
        <ele>364</ele>
        <time>2022-03-06T12:11:50Z</time>
      </trkpt>
      <trkpt lat="44.53292" lon="4.53204">
        <ele>361</ele>
        <time>2022-03-06T12:12:00Z</time>
      </trkpt>
      <trkpt lat="44.53291" lon="4.53201">
        <ele>360</ele>
        <time>2022-03-06T12:12:08Z</time>
      </trkpt>
      <trkpt lat="44.53286" lon="4.53197">
        <ele>359</ele>
        <time>2022-03-06T12:12:14Z</time>
      </trkpt>
      <trkpt lat="44.53278" lon="4.53186">
        <ele>357</ele>
        <time>2022-03-06T12:12:28Z</time>
      </trkpt>
      <trkpt lat="44.53277" lon="4.53183">
        <ele>357</ele>
        <time>2022-03-06T12:12:32Z</time>
      </trkpt>
      <trkpt lat="44.53275" lon="4.5318">
        <ele>355</ele>
        <time>2022-03-06T12:12:36Z</time>
      </trkpt>
      <trkpt lat="44.53274" lon="4.5317">
        <ele>355</ele>
        <time>2022-03-06T12:12:49Z</time>
      </trkpt>
      <trkpt lat="44.53275" lon="4.53166">
        <ele>354</ele>
        <time>2022-03-06T12:12:55Z</time>
      </trkpt>
      <trkpt lat="44.53274" lon="4.53162">
        <ele>354</ele>
        <time>2022-03-06T12:12:58Z</time>
      </trkpt>
      <trkpt lat="44.53272" lon="4.53158">
        <ele>354</ele>
        <time>2022-03-06T12:13:02Z</time>
      </trkpt>
      <trkpt lat="44.53271" lon="4.53155">
        <ele>354</ele>
        <time>2022-03-06T12:13:05Z</time>
      </trkpt>
      <trkpt lat="44.53269" lon="4.53153">
        <ele>353</ele>
        <time>2022-03-06T12:13:08Z</time>
      </trkpt>
      <trkpt lat="44.53267" lon="4.5315">
        <ele>351</ele>
        <time>2022-03-06T12:13:13Z</time>
      </trkpt>
      <trkpt lat="44.53262" lon="4.53143">
        <ele>350</ele>
        <time>2022-03-06T12:13:20Z</time>
      </trkpt>
      <trkpt lat="44.53258" lon="4.53134">
        <ele>349</ele>
        <time>2022-03-06T12:13:31Z</time>
      </trkpt>
      <trkpt lat="44.53256" lon="4.53132">
        <ele>348</ele>
        <time>2022-03-06T12:13:33Z</time>
      </trkpt>
      <trkpt lat="44.53254" lon="4.53129">
        <ele>347</ele>
        <time>2022-03-06T12:13:37Z</time>
      </trkpt>
      <trkpt lat="44.53251" lon="4.53124">
        <ele>346</ele>
        <time>2022-03-06T12:13:47Z</time>
      </trkpt>
      <trkpt lat="44.5325" lon="4.5312">
        <ele>345</ele>
        <time>2022-03-06T12:13:50Z</time>
      </trkpt>
      <trkpt lat="44.53249" lon="4.53117">
        <ele>345</ele>
        <time>2022-03-06T12:13:53Z</time>
      </trkpt>
      <trkpt lat="44.53247" lon="4.53114">
        <ele>345</ele>
        <time>2022-03-06T12:13:56Z</time>
      </trkpt>
      <trkpt lat="44.53241" lon="4.531">
        <ele>345</ele>
        <time>2022-03-06T12:14:07Z</time>
      </trkpt>
      <trkpt lat="44.53242" lon="4.53096">
        <ele>345</ele>
        <time>2022-03-06T12:14:11Z</time>
      </trkpt>
      <trkpt lat="44.53242" lon="4.53092">
        <ele>345</ele>
        <time>2022-03-06T12:14:14Z</time>
      </trkpt>
      <trkpt lat="44.5324" lon="4.53089">
        <ele>345</ele>
        <time>2022-03-06T12:14:17Z</time>
      </trkpt>
      <trkpt lat="44.53238" lon="4.53085">
        <ele>346</ele>
        <time>2022-03-06T12:14:21Z</time>
      </trkpt>
      <trkpt lat="44.53236" lon="4.53083">
        <ele>346</ele>
        <time>2022-03-06T12:14:23Z</time>
      </trkpt>
      <trkpt lat="44.53235" lon="4.5308">
        <ele>346</ele>
        <time>2022-03-06T12:14:26Z</time>
      </trkpt>
      <trkpt lat="44.53233" lon="4.53076">
        <ele>345</ele>
        <time>2022-03-06T12:14:30Z</time>
      </trkpt>
      <trkpt lat="44.53232" lon="4.53072">
        <ele>344</ele>
        <time>2022-03-06T12:14:34Z</time>
      </trkpt>
      <trkpt lat="44.53231" lon="4.53068">
        <ele>344</ele>
        <time>2022-03-06T12:14:39Z</time>
      </trkpt>
      <trkpt lat="44.53228" lon="4.53065">
        <ele>344</ele>
        <time>2022-03-06T12:14:42Z</time>
      </trkpt>
      <trkpt lat="44.53225" lon="4.53061">
        <ele>343</ele>
        <time>2022-03-06T12:14:45Z</time>
      </trkpt>
      <trkpt lat="44.53222" lon="4.53053">
        <ele>341</ele>
        <time>2022-03-06T12:14:51Z</time>
      </trkpt>
      <trkpt lat="44.5322" lon="4.5305">
        <ele>341</ele>
        <time>2022-03-06T12:14:54Z</time>
      </trkpt>
      <trkpt lat="44.53217" lon="4.53043">
        <ele>341</ele>
        <time>2022-03-06T12:15:00Z</time>
      </trkpt>
      <trkpt lat="44.53216" lon="4.53038">
        <ele>341</ele>
        <time>2022-03-06T12:15:03Z</time>
      </trkpt>
      <trkpt lat="44.53214" lon="4.53035">
        <ele>343</ele>
        <time>2022-03-06T12:15:07Z</time>
      </trkpt>
      <trkpt lat="44.53206" lon="4.53012">
        <ele>344</ele>
        <time>2022-03-06T12:15:27Z</time>
      </trkpt>
      <trkpt lat="44.53199" lon="4.53">
        <ele>342</ele>
        <time>2022-03-06T12:15:39Z</time>
      </trkpt>
      <trkpt lat="44.53169" lon="4.5297">
        <ele>341</ele>
        <time>2022-03-06T12:16:09Z</time>
      </trkpt>
      <trkpt lat="44.53166" lon="4.52967">
        <ele>341</ele>
        <time>2022-03-06T12:16:12Z</time>
      </trkpt>
      <trkpt lat="44.53164" lon="4.52965">
        <ele>341</ele>
        <time>2022-03-06T12:16:15Z</time>
      </trkpt>
      <trkpt lat="44.53161" lon="4.52961">
        <ele>342</ele>
        <time>2022-03-06T12:16:19Z</time>
      </trkpt>
      <trkpt lat="44.53158" lon="4.52958">
        <ele>342</ele>
        <time>2022-03-06T12:16:22Z</time>
      </trkpt>
      <trkpt lat="44.53153" lon="4.52952">
        <ele>340</ele>
        <time>2022-03-06T12:16:28Z</time>
      </trkpt>
      <trkpt lat="44.53135" lon="4.52935">
        <ele>341</ele>
        <time>2022-03-06T12:16:46Z</time>
      </trkpt>
      <trkpt lat="44.53133" lon="4.52932">
        <ele>341</ele>
        <time>2022-03-06T12:16:48Z</time>
      </trkpt>
      <trkpt lat="44.53131" lon="4.52929">
        <ele>342</ele>
        <time>2022-03-06T12:16:51Z</time>
      </trkpt>
      <trkpt lat="44.5313" lon="4.52922">
        <ele>343</ele>
        <time>2022-03-06T12:16:57Z</time>
      </trkpt>
      <trkpt lat="44.53132" lon="4.52914">
        <ele>344</ele>
        <time>2022-03-06T12:17:04Z</time>
      </trkpt>
      <trkpt lat="44.53133" lon="4.5291">
        <ele>345</ele>
        <time>2022-03-06T12:17:07Z</time>
      </trkpt>
      <trkpt lat="44.53133" lon="4.52902">
        <ele>346</ele>
        <time>2022-03-06T12:17:16Z</time>
      </trkpt>
      <trkpt lat="44.53136" lon="4.52893">
        <ele>346</ele>
        <time>2022-03-06T12:17:24Z</time>
      </trkpt>
      <trkpt lat="44.53136" lon="4.52886">
        <ele>345</ele>
        <time>2022-03-06T12:17:30Z</time>
      </trkpt>
      <trkpt lat="44.53137" lon="4.5288">
        <ele>345</ele>
        <time>2022-03-06T12:17:36Z</time>
      </trkpt>
      <trkpt lat="44.53145" lon="4.52865">
        <ele>345</ele>
        <time>2022-03-06T12:17:50Z</time>
      </trkpt>
      <trkpt lat="44.53147" lon="4.5286">
        <ele>345</ele>
        <time>2022-03-06T12:17:54Z</time>
      </trkpt>
      <trkpt lat="44.53145" lon="4.52857">
        <ele>345</ele>
        <time>2022-03-06T12:17:56Z</time>
      </trkpt>
      <trkpt lat="44.53143" lon="4.52854">
        <ele>344</ele>
        <time>2022-03-06T12:17:58Z</time>
      </trkpt>
      <trkpt lat="44.53136" lon="4.52849">
        <ele>345</ele>
        <time>2022-03-06T12:18:07Z</time>
      </trkpt>
      <trkpt lat="44.53134" lon="4.52846">
        <ele>345</ele>
        <time>2022-03-06T12:18:11Z</time>
      </trkpt>
      <trkpt lat="44.53129" lon="4.52839">
        <ele>341</ele>
        <time>2022-03-06T12:18:20Z</time>
      </trkpt>
      <trkpt lat="44.53126" lon="4.52838">
        <ele>340</ele>
        <time>2022-03-06T12:18:25Z</time>
      </trkpt>
      <trkpt lat="44.53124" lon="4.52837">
        <ele>340</ele>
        <time>2022-03-06T12:18:29Z</time>
      </trkpt>
      <trkpt lat="44.53122" lon="4.52836">
        <ele>340</ele>
        <time>2022-03-06T12:18:36Z</time>
      </trkpt>
      <trkpt lat="44.5312" lon="4.52833">
        <ele>340</ele>
        <time>2022-03-06T12:18:47Z</time>
      </trkpt>
      <trkpt lat="44.53118" lon="4.52832">
        <ele>341</ele>
        <time>2022-03-06T12:18:52Z</time>
      </trkpt>
      <trkpt lat="44.53112" lon="4.52832">
        <ele>341</ele>
        <time>2022-03-06T12:19:02Z</time>
      </trkpt>
      <trkpt lat="44.53106" lon="4.52829">
        <ele>343</ele>
        <time>2022-03-06T12:19:10Z</time>
      </trkpt>
      <trkpt lat="44.53103" lon="4.5283">
        <ele>343</ele>
        <time>2022-03-06T12:19:13Z</time>
      </trkpt>
      <trkpt lat="44.53097" lon="4.52827">
        <ele>345</ele>
        <time>2022-03-06T12:19:27Z</time>
      </trkpt>
      <trkpt lat="44.53089" lon="4.52825">
        <ele>346</ele>
        <time>2022-03-06T12:19:36Z</time>
      </trkpt>
      <trkpt lat="44.53076" lon="4.52823">
        <ele>351</ele>
        <time>2022-03-06T12:19:49Z</time>
      </trkpt>
      <trkpt lat="44.53074" lon="4.52822">
        <ele>351</ele>
        <time>2022-03-06T12:19:53Z</time>
      </trkpt>
      <trkpt lat="44.53072" lon="4.52823">
        <ele>351</ele>
        <time>2022-03-06T12:19:56Z</time>
      </trkpt>
      <trkpt lat="44.53069" lon="4.52822">
        <ele>352</ele>
        <time>2022-03-06T12:19:59Z</time>
      </trkpt>
      <trkpt lat="44.53066" lon="4.52823">
        <ele>351</ele>
        <time>2022-03-06T12:20:01Z</time>
      </trkpt>
      <trkpt lat="44.53063" lon="4.52823">
        <ele>352</ele>
        <time>2022-03-06T12:20:04Z</time>
      </trkpt>
      <trkpt lat="44.5306" lon="4.52823">
        <ele>352</ele>
        <time>2022-03-06T12:20:08Z</time>
      </trkpt>
      <trkpt lat="44.53041" lon="4.52817">
        <ele>354</ele>
        <time>2022-03-06T12:20:31Z</time>
      </trkpt>
      <trkpt lat="44.53034" lon="4.52813">
        <ele>355</ele>
        <time>2022-03-06T12:20:42Z</time>
      </trkpt>
      <trkpt lat="44.53031" lon="4.52808">
        <ele>357</ele>
        <time>2022-03-06T12:20:49Z</time>
      </trkpt>
      <trkpt lat="44.53028" lon="4.52807">
        <ele>358</ele>
        <time>2022-03-06T12:20:52Z</time>
      </trkpt>
      <trkpt lat="44.53026" lon="4.52805">
        <ele>358</ele>
        <time>2022-03-06T12:20:56Z</time>
      </trkpt>
      <trkpt lat="44.53024" lon="4.52805">
        <ele>359</ele>
        <time>2022-03-06T12:20:59Z</time>
      </trkpt>
      <trkpt lat="44.53019" lon="4.52803">
        <ele>360</ele>
        <time>2022-03-06T12:21:06Z</time>
      </trkpt>
      <trkpt lat="44.53014" lon="4.52801">
        <ele>360</ele>
        <time>2022-03-06T12:21:12Z</time>
      </trkpt>
      <trkpt lat="44.53012" lon="4.52798">
        <ele>359</ele>
        <time>2022-03-06T12:21:15Z</time>
      </trkpt>
      <trkpt lat="44.53007" lon="4.52796">
        <ele>358</ele>
        <time>2022-03-06T12:21:21Z</time>
      </trkpt>
      <trkpt lat="44.53008" lon="4.52798">
        <ele>359</ele>
        <time>2022-03-06T12:21:30Z</time>
      </trkpt>
      <trkpt lat="44.53008" lon="4.52797">
        <ele>361</ele>
        <time>2022-03-06T12:21:39Z</time>
      </trkpt>
      <trkpt lat="44.53005" lon="4.52795">
        <ele>362</ele>
        <time>2022-03-06T12:21:44Z</time>
      </trkpt>
      <trkpt lat="44.53004" lon="4.52793">
        <ele>364</ele>
        <time>2022-03-06T12:21:47Z</time>
      </trkpt>
      <trkpt lat="44.53001" lon="4.52791">
        <ele>367</ele>
        <time>2022-03-06T12:22:03Z</time>
      </trkpt>
      <trkpt lat="44.53002" lon="4.52792">
        <ele>367</ele>
        <time>2022-03-06T12:22:52Z</time>
      </trkpt>
      <trkpt lat="44.53001" lon="4.52787">
        <ele>368</ele>
        <time>2022-03-06T12:24:07Z</time>
      </trkpt>
      <trkpt lat="44.52997" lon="4.52778">
        <ele>368</ele>
        <time>2022-03-06T12:24:18Z</time>
      </trkpt>
      <trkpt lat="44.52996" lon="4.52773">
        <ele>368</ele>
        <time>2022-03-06T12:24:22Z</time>
      </trkpt>
      <trkpt lat="44.52992" lon="4.52764">
        <ele>366</ele>
        <time>2022-03-06T12:24:36Z</time>
      </trkpt>
      <trkpt lat="44.52988" lon="4.5276">
        <ele>367</ele>
        <time>2022-03-06T12:24:42Z</time>
      </trkpt>
      <trkpt lat="44.52979" lon="4.52754">
        <ele>366</ele>
        <time>2022-03-06T12:24:59Z</time>
      </trkpt>
      <trkpt lat="44.52971" lon="4.52756">
        <ele>366</ele>
        <time>2022-03-06T12:25:11Z</time>
      </trkpt>
      <trkpt lat="44.52967" lon="4.52758">
        <ele>368</ele>
        <time>2022-03-06T12:25:17Z</time>
      </trkpt>
      <trkpt lat="44.52964" lon="4.52757">
        <ele>369</ele>
        <time>2022-03-06T12:25:31Z</time>
      </trkpt>
      <trkpt lat="44.5296" lon="4.52757">
        <ele>371</ele>
        <time>2022-03-06T12:25:37Z</time>
      </trkpt>
      <trkpt lat="44.52956" lon="4.52758">
        <ele>371</ele>
        <time>2022-03-06T12:25:43Z</time>
      </trkpt>
      <trkpt lat="44.52952" lon="4.52758">
        <ele>371</ele>
        <time>2022-03-06T12:25:47Z</time>
      </trkpt>
      <trkpt lat="44.52947" lon="4.52767">
        <ele>370</ele>
        <time>2022-03-06T12:25:56Z</time>
      </trkpt>
      <trkpt lat="44.52943" lon="4.52767">
        <ele>370</ele>
        <time>2022-03-06T12:25:59Z</time>
      </trkpt>
      <trkpt lat="44.52938" lon="4.52768">
        <ele>369</ele>
        <time>2022-03-06T12:26:06Z</time>
      </trkpt>
      <trkpt lat="44.52933" lon="4.5277">
        <ele>368</ele>
        <time>2022-03-06T12:26:14Z</time>
      </trkpt>
      <trkpt lat="44.52929" lon="4.5277">
        <ele>368</ele>
        <time>2022-03-06T12:26:18Z</time>
      </trkpt>
      <trkpt lat="44.52924" lon="4.52772">
        <ele>367</ele>
        <time>2022-03-06T12:26:23Z</time>
      </trkpt>
      <trkpt lat="44.5291" lon="4.52773">
        <ele>368</ele>
        <time>2022-03-06T12:26:35Z</time>
      </trkpt>
      <trkpt lat="44.52894" lon="4.52776">
        <ele>367</ele>
        <time>2022-03-06T12:26:52Z</time>
      </trkpt>
      <trkpt lat="44.52883" lon="4.52776">
        <ele>365</ele>
        <time>2022-03-06T12:27:03Z</time>
      </trkpt>
      <trkpt lat="44.5288" lon="4.52776">
        <ele>366</ele>
        <time>2022-03-06T12:27:07Z</time>
      </trkpt>
      <trkpt lat="44.5288" lon="4.52778">
        <ele>367</ele>
        <time>2022-03-06T12:27:39Z</time>
      </trkpt>
      <trkpt lat="44.52879" lon="4.52778">
        <ele>368</ele>
        <time>2022-03-06T12:28:32Z</time>
      </trkpt>
      <trkpt lat="44.52877" lon="4.52776">
        <ele>368</ele>
        <time>2022-03-06T12:28:53Z</time>
      </trkpt>
      <trkpt lat="44.52872" lon="4.52777">
        <ele>368</ele>
        <time>2022-03-06T12:29:00Z</time>
      </trkpt>
      <trkpt lat="44.5287" lon="4.52776">
        <ele>369</ele>
        <time>2022-03-06T12:29:03Z</time>
      </trkpt>
      <trkpt lat="44.52867" lon="4.52776">
        <ele>369</ele>
        <time>2022-03-06T12:29:06Z</time>
      </trkpt>
      <trkpt lat="44.52865" lon="4.52778">
        <ele>369</ele>
        <time>2022-03-06T12:29:09Z</time>
      </trkpt>
      <trkpt lat="44.52862" lon="4.52778">
        <ele>368</ele>
        <time>2022-03-06T12:29:12Z</time>
      </trkpt>
      <trkpt lat="44.52857" lon="4.52777">
        <ele>368</ele>
        <time>2022-03-06T12:29:17Z</time>
      </trkpt>
      <trkpt lat="44.52854" lon="4.52778">
        <ele>368</ele>
        <time>2022-03-06T12:29:20Z</time>
      </trkpt>
      <trkpt lat="44.52851" lon="4.52778">
        <ele>369</ele>
        <time>2022-03-06T12:29:23Z</time>
      </trkpt>
      <trkpt lat="44.52849" lon="4.52777">
        <ele>370</ele>
        <time>2022-03-06T12:29:26Z</time>
      </trkpt>
      <trkpt lat="44.52841" lon="4.52778">
        <ele>369</ele>
        <time>2022-03-06T12:29:34Z</time>
      </trkpt>
      <trkpt lat="44.52838" lon="4.52777">
        <ele>367</ele>
        <time>2022-03-06T12:29:38Z</time>
      </trkpt>
      <trkpt lat="44.52832" lon="4.5278">
        <ele>365</ele>
        <time>2022-03-06T12:29:44Z</time>
      </trkpt>
      <trkpt lat="44.52827" lon="4.52781">
        <ele>365</ele>
        <time>2022-03-06T12:29:47Z</time>
      </trkpt>
      <trkpt lat="44.52825" lon="4.52783">
        <ele>365</ele>
        <time>2022-03-06T12:29:50Z</time>
      </trkpt>
      <trkpt lat="44.52822" lon="4.52787">
        <ele>365</ele>
        <time>2022-03-06T12:29:55Z</time>
      </trkpt>
      <trkpt lat="44.52819" lon="4.52786">
        <ele>365</ele>
        <time>2022-03-06T12:29:57Z</time>
      </trkpt>
      <trkpt lat="44.52815" lon="4.52787">
        <ele>364</ele>
        <time>2022-03-06T12:30:03Z</time>
      </trkpt>
      <trkpt lat="44.52811" lon="4.52786">
        <ele>363</ele>
        <time>2022-03-06T12:30:06Z</time>
      </trkpt>
      <trkpt lat="44.52801" lon="4.52787">
        <ele>361</ele>
        <time>2022-03-06T12:30:12Z</time>
      </trkpt>
      <trkpt lat="44.52798" lon="4.52789">
        <ele>360</ele>
        <time>2022-03-06T12:30:21Z</time>
      </trkpt>
      <trkpt lat="44.52795" lon="4.52787">
        <ele>359</ele>
        <time>2022-03-06T12:30:25Z</time>
      </trkpt>
      <trkpt lat="44.52791" lon="4.52786">
        <ele>360</ele>
        <time>2022-03-06T12:30:28Z</time>
      </trkpt>
      <trkpt lat="44.52787" lon="4.52788">
        <ele>361</ele>
        <time>2022-03-06T12:30:33Z</time>
      </trkpt>
      <trkpt lat="44.52784" lon="4.52783">
        <ele>362</ele>
        <time>2022-03-06T12:30:42Z</time>
      </trkpt>
      <trkpt lat="44.52781" lon="4.52782">
        <ele>362</ele>
        <time>2022-03-06T12:30:49Z</time>
      </trkpt>
      <trkpt lat="44.5278" lon="4.5278">
        <ele>362</ele>
        <time>2022-03-06T12:30:56Z</time>
      </trkpt>
      <trkpt lat="44.52778" lon="4.52778">
        <ele>362</ele>
        <time>2022-03-06T12:31:03Z</time>
      </trkpt>
      <trkpt lat="44.52777" lon="4.52776">
        <ele>365</ele>
        <time>2022-03-06T12:31:24Z</time>
      </trkpt>
      <trkpt lat="44.52766" lon="4.52773">
        <ele>367</ele>
        <time>2022-03-06T12:31:47Z</time>
      </trkpt>
      <trkpt lat="44.52765" lon="4.52773">
        <ele>365</ele>
        <time>2022-03-06T12:32:31Z</time>
      </trkpt>
      <trkpt lat="44.52763" lon="4.52774">
        <ele>365</ele>
        <time>2022-03-06T12:32:34Z</time>
      </trkpt>
      <trkpt lat="44.5276" lon="4.52774">
        <ele>364</ele>
        <time>2022-03-06T12:32:37Z</time>
      </trkpt>
      <trkpt lat="44.52739" lon="4.52773">
        <ele>362</ele>
        <time>2022-03-06T12:32:57Z</time>
      </trkpt>
      <trkpt lat="44.52736" lon="4.52775">
        <ele>360</ele>
        <time>2022-03-06T12:33:03Z</time>
      </trkpt>
      <trkpt lat="44.52734" lon="4.52777">
        <ele>359</ele>
        <time>2022-03-06T12:33:10Z</time>
      </trkpt>
      <trkpt lat="44.52732" lon="4.52779">
        <ele>359</ele>
        <time>2022-03-06T12:33:13Z</time>
      </trkpt>
      <trkpt lat="44.52728" lon="4.52785">
        <ele>358</ele>
        <time>2022-03-06T12:33:18Z</time>
      </trkpt>
      <trkpt lat="44.52726" lon="4.52787">
        <ele>359</ele>
        <time>2022-03-06T12:33:22Z</time>
      </trkpt>
      <trkpt lat="44.52722" lon="4.52786">
        <ele>359</ele>
        <time>2022-03-06T12:33:24Z</time>
      </trkpt>
      <trkpt lat="44.52719" lon="4.5279">
        <ele>358</ele>
        <time>2022-03-06T12:33:28Z</time>
      </trkpt>
      <trkpt lat="44.52715" lon="4.52789">
        <ele>357</ele>
        <time>2022-03-06T12:33:33Z</time>
      </trkpt>
      <trkpt lat="44.52708" lon="4.52797">
        <ele>356</ele>
        <time>2022-03-06T12:33:40Z</time>
      </trkpt>
      <trkpt lat="44.52706" lon="4.52801">
        <ele>356</ele>
        <time>2022-03-06T12:33:44Z</time>
      </trkpt>
      <trkpt lat="44.52701" lon="4.52801">
        <ele>356</ele>
        <time>2022-03-06T12:33:48Z</time>
      </trkpt>
      <trkpt lat="44.52692" lon="4.52807">
        <ele>353</ele>
        <time>2022-03-06T12:33:59Z</time>
      </trkpt>
      <trkpt lat="44.52682" lon="4.52806">
        <ele>351</ele>
        <time>2022-03-06T12:34:05Z</time>
      </trkpt>
      <trkpt lat="44.52678" lon="4.52808">
        <ele>351</ele>
        <time>2022-03-06T12:34:08Z</time>
      </trkpt>
      <trkpt lat="44.52679" lon="4.52813">
        <ele>351</ele>
        <time>2022-03-06T12:34:15Z</time>
      </trkpt>
      <trkpt lat="44.52676" lon="4.52815">
        <ele>352</ele>
        <time>2022-03-06T12:34:39Z</time>
      </trkpt>
      <trkpt lat="44.52674" lon="4.52815">
        <ele>353</ele>
        <time>2022-03-06T12:34:42Z</time>
      </trkpt>
      <trkpt lat="44.5267" lon="4.52821">
        <ele>353</ele>
        <time>2022-03-06T12:34:49Z</time>
      </trkpt>
      <trkpt lat="44.52667" lon="4.52822">
        <ele>352</ele>
        <time>2022-03-06T12:34:52Z</time>
      </trkpt>
      <trkpt lat="44.52664" lon="4.52824">
        <ele>353</ele>
        <time>2022-03-06T12:34:55Z</time>
      </trkpt>
      <trkpt lat="44.52662" lon="4.52826">
        <ele>353</ele>
        <time>2022-03-06T12:34:58Z</time>
      </trkpt>
      <trkpt lat="44.52661" lon="4.52826">
        <ele>353</ele>
        <time>2022-03-06T12:35:02Z</time>
      </trkpt>
      <trkpt lat="44.5265" lon="4.52834">
        <ele>353</ele>
        <time>2022-03-06T12:35:14Z</time>
      </trkpt>
      <trkpt lat="44.52633" lon="4.52844">
        <ele>351</ele>
        <time>2022-03-06T12:35:31Z</time>
      </trkpt>
      <trkpt lat="44.52625" lon="4.52849">
        <ele>351</ele>
        <time>2022-03-06T12:35:41Z</time>
      </trkpt>
      <trkpt lat="44.52622" lon="4.5285">
        <ele>351</ele>
        <time>2022-03-06T12:35:43Z</time>
      </trkpt>
      <trkpt lat="44.52595" lon="4.52867">
        <ele>350</ele>
        <time>2022-03-06T12:36:08Z</time>
      </trkpt>
      <trkpt lat="44.52589" lon="4.52869">
        <ele>351</ele>
        <time>2022-03-06T12:36:13Z</time>
      </trkpt>
      <trkpt lat="44.52586" lon="4.52872">
        <ele>351</ele>
        <time>2022-03-06T12:36:15Z</time>
      </trkpt>
      <trkpt lat="44.52584" lon="4.52874">
        <ele>350</ele>
        <time>2022-03-06T12:36:17Z</time>
      </trkpt>
      <trkpt lat="44.5258" lon="4.52873">
        <ele>351</ele>
        <time>2022-03-06T12:36:19Z</time>
      </trkpt>
      <trkpt lat="44.52571" lon="4.52877">
        <ele>350</ele>
        <time>2022-03-06T12:36:27Z</time>
      </trkpt>
      <trkpt lat="44.52565" lon="4.52881">
        <ele>349</ele>
        <time>2022-03-06T12:36:33Z</time>
      </trkpt>
      <trkpt lat="44.52559" lon="4.52885">
        <ele>349</ele>
        <time>2022-03-06T12:36:39Z</time>
      </trkpt>
      <trkpt lat="44.5255" lon="4.52893">
        <ele>348</ele>
        <time>2022-03-06T12:36:49Z</time>
      </trkpt>
      <trkpt lat="44.52545" lon="4.52893">
        <ele>348</ele>
        <time>2022-03-06T12:36:54Z</time>
      </trkpt>
      <trkpt lat="44.52542" lon="4.52894">
        <ele>349</ele>
        <time>2022-03-06T12:36:57Z</time>
      </trkpt>
      <trkpt lat="44.52521" lon="4.52907">
        <ele>343</ele>
        <time>2022-03-06T12:37:18Z</time>
      </trkpt>
      <trkpt lat="44.52503" lon="4.52914">
        <ele>343</ele>
        <time>2022-03-06T12:37:35Z</time>
      </trkpt>
      <trkpt lat="44.52498" lon="4.52915">
        <ele>342</ele>
        <time>2022-03-06T12:37:39Z</time>
      </trkpt>
      <trkpt lat="44.52492" lon="4.52912">
        <ele>342</ele>
        <time>2022-03-06T12:37:45Z</time>
      </trkpt>
      <trkpt lat="44.52486" lon="4.52909">
        <ele>342</ele>
        <time>2022-03-06T12:37:51Z</time>
      </trkpt>
      <trkpt lat="44.52484" lon="4.52907">
        <ele>343</ele>
        <time>2022-03-06T12:37:53Z</time>
      </trkpt>
      <trkpt lat="44.52476" lon="4.52902">
        <ele>341</ele>
        <time>2022-03-06T12:38:01Z</time>
      </trkpt>
      <trkpt lat="44.52473" lon="4.52902">
        <ele>340</ele>
        <time>2022-03-06T12:38:14Z</time>
      </trkpt>
      <trkpt lat="44.5247" lon="4.52903">
        <ele>340</ele>
        <time>2022-03-06T12:38:24Z</time>
      </trkpt>
      <trkpt lat="44.52462" lon="4.5291">
        <ele>339</ele>
        <time>2022-03-06T12:38:47Z</time>
      </trkpt>
      <trkpt lat="44.52452" lon="4.52924">
        <ele>336</ele>
        <time>2022-03-06T12:39:16Z</time>
      </trkpt>
      <trkpt lat="44.52446" lon="4.52942">
        <ele>335</ele>
        <time>2022-03-06T12:39:36Z</time>
      </trkpt>
      <trkpt lat="44.52446" lon="4.52945">
        <ele>335</ele>
        <time>2022-03-06T12:39:44Z</time>
      </trkpt>
      <trkpt lat="44.52444" lon="4.52948">
        <ele>335</ele>
        <time>2022-03-06T12:39:47Z</time>
      </trkpt>
      <trkpt lat="44.52442" lon="4.52951">
        <ele>332</ele>
        <time>2022-03-06T12:39:52Z</time>
      </trkpt>
      <trkpt lat="44.52442" lon="4.52955">
        <ele>332</ele>
        <time>2022-03-06T12:39:57Z</time>
      </trkpt>
      <trkpt lat="44.52437" lon="4.5298">
        <ele>323</ele>
        <time>2022-03-06T12:40:29Z</time>
      </trkpt>
      <trkpt lat="44.52435" lon="4.5299">
        <ele>318</ele>
        <time>2022-03-06T12:40:44Z</time>
      </trkpt>
      <trkpt lat="44.52435" lon="4.52993">
        <ele>317</ele>
        <time>2022-03-06T12:40:48Z</time>
      </trkpt>
      <trkpt lat="44.52435" lon="4.52997">
        <ele>318</ele>
        <time>2022-03-06T12:40:54Z</time>
      </trkpt>
      <trkpt lat="44.52434" lon="4.53">
        <ele>317</ele>
        <time>2022-03-06T12:41:00Z</time>
      </trkpt>
      <trkpt lat="44.52431" lon="4.53">
        <ele>317</ele>
        <time>2022-03-06T12:41:05Z</time>
      </trkpt>
      <trkpt lat="44.52425" lon="4.53005">
        <ele>313</ele>
        <time>2022-03-06T12:41:18Z</time>
      </trkpt>
      <trkpt lat="44.52423" lon="4.5301">
        <ele>313</ele>
        <time>2022-03-06T12:41:24Z</time>
      </trkpt>
      <trkpt lat="44.52422" lon="4.53014">
        <ele>312</ele>
        <time>2022-03-06T12:41:29Z</time>
      </trkpt>
      <trkpt lat="44.52421" lon="4.53017">
        <ele>312</ele>
        <time>2022-03-06T12:41:34Z</time>
      </trkpt>
      <trkpt lat="44.5242" lon="4.5302">
        <ele>311</ele>
        <time>2022-03-06T12:41:39Z</time>
      </trkpt>
      <trkpt lat="44.52419" lon="4.53022">
        <ele>310</ele>
        <time>2022-03-06T12:41:43Z</time>
      </trkpt>
      <trkpt lat="44.52418" lon="4.53024">
        <ele>309</ele>
        <time>2022-03-06T12:41:48Z</time>
      </trkpt>
      <trkpt lat="44.52418" lon="4.53028">
        <ele>308</ele>
        <time>2022-03-06T12:41:52Z</time>
      </trkpt>
      <trkpt lat="44.52419" lon="4.5303">
        <ele>308</ele>
        <time>2022-03-06T12:41:55Z</time>
      </trkpt>
      <trkpt lat="44.52418" lon="4.53033">
        <ele>308</ele>
        <time>2022-03-06T12:41:58Z</time>
      </trkpt>
      <trkpt lat="44.52419" lon="4.53036">
        <ele>310</ele>
        <time>2022-03-06T12:42:04Z</time>
      </trkpt>
      <trkpt lat="44.52419" lon="4.53041">
        <ele>308</ele>
        <time>2022-03-06T12:42:07Z</time>
      </trkpt>
      <trkpt lat="44.5242" lon="4.53045">
        <ele>308</ele>
        <time>2022-03-06T12:42:09Z</time>
      </trkpt>
      <trkpt lat="44.52422" lon="4.53048">
        <ele>307</ele>
        <time>2022-03-06T12:42:11Z</time>
      </trkpt>
      <trkpt lat="44.52427" lon="4.53053">
        <ele>306</ele>
        <time>2022-03-06T12:42:18Z</time>
      </trkpt>
      <trkpt lat="44.52429" lon="4.53054">
        <ele>305</ele>
        <time>2022-03-06T12:42:22Z</time>
      </trkpt>
      <trkpt lat="44.52435" lon="4.53058">
        <ele>304</ele>
        <time>2022-03-06T12:42:34Z</time>
      </trkpt>
      <trkpt lat="44.52439" lon="4.53061">
        <ele>301</ele>
        <time>2022-03-06T12:42:44Z</time>
      </trkpt>
      <trkpt lat="44.5244" lon="4.53064">
        <ele>300</ele>
        <time>2022-03-06T12:42:48Z</time>
      </trkpt>
      <trkpt lat="44.52439" lon="4.53066">
        <ele>297</ele>
        <time>2022-03-06T12:43:26Z</time>
      </trkpt>
      <trkpt lat="44.52439" lon="4.53068">
        <ele>296</ele>
        <time>2022-03-06T12:43:28Z</time>
      </trkpt>
      <trkpt lat="44.52438" lon="4.53071">
        <ele>295</ele>
        <time>2022-03-06T12:43:30Z</time>
      </trkpt>
      <trkpt lat="44.52437" lon="4.53073">
        <ele>296</ele>
        <time>2022-03-06T12:43:32Z</time>
      </trkpt>
      <trkpt lat="44.52435" lon="4.53075">
        <ele>296</ele>
        <time>2022-03-06T12:43:35Z</time>
      </trkpt>
      <trkpt lat="44.52428" lon="4.53077">
        <ele>295</ele>
        <time>2022-03-06T12:43:43Z</time>
      </trkpt>
      <trkpt lat="44.52426" lon="4.53076">
        <ele>295</ele>
        <time>2022-03-06T12:43:45Z</time>
      </trkpt>
      <trkpt lat="44.52423" lon="4.53074">
        <ele>294</ele>
        <time>2022-03-06T12:43:47Z</time>
      </trkpt>
      <trkpt lat="44.52421" lon="4.53075">
        <ele>295</ele>
        <time>2022-03-06T12:43:50Z</time>
      </trkpt>
      <trkpt lat="44.52419" lon="4.53075">
        <ele>295</ele>
        <time>2022-03-06T12:43:52Z</time>
      </trkpt>
      <trkpt lat="44.52391" lon="4.53066">
        <ele>296</ele>
        <time>2022-03-06T12:44:16Z</time>
      </trkpt>
      <trkpt lat="44.5237" lon="4.53054">
        <ele>296</ele>
        <time>2022-03-06T12:44:35Z</time>
      </trkpt>
      <trkpt lat="44.52362" lon="4.53051">
        <ele>296</ele>
        <time>2022-03-06T12:44:43Z</time>
      </trkpt>
      <trkpt lat="44.52357" lon="4.53049">
        <ele>296</ele>
        <time>2022-03-06T12:44:47Z</time>
      </trkpt>
      <trkpt lat="44.52341" lon="4.53046">
        <ele>296</ele>
        <time>2022-03-06T12:45:00Z</time>
      </trkpt>
      <trkpt lat="44.52336" lon="4.53046">
        <ele>297</ele>
        <time>2022-03-06T12:45:06Z</time>
      </trkpt>
      <trkpt lat="44.52332" lon="4.53046">
        <ele>296</ele>
        <time>2022-03-06T12:45:10Z</time>
      </trkpt>
      <trkpt lat="44.5233" lon="4.53047">
        <ele>296</ele>
        <time>2022-03-06T12:45:12Z</time>
      </trkpt>
      <trkpt lat="44.52328" lon="4.53048">
        <ele>296</ele>
        <time>2022-03-06T12:45:14Z</time>
      </trkpt>
      <trkpt lat="44.52326" lon="4.53054">
        <ele>295</ele>
        <time>2022-03-06T12:45:18Z</time>
      </trkpt>
      <trkpt lat="44.52325" lon="4.53082">
        <ele>292</ele>
        <time>2022-03-06T12:45:35Z</time>
      </trkpt>
      <trkpt lat="44.52325" lon="4.53088">
        <ele>292</ele>
        <time>2022-03-06T12:45:39Z</time>
      </trkpt>
      <trkpt lat="44.52323" lon="4.53098">
        <ele>292</ele>
        <time>2022-03-06T12:45:45Z</time>
      </trkpt>
      <trkpt lat="44.52328" lon="4.53129">
        <ele>291</ele>
        <time>2022-03-06T12:46:06Z</time>
      </trkpt>
      <trkpt lat="44.52328" lon="4.53134">
        <ele>291</ele>
        <time>2022-03-06T12:46:10Z</time>
      </trkpt>
      <trkpt lat="44.52326" lon="4.53137">
        <ele>290</ele>
        <time>2022-03-06T12:46:14Z</time>
      </trkpt>
      <trkpt lat="44.52328" lon="4.53141">
        <ele>291</ele>
        <time>2022-03-06T12:46:38Z</time>
      </trkpt>
      <trkpt lat="44.52317" lon="4.53145">
        <ele>290</ele>
        <time>2022-03-06T12:46:55Z</time>
      </trkpt>
      <trkpt lat="44.52314" lon="4.53144">
        <ele>290</ele>
        <time>2022-03-06T12:46:58Z</time>
      </trkpt>
      <trkpt lat="44.52311" lon="4.5314">
        <ele>288</ele>
        <time>2022-03-06T12:47:05Z</time>
      </trkpt>
      <trkpt lat="44.52307" lon="4.53139">
        <ele>289</ele>
        <time>2022-03-06T12:47:10Z</time>
      </trkpt>
      <trkpt lat="44.52303" lon="4.5314">
        <ele>291</ele>
        <time>2022-03-06T12:47:15Z</time>
      </trkpt>
      <trkpt lat="44.52298" lon="4.53139">
        <ele>293</ele>
        <time>2022-03-06T12:47:19Z</time>
      </trkpt>
      <trkpt lat="44.52289" lon="4.53138">
        <ele>295</ele>
        <time>2022-03-06T12:47:29Z</time>
      </trkpt>
      <trkpt lat="44.52283" lon="4.53135">
        <ele>297</ele>
        <time>2022-03-06T12:47:41Z</time>
      </trkpt>
      <trkpt lat="44.52272" lon="4.53137">
        <ele>299</ele>
        <time>2022-03-06T12:47:53Z</time>
      </trkpt>
      <trkpt lat="44.52264" lon="4.53143">
        <ele>299</ele>
        <time>2022-03-06T12:48:02Z</time>
      </trkpt>
      <trkpt lat="44.52259" lon="4.53145">
        <ele>300</ele>
        <time>2022-03-06T12:48:12Z</time>
      </trkpt>
      <trkpt lat="44.52253" lon="4.53146">
        <ele>302</ele>
        <time>2022-03-06T12:48:18Z</time>
      </trkpt>
      <trkpt lat="44.5225" lon="4.53145">
        <ele>303</ele>
        <time>2022-03-06T12:48:21Z</time>
      </trkpt>
      <trkpt lat="44.52242" lon="4.53145">
        <ele>307</ele>
        <time>2022-03-06T12:48:30Z</time>
      </trkpt>
      <trkpt lat="44.52227" lon="4.53141">
        <ele>311</ele>
        <time>2022-03-06T12:48:44Z</time>
      </trkpt>
      <trkpt lat="44.52223" lon="4.53142">
        <ele>312</ele>
        <time>2022-03-06T12:48:49Z</time>
      </trkpt>
      <trkpt lat="44.52219" lon="4.53145">
        <ele>313</ele>
        <time>2022-03-06T12:48:54Z</time>
      </trkpt>
      <trkpt lat="44.52214" lon="4.53143">
        <ele>312</ele>
        <time>2022-03-06T12:49:00Z</time>
      </trkpt>
      <trkpt lat="44.52211" lon="4.53141">
        <ele>312</ele>
        <time>2022-03-06T12:49:08Z</time>
      </trkpt>
      <trkpt lat="44.52208" lon="4.53141">
        <ele>313</ele>
        <time>2022-03-06T12:49:13Z</time>
      </trkpt>
      <trkpt lat="44.52204" lon="4.5314">
        <ele>313</ele>
        <time>2022-03-06T12:49:16Z</time>
      </trkpt>
      <trkpt lat="44.52196" lon="4.53138">
        <ele>315</ele>
        <time>2022-03-06T12:49:29Z</time>
      </trkpt>
      <trkpt lat="44.52193" lon="4.53139">
        <ele>317</ele>
        <time>2022-03-06T12:49:34Z</time>
      </trkpt>
      <trkpt lat="44.52183" lon="4.53139">
        <ele>320</ele>
        <time>2022-03-06T12:49:47Z</time>
      </trkpt>
      <trkpt lat="44.52182" lon="4.53143">
        <ele>322</ele>
        <time>2022-03-06T12:49:54Z</time>
      </trkpt>
      <trkpt lat="44.52177" lon="4.53143">
        <ele>323</ele>
        <time>2022-03-06T12:49:59Z</time>
      </trkpt>
      <trkpt lat="44.52169" lon="4.53149">
        <ele>324</ele>
        <time>2022-03-06T12:50:19Z</time>
      </trkpt>
      <trkpt lat="44.52156" lon="4.53148">
        <ele>324</ele>
        <time>2022-03-06T12:50:34Z</time>
      </trkpt>
      <trkpt lat="44.52151" lon="4.53152">
        <ele>322</ele>
        <time>2022-03-06T12:50:50Z</time>
      </trkpt>
      <trkpt lat="44.52144" lon="4.53152">
        <ele>323</ele>
        <time>2022-03-06T12:50:55Z</time>
      </trkpt>
      <trkpt lat="44.52131" lon="4.5315">
        <ele>323</ele>
        <time>2022-03-06T12:51:02Z</time>
      </trkpt>
      <trkpt lat="44.52125" lon="4.53152">
        <ele>323</ele>
        <time>2022-03-06T12:51:08Z</time>
      </trkpt>
      <trkpt lat="44.52119" lon="4.53153">
        <ele>322</ele>
        <time>2022-03-06T12:51:15Z</time>
      </trkpt>
      <trkpt lat="44.52113" lon="4.53149">
        <ele>323</ele>
        <time>2022-03-06T12:51:24Z</time>
      </trkpt>
      <trkpt lat="44.52105" lon="4.53148">
        <ele>323</ele>
        <time>2022-03-06T12:51:32Z</time>
      </trkpt>
      <trkpt lat="44.52098" lon="4.53146">
        <ele>326</ele>
        <time>2022-03-06T12:51:40Z</time>
      </trkpt>
      <trkpt lat="44.52093" lon="4.53148">
        <ele>326</ele>
        <time>2022-03-06T12:51:47Z</time>
      </trkpt>
      <trkpt lat="44.52087" lon="4.53152">
        <ele>327</ele>
        <time>2022-03-06T12:51:52Z</time>
      </trkpt>
      <trkpt lat="44.52082" lon="4.53151">
        <ele>327</ele>
        <time>2022-03-06T12:51:59Z</time>
      </trkpt>
      <trkpt lat="44.52076" lon="4.53146">
        <ele>328</ele>
        <time>2022-03-06T12:52:04Z</time>
      </trkpt>
      <trkpt lat="44.5207" lon="4.5315">
        <ele>328</ele>
        <time>2022-03-06T12:52:11Z</time>
      </trkpt>
      <trkpt lat="44.5206" lon="4.53148">
        <ele>333</ele>
        <time>2022-03-06T12:52:23Z</time>
      </trkpt>
      <trkpt lat="44.52057" lon="4.53146">
        <ele>338</ele>
        <time>2022-03-06T12:52:28Z</time>
      </trkpt>
      <trkpt lat="44.52042" lon="4.53139">
        <ele>345</ele>
        <time>2022-03-06T12:52:54Z</time>
      </trkpt>
      <trkpt lat="44.52037" lon="4.53139">
        <ele>346</ele>
        <time>2022-03-06T12:53:00Z</time>
      </trkpt>
      <trkpt lat="44.52029" lon="4.53134">
        <ele>349</ele>
        <time>2022-03-06T12:53:12Z</time>
      </trkpt>
      <trkpt lat="44.52025" lon="4.53132">
        <ele>352</ele>
        <time>2022-03-06T12:53:17Z</time>
      </trkpt>
      <trkpt lat="44.52018" lon="4.53129">
        <ele>352</ele>
        <time>2022-03-06T12:53:25Z</time>
      </trkpt>
      <trkpt lat="44.52015" lon="4.53127">
        <ele>353</ele>
        <time>2022-03-06T12:53:30Z</time>
      </trkpt>
      <trkpt lat="44.52011" lon="4.53125">
        <ele>354</ele>
        <time>2022-03-06T12:53:36Z</time>
      </trkpt>
      <trkpt lat="44.52007" lon="4.53124">
        <ele>355</ele>
        <time>2022-03-06T12:53:42Z</time>
      </trkpt>
      <trkpt lat="44.52003" lon="4.53121">
        <ele>356</ele>
        <time>2022-03-06T12:53:48Z</time>
      </trkpt>
      <trkpt lat="44.51996" lon="4.53118">
        <ele>358</ele>
        <time>2022-03-06T12:53:59Z</time>
      </trkpt>
      <trkpt lat="44.51993" lon="4.53117">
        <ele>357</ele>
        <time>2022-03-06T12:54:04Z</time>
      </trkpt>
      <trkpt lat="44.5199" lon="4.53113">
        <ele>357</ele>
        <time>2022-03-06T12:54:11Z</time>
      </trkpt>
      <trkpt lat="44.51981" lon="4.53109">
        <ele>356</ele>
        <time>2022-03-06T12:54:19Z</time>
      </trkpt>
      <trkpt lat="44.51978" lon="4.53107">
        <ele>356</ele>
        <time>2022-03-06T12:54:24Z</time>
      </trkpt>
      <trkpt lat="44.51974" lon="4.53107">
        <ele>357</ele>
        <time>2022-03-06T12:54:31Z</time>
      </trkpt>
      <trkpt lat="44.51965" lon="4.53106">
        <ele>359</ele>
        <time>2022-03-06T12:54:41Z</time>
      </trkpt>
      <trkpt lat="44.51962" lon="4.53105">
        <ele>361</ele>
        <time>2022-03-06T12:54:45Z</time>
      </trkpt>
      <trkpt lat="44.51955" lon="4.53105">
        <ele>362</ele>
        <time>2022-03-06T12:54:52Z</time>
      </trkpt>
      <trkpt lat="44.51951" lon="4.53106">
        <ele>362</ele>
        <time>2022-03-06T12:54:56Z</time>
      </trkpt>
      <trkpt lat="44.51941" lon="4.53104">
        <ele>368</ele>
        <time>2022-03-06T12:55:13Z</time>
      </trkpt>
      <trkpt lat="44.51938" lon="4.53103">
        <ele>368</ele>
        <time>2022-03-06T12:55:16Z</time>
      </trkpt>
      <trkpt lat="44.5193" lon="4.53104">
        <ele>370</ele>
        <time>2022-03-06T12:55:25Z</time>
      </trkpt>
      <trkpt lat="44.51927" lon="4.53107">
        <ele>371</ele>
        <time>2022-03-06T12:55:29Z</time>
      </trkpt>
      <trkpt lat="44.5192" lon="4.53108">
        <ele>370</ele>
        <time>2022-03-06T12:55:37Z</time>
      </trkpt>
      <trkpt lat="44.51917" lon="4.5311">
        <ele>370</ele>
        <time>2022-03-06T12:55:42Z</time>
      </trkpt>
      <trkpt lat="44.51909" lon="4.53111">
        <ele>367</ele>
        <time>2022-03-06T12:55:52Z</time>
      </trkpt>
      <trkpt lat="44.51895" lon="4.53126">
        <ele>369</ele>
        <time>2022-03-06T12:56:12Z</time>
      </trkpt>
      <trkpt lat="44.51891" lon="4.53128">
        <ele>371</ele>
        <time>2022-03-06T12:56:16Z</time>
      </trkpt>
      <trkpt lat="44.51887" lon="4.5313">
        <ele>373</ele>
        <time>2022-03-06T12:56:20Z</time>
      </trkpt>
      <trkpt lat="44.51883" lon="4.53133">
        <ele>374</ele>
        <time>2022-03-06T12:56:29Z</time>
      </trkpt>
      <trkpt lat="44.51876" lon="4.53134">
        <ele>376</ele>
        <time>2022-03-06T12:56:42Z</time>
      </trkpt>
      <trkpt lat="44.51872" lon="4.53135">
        <ele>376</ele>
        <time>2022-03-06T12:56:46Z</time>
      </trkpt>
      <trkpt lat="44.5187" lon="4.53136">
        <ele>377</ele>
        <time>2022-03-06T12:56:50Z</time>
      </trkpt>
      <trkpt lat="44.51867" lon="4.53136">
        <ele>377</ele>
        <time>2022-03-06T12:56:54Z</time>
      </trkpt>
      <trkpt lat="44.51865" lon="4.53137">
        <ele>379</ele>
        <time>2022-03-06T12:56:58Z</time>
      </trkpt>
      <trkpt lat="44.51863" lon="4.53139">
        <ele>380</ele>
        <time>2022-03-06T12:57:02Z</time>
      </trkpt>
      <trkpt lat="44.5186" lon="4.53139">
        <ele>381</ele>
        <time>2022-03-06T12:57:05Z</time>
      </trkpt>
      <trkpt lat="44.51855" lon="4.53137">
        <ele>382</ele>
        <time>2022-03-06T12:57:12Z</time>
      </trkpt>
      <trkpt lat="44.51851" lon="4.53138">
        <ele>383</ele>
        <time>2022-03-06T12:57:19Z</time>
      </trkpt>
      <trkpt lat="44.51851" lon="4.5314">
        <ele>382</ele>
        <time>2022-03-06T12:57:27Z</time>
      </trkpt>
      <trkpt lat="44.51849" lon="4.53138">
        <ele>382</ele>
        <time>2022-03-06T12:57:31Z</time>
      </trkpt>
      <trkpt lat="44.51848" lon="4.53138">
        <ele>383</ele>
        <time>2022-03-06T12:57:37Z</time>
      </trkpt>
      <trkpt lat="44.51845" lon="4.53138">
        <ele>383</ele>
        <time>2022-03-06T12:57:40Z</time>
      </trkpt>
      <trkpt lat="44.51831" lon="4.53134">
        <ele>384</ele>
        <time>2022-03-06T12:57:54Z</time>
      </trkpt>
      <trkpt lat="44.51826" lon="4.53134">
        <ele>384</ele>
        <time>2022-03-06T12:58:00Z</time>
      </trkpt>
      <trkpt lat="44.51822" lon="4.53131">
        <ele>384</ele>
        <time>2022-03-06T12:58:08Z</time>
      </trkpt>
      <trkpt lat="44.51823" lon="4.5313">
        <ele>385</ele>
        <time>2022-03-06T12:58:21Z</time>
      </trkpt>
      <trkpt lat="44.51826" lon="4.5313">
        <ele>386</ele>
        <time>2022-03-06T12:58:29Z</time>
      </trkpt>
      <trkpt lat="44.51824" lon="4.53127">
        <ele>390</ele>
        <time>2022-03-06T12:58:33Z</time>
      </trkpt>
      <trkpt lat="44.51823" lon="4.53127">
        <ele>392</ele>
        <time>2022-03-06T12:58:36Z</time>
      </trkpt>
      <trkpt lat="44.51819" lon="4.53128">
        <ele>392</ele>
        <time>2022-03-06T12:58:40Z</time>
      </trkpt>
      <trkpt lat="44.51803" lon="4.53125">
        <ele>390</ele>
        <time>2022-03-06T12:58:52Z</time>
      </trkpt>
      <trkpt lat="44.518" lon="4.53125">
        <ele>390</ele>
        <time>2022-03-06T12:58:55Z</time>
      </trkpt>
      <trkpt lat="44.51797" lon="4.53128">
        <ele>389</ele>
        <time>2022-03-06T12:58:59Z</time>
      </trkpt>
      <trkpt lat="44.51793" lon="4.53129">
        <ele>388</ele>
        <time>2022-03-06T12:59:02Z</time>
      </trkpt>
      <trkpt lat="44.51786" lon="4.53128">
        <ele>388</ele>
        <time>2022-03-06T12:59:08Z</time>
      </trkpt>
      <trkpt lat="44.51774" lon="4.53118">
        <ele>385</ele>
        <time>2022-03-06T12:59:19Z</time>
      </trkpt>
      <trkpt lat="44.51772" lon="4.53115">
        <ele>385</ele>
        <time>2022-03-06T12:59:22Z</time>
      </trkpt>
      <trkpt lat="44.51763" lon="4.53106">
        <ele>386</ele>
        <time>2022-03-06T12:59:32Z</time>
      </trkpt>
      <trkpt lat="44.51754" lon="4.53091">
        <ele>385</ele>
        <time>2022-03-06T12:59:48Z</time>
      </trkpt>
      <trkpt lat="44.51747" lon="4.53083">
        <ele>384</ele>
        <time>2022-03-06T12:59:56Z</time>
      </trkpt>
      <trkpt lat="44.51744" lon="4.53079">
        <ele>383</ele>
        <time>2022-03-06T13:00:00Z</time>
      </trkpt>
      <trkpt lat="44.51741" lon="4.53075">
        <ele>383</ele>
        <time>2022-03-06T13:00:04Z</time>
      </trkpt>
      <trkpt lat="44.5174" lon="4.53072">
        <ele>383</ele>
        <time>2022-03-06T13:00:06Z</time>
      </trkpt>
      <trkpt lat="44.51735" lon="4.53065">
        <ele>383</ele>
        <time>2022-03-06T13:00:15Z</time>
      </trkpt>
      <trkpt lat="44.51733" lon="4.53063">
        <ele>383</ele>
        <time>2022-03-06T13:00:21Z</time>
      </trkpt>
      <trkpt lat="44.51726" lon="4.53055">
        <ele>382</ele>
        <time>2022-03-06T13:00:31Z</time>
      </trkpt>
      <trkpt lat="44.51718" lon="4.5305">
        <ele>381</ele>
        <time>2022-03-06T13:00:39Z</time>
      </trkpt>
      <trkpt lat="44.51728" lon="4.53056">
        <ele>384</ele>
        <time>2022-03-06T13:01:02Z</time>
      </trkpt>
      <trkpt lat="44.51733" lon="4.53058">
        <ele>384</ele>
        <time>2022-03-06T13:01:06Z</time>
      </trkpt>
      <trkpt lat="44.51736" lon="4.53063">
        <ele>385</ele>
        <time>2022-03-06T13:01:09Z</time>
      </trkpt>
      <trkpt lat="44.51753" lon="4.53076">
        <ele>385</ele>
        <time>2022-03-06T13:01:26Z</time>
      </trkpt>
      <trkpt lat="44.51755" lon="4.53082">
        <ele>384</ele>
        <time>2022-03-06T13:01:30Z</time>
      </trkpt>
      <trkpt lat="44.51757" lon="4.53088">
        <ele>383</ele>
        <time>2022-03-06T13:01:35Z</time>
      </trkpt>
      <trkpt lat="44.51781" lon="4.53116">
        <ele>384</ele>
        <time>2022-03-06T13:02:01Z</time>
      </trkpt>
      <trkpt lat="44.51789" lon="4.53122">
        <ele>383</ele>
        <time>2022-03-06T13:02:09Z</time>
      </trkpt>
      <trkpt lat="44.51791" lon="4.53125">
        <ele>383</ele>
        <time>2022-03-06T13:02:13Z</time>
      </trkpt>
      <trkpt lat="44.51792" lon="4.5313">
        <ele>383</ele>
        <time>2022-03-06T13:02:19Z</time>
      </trkpt>
      <trkpt lat="44.51794" lon="4.53147">
        <ele>382</ele>
        <time>2022-03-06T13:02:30Z</time>
      </trkpt>
      <trkpt lat="44.51795" lon="4.53152">
        <ele>383</ele>
        <time>2022-03-06T13:02:36Z</time>
      </trkpt>
      <trkpt lat="44.51804" lon="4.53176">
        <ele>384</ele>
        <time>2022-03-06T13:03:04Z</time>
      </trkpt>
      <trkpt lat="44.51806" lon="4.53182">
        <ele>385</ele>
        <time>2022-03-06T13:03:09Z</time>
      </trkpt>
      <trkpt lat="44.51807" lon="4.53187">
        <ele>386</ele>
        <time>2022-03-06T13:03:12Z</time>
      </trkpt>
      <trkpt lat="44.51811" lon="4.53194">
        <ele>388</ele>
        <time>2022-03-06T13:03:16Z</time>
      </trkpt>
      <trkpt lat="44.51812" lon="4.53199">
        <ele>388</ele>
        <time>2022-03-06T13:03:19Z</time>
      </trkpt>
      <trkpt lat="44.51811" lon="4.53209">
        <ele>388</ele>
        <time>2022-03-06T13:03:27Z</time>
      </trkpt>
      <trkpt lat="44.51817" lon="4.53227">
        <ele>390</ele>
        <time>2022-03-06T13:03:39Z</time>
      </trkpt>
      <trkpt lat="44.51818" lon="4.53231">
        <ele>389</ele>
        <time>2022-03-06T13:03:42Z</time>
      </trkpt>
      <trkpt lat="44.51818" lon="4.53236">
        <ele>388</ele>
        <time>2022-03-06T13:03:45Z</time>
      </trkpt>
      <trkpt lat="44.51817" lon="4.53239">
        <ele>388</ele>
        <time>2022-03-06T13:03:47Z</time>
      </trkpt>
      <trkpt lat="44.51817" lon="4.53243">
        <ele>389</ele>
        <time>2022-03-06T13:03:49Z</time>
      </trkpt>
      <trkpt lat="44.51822" lon="4.5327">
        <ele>388</ele>
        <time>2022-03-06T13:04:06Z</time>
      </trkpt>
      <trkpt lat="44.51822" lon="4.53276">
        <ele>388</ele>
        <time>2022-03-06T13:04:10Z</time>
      </trkpt>
      <trkpt lat="44.51825" lon="4.5329">
        <ele>389</ele>
        <time>2022-03-06T13:04:18Z</time>
      </trkpt>
      <trkpt lat="44.51826" lon="4.53309">
        <ele>389</ele>
        <time>2022-03-06T13:04:28Z</time>
      </trkpt>
      <trkpt lat="44.51819" lon="4.53357">
        <ele>391</ele>
        <time>2022-03-06T13:04:58Z</time>
      </trkpt>
      <trkpt lat="44.51815" lon="4.53379">
        <ele>393</ele>
        <time>2022-03-06T13:05:12Z</time>
      </trkpt>
      <trkpt lat="44.51813" lon="4.53386">
        <ele>393</ele>
        <time>2022-03-06T13:05:17Z</time>
      </trkpt>
      <trkpt lat="44.51808" lon="4.53432">
        <ele>393</ele>
        <time>2022-03-06T13:05:44Z</time>
      </trkpt>
      <trkpt lat="44.51809" lon="4.53437">
        <ele>393</ele>
        <time>2022-03-06T13:05:47Z</time>
      </trkpt>
      <trkpt lat="44.51809" lon="4.53443">
        <ele>391</ele>
        <time>2022-03-06T13:05:49Z</time>
      </trkpt>
      <trkpt lat="44.51808" lon="4.53448">
        <ele>392</ele>
        <time>2022-03-06T13:05:52Z</time>
      </trkpt>
      <trkpt lat="44.51804" lon="4.53494">
        <ele>394</ele>
        <time>2022-03-06T13:06:21Z</time>
      </trkpt>
      <trkpt lat="44.51801" lon="4.53506">
        <ele>394</ele>
        <time>2022-03-06T13:06:29Z</time>
      </trkpt>
      <trkpt lat="44.51788" lon="4.5353">
        <ele>395</ele>
        <time>2022-03-06T13:06:46Z</time>
      </trkpt>
      <trkpt lat="44.51786" lon="4.5354">
        <ele>395</ele>
        <time>2022-03-06T13:06:53Z</time>
      </trkpt>
      <trkpt lat="44.51782" lon="4.5355">
        <ele>395</ele>
        <time>2022-03-06T13:06:59Z</time>
      </trkpt>
      <trkpt lat="44.51781" lon="4.53553">
        <ele>395</ele>
        <time>2022-03-06T13:07:01Z</time>
      </trkpt>
      <trkpt lat="44.5178" lon="4.53556">
        <ele>395</ele>
        <time>2022-03-06T13:07:03Z</time>
      </trkpt>
      <trkpt lat="44.51778" lon="4.53563">
        <ele>395</ele>
        <time>2022-03-06T13:07:08Z</time>
      </trkpt>
      <trkpt lat="44.51777" lon="4.53567">
        <ele>395</ele>
        <time>2022-03-06T13:07:11Z</time>
      </trkpt>
      <trkpt lat="44.51777" lon="4.53569">
        <ele>396</ele>
        <time>2022-03-06T13:07:24Z</time>
      </trkpt>
      <trkpt lat="44.51775" lon="4.53568">
        <ele>396</ele>
        <time>2022-03-06T13:07:36Z</time>
      </trkpt>
      <trkpt lat="44.51775" lon="4.53567">
        <ele>397</ele>
        <time>2022-03-06T13:08:08Z</time>
      </trkpt>
      <trkpt lat="44.51774" lon="4.53567">
        <ele>395</ele>
        <time>2022-03-06T13:09:25Z</time>
      </trkpt>
      <trkpt lat="44.51773" lon="4.5357">
        <ele>396</ele>
        <time>2022-03-06T13:09:37Z</time>
      </trkpt>
      <trkpt lat="44.51772" lon="4.53578">
        <ele>398</ele>
        <time>2022-03-06T13:09:44Z</time>
      </trkpt>
      <trkpt lat="44.51768" lon="4.53594">
        <ele>399</ele>
        <time>2022-03-06T13:09:54Z</time>
      </trkpt>
      <trkpt lat="44.51767" lon="4.53598">
        <ele>399</ele>
        <time>2022-03-06T13:09:57Z</time>
      </trkpt>
      <trkpt lat="44.51767" lon="4.53604">
        <ele>401</ele>
        <time>2022-03-06T13:10:01Z</time>
      </trkpt>
      <trkpt lat="44.51765" lon="4.53608">
        <ele>401</ele>
        <time>2022-03-06T13:10:03Z</time>
      </trkpt>
      <trkpt lat="44.51763" lon="4.53611">
        <ele>402</ele>
        <time>2022-03-06T13:10:05Z</time>
      </trkpt>
      <trkpt lat="44.51764" lon="4.53615">
        <ele>403</ele>
        <time>2022-03-06T13:10:07Z</time>
      </trkpt>
      <trkpt lat="44.51764" lon="4.53621">
        <ele>402</ele>
        <time>2022-03-06T13:10:10Z</time>
      </trkpt>
      <trkpt lat="44.51765" lon="4.53625">
        <ele>400</ele>
        <time>2022-03-06T13:10:12Z</time>
      </trkpt>
      <trkpt lat="44.51764" lon="4.5363">
        <ele>399</ele>
        <time>2022-03-06T13:10:14Z</time>
      </trkpt>
      <trkpt lat="44.51764" lon="4.53635">
        <ele>398</ele>
        <time>2022-03-06T13:10:17Z</time>
      </trkpt>
      <trkpt lat="44.51768" lon="4.53654">
        <ele>397</ele>
        <time>2022-03-06T13:10:31Z</time>
      </trkpt>
      <trkpt lat="44.5177" lon="4.5366">
        <ele>397</ele>
        <time>2022-03-06T13:10:36Z</time>
      </trkpt>
      <trkpt lat="44.5177" lon="4.53665">
        <ele>397</ele>
        <time>2022-03-06T13:10:39Z</time>
      </trkpt>
      <trkpt lat="44.51771" lon="4.53676">
        <ele>398</ele>
        <time>2022-03-06T13:10:45Z</time>
      </trkpt>
      <trkpt lat="44.51775" lon="4.5368">
        <ele>397</ele>
        <time>2022-03-06T13:10:50Z</time>
      </trkpt>
      <trkpt lat="44.51775" lon="4.53693">
        <ele>395</ele>
        <time>2022-03-06T13:10:58Z</time>
      </trkpt>
      <trkpt lat="44.51776" lon="4.53699">
        <ele>394</ele>
        <time>2022-03-06T13:11:02Z</time>
      </trkpt>
      <trkpt lat="44.51779" lon="4.53705">
        <ele>394</ele>
        <time>2022-03-06T13:11:06Z</time>
      </trkpt>
      <trkpt lat="44.51783" lon="4.53722">
        <ele>397</ele>
        <time>2022-03-06T13:11:18Z</time>
      </trkpt>
      <trkpt lat="44.51785" lon="4.53732">
        <ele>398</ele>
        <time>2022-03-06T13:11:25Z</time>
      </trkpt>
      <trkpt lat="44.51786" lon="4.53738">
        <ele>399</ele>
        <time>2022-03-06T13:11:28Z</time>
      </trkpt>
      <trkpt lat="44.51787" lon="4.53743">
        <ele>399</ele>
        <time>2022-03-06T13:11:31Z</time>
      </trkpt>
      <trkpt lat="44.51787" lon="4.53748">
        <ele>399</ele>
        <time>2022-03-06T13:11:34Z</time>
      </trkpt>
      <trkpt lat="44.51789" lon="4.53757">
        <ele>399</ele>
        <time>2022-03-06T13:11:39Z</time>
      </trkpt>
      <trkpt lat="44.51789" lon="4.53769">
        <ele>401</ele>
        <time>2022-03-06T13:11:46Z</time>
      </trkpt>
      <trkpt lat="44.51788" lon="4.53784">
        <ele>402</ele>
        <time>2022-03-06T13:11:54Z</time>
      </trkpt>
      <trkpt lat="44.51782" lon="4.53802">
        <ele>402</ele>
        <time>2022-03-06T13:12:05Z</time>
      </trkpt>
      <trkpt lat="44.51777" lon="4.5381">
        <ele>404</ele>
        <time>2022-03-06T13:12:11Z</time>
      </trkpt>
      <trkpt lat="44.51777" lon="4.53817">
        <ele>405</ele>
        <time>2022-03-06T13:12:18Z</time>
      </trkpt>
      <trkpt lat="44.51772" lon="4.53828">
        <ele>403</ele>
        <time>2022-03-06T13:12:26Z</time>
      </trkpt>
      <trkpt lat="44.51765" lon="4.53837">
        <ele>401</ele>
        <time>2022-03-06T13:12:32Z</time>
      </trkpt>
      <trkpt lat="44.5176" lon="4.53846">
        <ele>401</ele>
        <time>2022-03-06T13:12:38Z</time>
      </trkpt>
      <trkpt lat="44.51755" lon="4.53855">
        <ele>402</ele>
        <time>2022-03-06T13:12:45Z</time>
      </trkpt>
      <trkpt lat="44.51753" lon="4.53859">
        <ele>403</ele>
        <time>2022-03-06T13:12:50Z</time>
      </trkpt>
      <trkpt lat="44.51746" lon="4.53873">
        <ele>405</ele>
        <time>2022-03-06T13:13:00Z</time>
      </trkpt>
      <trkpt lat="44.51748" lon="4.53891">
        <ele>402</ele>
        <time>2022-03-06T13:13:10Z</time>
      </trkpt>
      <trkpt lat="44.51746" lon="4.53897">
        <ele>402</ele>
        <time>2022-03-06T13:13:13Z</time>
      </trkpt>
      <trkpt lat="44.51746" lon="4.53904">
        <ele>402</ele>
        <time>2022-03-06T13:13:17Z</time>
      </trkpt>
      <trkpt lat="44.5175" lon="4.53914">
        <ele>400</ele>
        <time>2022-03-06T13:13:26Z</time>
      </trkpt>
      <trkpt lat="44.51752" lon="4.5392">
        <ele>400</ele>
        <time>2022-03-06T13:13:31Z</time>
      </trkpt>
      <trkpt lat="44.51754" lon="4.53927">
        <ele>400</ele>
        <time>2022-03-06T13:13:36Z</time>
      </trkpt>
      <trkpt lat="44.51754" lon="4.53933">
        <ele>397</ele>
        <time>2022-03-06T13:13:41Z</time>
      </trkpt>
      <trkpt lat="44.51766" lon="4.53944">
        <ele>400</ele>
        <time>2022-03-06T13:13:52Z</time>
      </trkpt>
      <trkpt lat="44.51771" lon="4.53949">
        <ele>405</ele>
        <time>2022-03-06T13:13:58Z</time>
      </trkpt>
      <trkpt lat="44.51775" lon="4.53954">
        <ele>406</ele>
        <time>2022-03-06T13:14:02Z</time>
      </trkpt>
      <trkpt lat="44.5178" lon="4.53958">
        <ele>410</ele>
        <time>2022-03-06T13:14:05Z</time>
      </trkpt>
      <trkpt lat="44.51782" lon="4.53964">
        <ele>411</ele>
        <time>2022-03-06T13:14:10Z</time>
      </trkpt>
      <trkpt lat="44.51789" lon="4.53974">
        <ele>412</ele>
        <time>2022-03-06T13:14:19Z</time>
      </trkpt>
      <trkpt lat="44.51805" lon="4.53985">
        <ele>409</ele>
        <time>2022-03-06T13:14:36Z</time>
      </trkpt>
      <trkpt lat="44.51807" lon="4.53989">
        <ele>409</ele>
        <time>2022-03-06T13:14:40Z</time>
      </trkpt>
      <trkpt lat="44.51815" lon="4.53988">
        <ele>412</ele>
        <time>2022-03-06T13:15:05Z</time>
      </trkpt>
      <trkpt lat="44.51819" lon="4.5399">
        <ele>412</ele>
        <time>2022-03-06T13:15:08Z</time>
      </trkpt>
      <trkpt lat="44.51826" lon="4.53997">
        <ele>409</ele>
        <time>2022-03-06T13:15:18Z</time>
      </trkpt>
      <trkpt lat="44.51834" lon="4.54">
        <ele>409</ele>
        <time>2022-03-06T13:15:25Z</time>
      </trkpt>
      <trkpt lat="44.51838" lon="4.54003">
        <ele>409</ele>
        <time>2022-03-06T13:15:29Z</time>
      </trkpt>
      <trkpt lat="44.51854" lon="4.54006">
        <ele>409</ele>
        <time>2022-03-06T13:15:43Z</time>
      </trkpt>
      <trkpt lat="44.51876" lon="4.54009">
        <ele>413</ele>
        <time>2022-03-06T13:16:01Z</time>
      </trkpt>
      <trkpt lat="44.51896" lon="4.54013">
        <ele>411</ele>
        <time>2022-03-06T13:16:18Z</time>
      </trkpt>
      <trkpt lat="44.51901" lon="4.54016">
        <ele>411</ele>
        <time>2022-03-06T13:16:24Z</time>
      </trkpt>
      <trkpt lat="44.51903" lon="4.54018">
        <ele>411</ele>
        <time>2022-03-06T13:16:27Z</time>
      </trkpt>
      <trkpt lat="44.51903" lon="4.54022">
        <ele>411</ele>
        <time>2022-03-06T13:16:29Z</time>
      </trkpt>
      <trkpt lat="44.51902" lon="4.54027">
        <ele>411</ele>
        <time>2022-03-06T13:16:34Z</time>
      </trkpt>
      <trkpt lat="44.519" lon="4.54039">
        <ele>411</ele>
        <time>2022-03-06T13:16:43Z</time>
      </trkpt>
      <trkpt lat="44.51899" lon="4.54043">
        <ele>411</ele>
        <time>2022-03-06T13:16:46Z</time>
      </trkpt>
      <trkpt lat="44.51889" lon="4.54077">
        <ele>416</ele>
        <time>2022-03-06T13:17:13Z</time>
      </trkpt>
      <trkpt lat="44.51888" lon="4.54082">
        <ele>417</ele>
        <time>2022-03-06T13:17:17Z</time>
      </trkpt>
      <trkpt lat="44.51879" lon="4.54089">
        <ele>418</ele>
        <time>2022-03-06T13:17:25Z</time>
      </trkpt>
      <trkpt lat="44.51876" lon="4.54091">
        <ele>417</ele>
        <time>2022-03-06T13:17:28Z</time>
      </trkpt>
      <trkpt lat="44.51873" lon="4.5409">
        <ele>417</ele>
        <time>2022-03-06T13:17:31Z</time>
      </trkpt>
      <trkpt lat="44.51869" lon="4.54088">
        <ele>417</ele>
        <time>2022-03-06T13:17:34Z</time>
      </trkpt>
      <trkpt lat="44.51867" lon="4.54085">
        <ele>418</ele>
        <time>2022-03-06T13:17:37Z</time>
      </trkpt>
      <trkpt lat="44.51858" lon="4.54084">
        <ele>418</ele>
        <time>2022-03-06T13:17:45Z</time>
      </trkpt>
      <trkpt lat="44.51848" lon="4.54081">
        <ele>417</ele>
        <time>2022-03-06T13:17:54Z</time>
      </trkpt>
      <trkpt lat="44.51812" lon="4.54074">
        <ele>423</ele>
        <time>2022-03-06T13:18:25Z</time>
      </trkpt>
      <trkpt lat="44.51809" lon="4.54075">
        <ele>422</ele>
        <time>2022-03-06T13:18:28Z</time>
      </trkpt>
      <trkpt lat="44.51776" lon="4.54068">
        <ele>421</ele>
        <time>2022-03-06T13:18:58Z</time>
      </trkpt>
      <trkpt lat="44.51773" lon="4.54067">
        <ele>421</ele>
        <time>2022-03-06T13:19:01Z</time>
      </trkpt>
      <trkpt lat="44.5177" lon="4.54067">
        <ele>422</ele>
        <time>2022-03-06T13:19:04Z</time>
      </trkpt>
      <trkpt lat="44.51756" lon="4.5406">
        <ele>423</ele>
        <time>2022-03-06T13:19:17Z</time>
      </trkpt>
      <trkpt lat="44.51753" lon="4.5406">
        <ele>424</ele>
        <time>2022-03-06T13:19:20Z</time>
      </trkpt>
      <trkpt lat="44.5175" lon="4.54058">
        <ele>425</ele>
        <time>2022-03-06T13:19:25Z</time>
      </trkpt>
      <trkpt lat="44.51742" lon="4.54059">
        <ele>424</ele>
        <time>2022-03-06T13:19:32Z</time>
      </trkpt>
      <trkpt lat="44.51728" lon="4.54053">
        <ele>424</ele>
        <time>2022-03-06T13:19:44Z</time>
      </trkpt>
      <trkpt lat="44.51716" lon="4.54046">
        <ele>425</ele>
        <time>2022-03-06T13:19:56Z</time>
      </trkpt>
      <trkpt lat="44.51705" lon="4.54045">
        <ele>427</ele>
        <time>2022-03-06T13:20:07Z</time>
      </trkpt>
      <trkpt lat="44.51704" lon="4.54046">
        <ele>429</ele>
        <time>2022-03-06T13:20:24Z</time>
      </trkpt>
      <trkpt lat="44.517" lon="4.54044">
        <ele>429</ele>
        <time>2022-03-06T13:20:28Z</time>
      </trkpt>
      <trkpt lat="44.51697" lon="4.54042">
        <ele>429</ele>
        <time>2022-03-06T13:20:31Z</time>
      </trkpt>
      <trkpt lat="44.51688" lon="4.5404">
        <ele>428</ele>
        <time>2022-03-06T13:20:37Z</time>
      </trkpt>
      <trkpt lat="44.51659" lon="4.54023">
        <ele>432</ele>
        <time>2022-03-06T13:20:59Z</time>
      </trkpt>
      <trkpt lat="44.5165" lon="4.54019">
        <ele>432</ele>
        <time>2022-03-06T13:21:05Z</time>
      </trkpt>
      <trkpt lat="44.51625" lon="4.54006">
        <ele>432</ele>
        <time>2022-03-06T13:21:27Z</time>
      </trkpt>
      <trkpt lat="44.51618" lon="4.54005">
        <ele>432</ele>
        <time>2022-03-06T13:21:31Z</time>
      </trkpt>
      <trkpt lat="44.51607" lon="4.53999">
        <ele>432</ele>
        <time>2022-03-06T13:21:40Z</time>
      </trkpt>
      <trkpt lat="44.51594" lon="4.53994">
        <ele>433</ele>
        <time>2022-03-06T13:21:50Z</time>
      </trkpt>
      <trkpt lat="44.51584" lon="4.5399">
        <ele>434</ele>
        <time>2022-03-06T13:21:58Z</time>
      </trkpt>
      <trkpt lat="44.51557" lon="4.53979">
        <ele>432</ele>
        <time>2022-03-06T13:22:19Z</time>
      </trkpt>
      <trkpt lat="44.51554" lon="4.53977">
        <ele>432</ele>
        <time>2022-03-06T13:22:21Z</time>
      </trkpt>
      <trkpt lat="44.51547" lon="4.53977">
        <ele>433</ele>
        <time>2022-03-06T13:22:26Z</time>
      </trkpt>
      <trkpt lat="44.51545" lon="4.53976">
        <ele>433</ele>
        <time>2022-03-06T13:22:31Z</time>
      </trkpt>
      <trkpt lat="44.51536" lon="4.53973">
        <ele>433</ele>
        <time>2022-03-06T13:22:37Z</time>
      </trkpt>
      <trkpt lat="44.51529" lon="4.53969">
        <ele>434</ele>
        <time>2022-03-06T13:22:43Z</time>
      </trkpt>
      <trkpt lat="44.51523" lon="4.53967">
        <ele>434</ele>
        <time>2022-03-06T13:22:50Z</time>
      </trkpt>
      <trkpt lat="44.51512" lon="4.53963">
        <ele>436</ele>
        <time>2022-03-06T13:22:58Z</time>
      </trkpt>
      <trkpt lat="44.51509" lon="4.53963">
        <ele>436</ele>
        <time>2022-03-06T13:23:01Z</time>
      </trkpt>
      <trkpt lat="44.51502" lon="4.5396">
        <ele>437</ele>
        <time>2022-03-06T13:23:07Z</time>
      </trkpt>
      <trkpt lat="44.51493" lon="4.53965">
        <ele>435</ele>
        <time>2022-03-06T13:23:18Z</time>
      </trkpt>
      <trkpt lat="44.51492" lon="4.53968">
        <ele>434</ele>
        <time>2022-03-06T13:23:20Z</time>
      </trkpt>
      <trkpt lat="44.51484" lon="4.53976">
        <ele>431</ele>
        <time>2022-03-06T13:23:28Z</time>
      </trkpt>
      <trkpt lat="44.51481" lon="4.53983">
        <ele>430</ele>
        <time>2022-03-06T13:27:40Z</time>
      </trkpt>
      <trkpt lat="44.51463" lon="4.54005">
        <ele>427</ele>
        <time>2022-03-06T13:27:59Z</time>
      </trkpt>
      <trkpt lat="44.51455" lon="4.54019">
        <ele>425</ele>
        <time>2022-03-06T13:28:10Z</time>
      </trkpt>
      <trkpt lat="44.51452" lon="4.54021">
        <ele>425</ele>
        <time>2022-03-06T13:28:13Z</time>
      </trkpt>
      <trkpt lat="44.51422" lon="4.54059">
        <ele>426</ele>
        <time>2022-03-06T13:28:45Z</time>
      </trkpt>
      <trkpt lat="44.514" lon="4.54097">
        <ele>430</ele>
        <time>2022-03-06T13:29:12Z</time>
      </trkpt>
      <trkpt lat="44.51397" lon="4.54107">
        <ele>430</ele>
        <time>2022-03-06T13:29:24Z</time>
      </trkpt>
      <trkpt lat="44.51386" lon="4.54124">
        <ele>430</ele>
        <time>2022-03-06T13:29:38Z</time>
      </trkpt>
      <trkpt lat="44.51378" lon="4.54135">
        <ele>429</ele>
        <time>2022-03-06T13:29:47Z</time>
      </trkpt>
      <trkpt lat="44.5135" lon="4.5417">
        <ele>430</ele>
        <time>2022-03-06T13:30:17Z</time>
      </trkpt>
      <trkpt lat="44.5133" lon="4.54199">
        <ele>429</ele>
        <time>2022-03-06T13:30:41Z</time>
      </trkpt>
      <trkpt lat="44.5132" lon="4.54214">
        <ele>429</ele>
        <time>2022-03-06T13:30:54Z</time>
      </trkpt>
      <trkpt lat="44.51311" lon="4.54222">
        <ele>430</ele>
        <time>2022-03-06T13:31:03Z</time>
      </trkpt>
      <trkpt lat="44.51289" lon="4.54242">
        <ele>431</ele>
        <time>2022-03-06T13:31:23Z</time>
      </trkpt>
      <trkpt lat="44.51286" lon="4.54245">
        <ele>430</ele>
        <time>2022-03-06T13:31:26Z</time>
      </trkpt>
      <trkpt lat="44.51283" lon="4.5425">
        <ele>429</ele>
        <time>2022-03-06T13:31:29Z</time>
      </trkpt>
      <trkpt lat="44.51267" lon="4.54273">
        <ele>427</ele>
        <time>2022-03-06T13:31:47Z</time>
      </trkpt>
      <trkpt lat="44.51264" lon="4.54276">
        <ele>428</ele>
        <time>2022-03-06T13:31:50Z</time>
      </trkpt>
      <trkpt lat="44.51257" lon="4.54286">
        <ele>428</ele>
        <time>2022-03-06T13:31:59Z</time>
      </trkpt>
      <trkpt lat="44.51252" lon="4.54294">
        <ele>429</ele>
        <time>2022-03-06T13:32:05Z</time>
      </trkpt>
      <trkpt lat="44.51249" lon="4.54297">
        <ele>428</ele>
        <time>2022-03-06T13:32:08Z</time>
      </trkpt>
      <trkpt lat="44.51236" lon="4.54312">
        <ele>429</ele>
        <time>2022-03-06T13:32:22Z</time>
      </trkpt>
      <trkpt lat="44.51209" lon="4.54332">
        <ele>433</ele>
        <time>2022-03-06T13:32:51Z</time>
      </trkpt>
      <trkpt lat="44.51207" lon="4.54336">
        <ele>434</ele>
        <time>2022-03-06T13:32:54Z</time>
      </trkpt>
      <trkpt lat="44.512" lon="4.54342">
        <ele>436</ele>
        <time>2022-03-06T13:33:01Z</time>
      </trkpt>
      <trkpt lat="44.51199" lon="4.54346">
        <ele>438</ele>
        <time>2022-03-06T13:33:04Z</time>
      </trkpt>
      <trkpt lat="44.51199" lon="4.5435">
        <ele>439</ele>
        <time>2022-03-06T13:33:10Z</time>
      </trkpt>
      <trkpt lat="44.51197" lon="4.54353">
        <ele>440</ele>
        <time>2022-03-06T13:33:15Z</time>
      </trkpt>
      <trkpt lat="44.51193" lon="4.54355">
        <ele>439</ele>
        <time>2022-03-06T13:33:19Z</time>
      </trkpt>
      <trkpt lat="44.51192" lon="4.5436">
        <ele>439</ele>
        <time>2022-03-06T13:33:23Z</time>
      </trkpt>
      <trkpt lat="44.5119" lon="4.54365">
        <ele>439</ele>
        <time>2022-03-06T13:33:26Z</time>
      </trkpt>
      <trkpt lat="44.51188" lon="4.54368">
        <ele>439</ele>
        <time>2022-03-06T13:33:30Z</time>
      </trkpt>
      <trkpt lat="44.51184" lon="4.54371">
        <ele>439</ele>
        <time>2022-03-06T13:33:34Z</time>
      </trkpt>
      <trkpt lat="44.51183" lon="4.54375">
        <ele>440</ele>
        <time>2022-03-06T13:33:39Z</time>
      </trkpt>
      <trkpt lat="44.5118" lon="4.54378">
        <ele>441</ele>
        <time>2022-03-06T13:33:44Z</time>
      </trkpt>
      <trkpt lat="44.51176" lon="4.54381">
        <ele>443</ele>
        <time>2022-03-06T13:33:49Z</time>
      </trkpt>
      <trkpt lat="44.51174" lon="4.54384">
        <ele>445</ele>
        <time>2022-03-06T13:33:53Z</time>
      </trkpt>
      <trkpt lat="44.51172" lon="4.54389">
        <ele>446</ele>
        <time>2022-03-06T13:33:57Z</time>
      </trkpt>
      <trkpt lat="44.51168" lon="4.54389">
        <ele>447</ele>
        <time>2022-03-06T13:34:02Z</time>
      </trkpt>
      <trkpt lat="44.51166" lon="4.54393">
        <ele>447</ele>
        <time>2022-03-06T13:34:06Z</time>
      </trkpt>
      <trkpt lat="44.51164" lon="4.54398">
        <ele>445</ele>
        <time>2022-03-06T13:34:09Z</time>
      </trkpt>
      <trkpt lat="44.51161" lon="4.54402">
        <ele>445</ele>
        <time>2022-03-06T13:34:13Z</time>
      </trkpt>
      <trkpt lat="44.51157" lon="4.5441">
        <ele>446</ele>
        <time>2022-03-06T13:34:20Z</time>
      </trkpt>
      <trkpt lat="44.51154" lon="4.54419">
        <ele>447</ele>
        <time>2022-03-06T13:34:29Z</time>
      </trkpt>
      <trkpt lat="44.5115" lon="4.54422">
        <ele>447</ele>
        <time>2022-03-06T13:34:34Z</time>
      </trkpt>
      <trkpt lat="44.51149" lon="4.54427">
        <ele>448</ele>
        <time>2022-03-06T13:34:38Z</time>
      </trkpt>
      <trkpt lat="44.51145" lon="4.54429">
        <ele>450</ele>
        <time>2022-03-06T13:34:43Z</time>
      </trkpt>
      <trkpt lat="44.51132" lon="4.54433">
        <ele>454</ele>
        <time>2022-03-06T13:35:00Z</time>
      </trkpt>
      <trkpt lat="44.51129" lon="4.54438">
        <ele>455</ele>
        <time>2022-03-06T13:35:04Z</time>
      </trkpt>
      <trkpt lat="44.51127" lon="4.54442">
        <ele>456</ele>
        <time>2022-03-06T13:35:07Z</time>
      </trkpt>
      <trkpt lat="44.5112" lon="4.54443">
        <ele>455</ele>
        <time>2022-03-06T13:35:17Z</time>
      </trkpt>
      <trkpt lat="44.51117" lon="4.54446">
        <ele>456</ele>
        <time>2022-03-06T13:35:23Z</time>
      </trkpt>
      <trkpt lat="44.51113" lon="4.54446">
        <ele>456</ele>
        <time>2022-03-06T13:35:26Z</time>
      </trkpt>
      <trkpt lat="44.51112" lon="4.54449">
        <ele>457</ele>
        <time>2022-03-06T13:35:32Z</time>
      </trkpt>
      <trkpt lat="44.51109" lon="4.54451">
        <ele>456</ele>
        <time>2022-03-06T13:35:37Z</time>
      </trkpt>
      <trkpt lat="44.51103" lon="4.5445">
        <ele>456</ele>
        <time>2022-03-06T13:35:43Z</time>
      </trkpt>
      <trkpt lat="44.51096" lon="4.54449">
        <ele>457</ele>
        <time>2022-03-06T13:35:49Z</time>
      </trkpt>
      <trkpt lat="44.51092" lon="4.5445">
        <ele>457</ele>
        <time>2022-03-06T13:35:54Z</time>
      </trkpt>
      <trkpt lat="44.5109" lon="4.54451">
        <ele>458</ele>
        <time>2022-03-06T13:36:00Z</time>
      </trkpt>
      <trkpt lat="44.51088" lon="4.54451">
        <ele>458</ele>
        <time>2022-03-06T13:36:05Z</time>
      </trkpt>
      <trkpt lat="44.51084" lon="4.54452">
        <ele>458</ele>
        <time>2022-03-06T13:36:08Z</time>
      </trkpt>
      <trkpt lat="44.51079" lon="4.54449">
        <ele>457</ele>
        <time>2022-03-06T13:36:14Z</time>
      </trkpt>
      <trkpt lat="44.51071" lon="4.54454">
        <ele>457</ele>
        <time>2022-03-06T13:36:23Z</time>
      </trkpt>
      <trkpt lat="44.51063" lon="4.5446">
        <ele>459</ele>
        <time>2022-03-06T13:36:32Z</time>
      </trkpt>
      <trkpt lat="44.5105" lon="4.54471">
        <ele>461</ele>
        <time>2022-03-06T13:36:46Z</time>
      </trkpt>
      <trkpt lat="44.51046" lon="4.54472">
        <ele>461</ele>
        <time>2022-03-06T13:36:49Z</time>
      </trkpt>
      <trkpt lat="44.51042" lon="4.54477">
        <ele>462</ele>
        <time>2022-03-06T13:36:55Z</time>
      </trkpt>
      <trkpt lat="44.51036" lon="4.54482">
        <ele>462</ele>
        <time>2022-03-06T13:37:01Z</time>
      </trkpt>
      <trkpt lat="44.51033" lon="4.54484">
        <ele>463</ele>
        <time>2022-03-06T13:37:04Z</time>
      </trkpt>
      <trkpt lat="44.51028" lon="4.54482">
        <ele>464</ele>
        <time>2022-03-06T13:37:07Z</time>
      </trkpt>
      <trkpt lat="44.51025" lon="4.54483">
        <ele>464</ele>
        <time>2022-03-06T13:37:11Z</time>
      </trkpt>
      <trkpt lat="44.5102" lon="4.54486">
        <ele>464</ele>
        <time>2022-03-06T13:37:14Z</time>
      </trkpt>
      <trkpt lat="44.51011" lon="4.54491">
        <ele>464</ele>
        <time>2022-03-06T13:37:21Z</time>
      </trkpt>
      <trkpt lat="44.51003" lon="4.54496">
        <ele>463</ele>
        <time>2022-03-06T13:37:35Z</time>
      </trkpt>
      <trkpt lat="44.51001" lon="4.54503">
        <ele>462</ele>
        <time>2022-03-06T13:37:39Z</time>
      </trkpt>
      <trkpt lat="44.51002" lon="4.54507">
        <ele>462</ele>
        <time>2022-03-06T13:37:43Z</time>
      </trkpt>
      <trkpt lat="44.50998" lon="4.5451">
        <ele>462</ele>
        <time>2022-03-06T13:37:50Z</time>
      </trkpt>
      <trkpt lat="44.50994" lon="4.54513">
        <ele>463</ele>
        <time>2022-03-06T13:37:53Z</time>
      </trkpt>
      <trkpt lat="44.5099" lon="4.54516">
        <ele>463</ele>
        <time>2022-03-06T13:37:57Z</time>
      </trkpt>
      <trkpt lat="44.50987" lon="4.54521">
        <ele>462</ele>
        <time>2022-03-06T13:38:01Z</time>
      </trkpt>
      <trkpt lat="44.50984" lon="4.54523">
        <ele>462</ele>
        <time>2022-03-06T13:38:10Z</time>
      </trkpt>
      <trkpt lat="44.50979" lon="4.54523">
        <ele>460</ele>
        <time>2022-03-06T13:38:15Z</time>
      </trkpt>
      <trkpt lat="44.50971" lon="4.5453">
        <ele>463</ele>
        <time>2022-03-06T13:38:25Z</time>
      </trkpt>
      <trkpt lat="44.50969" lon="4.54536">
        <ele>463</ele>
        <time>2022-03-06T13:38:29Z</time>
      </trkpt>
      <trkpt lat="44.50968" lon="4.54541">
        <ele>463</ele>
        <time>2022-03-06T13:38:33Z</time>
      </trkpt>
      <trkpt lat="44.50955" lon="4.54556">
        <ele>463</ele>
        <time>2022-03-06T13:38:46Z</time>
      </trkpt>
      <trkpt lat="44.50953" lon="4.5456">
        <ele>463</ele>
        <time>2022-03-06T13:38:49Z</time>
      </trkpt>
      <trkpt lat="44.50946" lon="4.54568">
        <ele>463</ele>
        <time>2022-03-06T13:38:57Z</time>
      </trkpt>
      <trkpt lat="44.50943" lon="4.5457">
        <ele>463</ele>
        <time>2022-03-06T13:39:00Z</time>
      </trkpt>
      <trkpt lat="44.50926" lon="4.54586">
        <ele>464</ele>
        <time>2022-03-06T13:39:17Z</time>
      </trkpt>
      <trkpt lat="44.50923" lon="4.54585">
        <ele>464</ele>
        <time>2022-03-06T13:39:48Z</time>
      </trkpt>
      <trkpt lat="44.50924" lon="4.54587">
        <ele>466</ele>
        <time>2022-03-06T13:40:21Z</time>
      </trkpt>
      <trkpt lat="44.50921" lon="4.54588">
        <ele>467</ele>
        <time>2022-03-06T13:40:36Z</time>
      </trkpt>
      <trkpt lat="44.50916" lon="4.54592">
        <ele>468</ele>
        <time>2022-03-06T13:41:09Z</time>
      </trkpt>
      <trkpt lat="44.50902" lon="4.54614">
        <ele>467</ele>
        <time>2022-03-06T13:41:30Z</time>
      </trkpt>
      <trkpt lat="44.509" lon="4.54617">
        <ele>467</ele>
        <time>2022-03-06T13:41:34Z</time>
      </trkpt>
      <trkpt lat="44.50897" lon="4.54621">
        <ele>467</ele>
        <time>2022-03-06T13:41:40Z</time>
      </trkpt>
      <trkpt lat="44.50893" lon="4.54626">
        <ele>467</ele>
        <time>2022-03-06T13:41:44Z</time>
      </trkpt>
      <trkpt lat="44.50889" lon="4.54628">
        <ele>466</ele>
        <time>2022-03-06T13:41:48Z</time>
      </trkpt>
      <trkpt lat="44.50883" lon="4.54636">
        <ele>466</ele>
        <time>2022-03-06T13:41:55Z</time>
      </trkpt>
      <trkpt lat="44.5088" lon="4.54641">
        <ele>466</ele>
        <time>2022-03-06T13:42:00Z</time>
      </trkpt>
      <trkpt lat="44.50878" lon="4.54647">
        <ele>468</ele>
        <time>2022-03-06T13:42:06Z</time>
      </trkpt>
      <trkpt lat="44.50871" lon="4.54667">
        <ele>468</ele>
        <time>2022-03-06T13:42:22Z</time>
      </trkpt>
      <trkpt lat="44.50867" lon="4.5467">
        <ele>469</ele>
        <time>2022-03-06T13:42:27Z</time>
      </trkpt>
      <trkpt lat="44.50851" lon="4.5469">
        <ele>471</ele>
        <time>2022-03-06T13:42:48Z</time>
      </trkpt>
      <trkpt lat="44.50848" lon="4.54694">
        <ele>473</ele>
        <time>2022-03-06T13:42:52Z</time>
      </trkpt>
      <trkpt lat="44.50846" lon="4.547">
        <ele>475</ele>
        <time>2022-03-06T13:42:57Z</time>
      </trkpt>
      <trkpt lat="44.50846" lon="4.54707">
        <ele>477</ele>
        <time>2022-03-06T13:43:01Z</time>
      </trkpt>
      <trkpt lat="44.50843" lon="4.5471">
        <ele>479</ele>
        <time>2022-03-06T13:43:05Z</time>
      </trkpt>
      <trkpt lat="44.50837" lon="4.54719">
        <ele>481</ele>
        <time>2022-03-06T13:43:12Z</time>
      </trkpt>
      <trkpt lat="44.50826" lon="4.5473">
        <ele>482</ele>
        <time>2022-03-06T13:43:24Z</time>
      </trkpt>
      <trkpt lat="44.50823" lon="4.54733">
        <ele>482</ele>
        <time>2022-03-06T13:43:27Z</time>
      </trkpt>
      <trkpt lat="44.50821" lon="4.54735">
        <ele>483</ele>
        <time>2022-03-06T13:43:30Z</time>
      </trkpt>
      <trkpt lat="44.50817" lon="4.54743">
        <ele>484</ele>
        <time>2022-03-06T13:43:36Z</time>
      </trkpt>
      <trkpt lat="44.50813" lon="4.54749">
        <ele>484</ele>
        <time>2022-03-06T13:43:42Z</time>
      </trkpt>
      <trkpt lat="44.5081" lon="4.54758">
        <ele>484</ele>
        <time>2022-03-06T13:43:48Z</time>
      </trkpt>
      <trkpt lat="44.50807" lon="4.54767">
        <ele>484</ele>
        <time>2022-03-06T13:43:53Z</time>
      </trkpt>
      <trkpt lat="44.50806" lon="4.54771">
        <ele>484</ele>
        <time>2022-03-06T13:43:56Z</time>
      </trkpt>
      <trkpt lat="44.50805" lon="4.54776">
        <ele>484</ele>
        <time>2022-03-06T13:43:59Z</time>
      </trkpt>
      <trkpt lat="44.50792" lon="4.54792">
        <ele>486</ele>
        <time>2022-03-06T13:44:14Z</time>
      </trkpt>
      <trkpt lat="44.50787" lon="4.54798">
        <ele>486</ele>
        <time>2022-03-06T13:44:22Z</time>
      </trkpt>
      <trkpt lat="44.50786" lon="4.54802">
        <ele>487</ele>
        <time>2022-03-06T13:44:25Z</time>
      </trkpt>
      <trkpt lat="44.50773" lon="4.54818">
        <ele>489</ele>
        <time>2022-03-06T13:44:39Z</time>
      </trkpt>
      <trkpt lat="44.50769" lon="4.54819">
        <ele>489</ele>
        <time>2022-03-06T13:44:42Z</time>
      </trkpt>
      <trkpt lat="44.50752" lon="4.54828">
        <ele>489</ele>
        <time>2022-03-06T13:44:57Z</time>
      </trkpt>
      <trkpt lat="44.50747" lon="4.54831">
        <ele>490</ele>
        <time>2022-03-06T13:45:03Z</time>
      </trkpt>
      <trkpt lat="44.50744" lon="4.54832">
        <ele>490</ele>
        <time>2022-03-06T13:45:06Z</time>
      </trkpt>
      <trkpt lat="44.5074" lon="4.54835">
        <ele>490</ele>
        <time>2022-03-06T13:45:09Z</time>
      </trkpt>
      <trkpt lat="44.50728" lon="4.5484">
        <ele>491</ele>
        <time>2022-03-06T13:45:18Z</time>
      </trkpt>
      <trkpt lat="44.50726" lon="4.5484">
        <ele>491</ele>
        <time>2022-03-06T13:45:20Z</time>
      </trkpt>
      <trkpt lat="44.50718" lon="4.54844">
        <ele>492</ele>
        <time>2022-03-06T13:45:26Z</time>
      </trkpt>
      <trkpt lat="44.50708" lon="4.54853">
        <ele>487</ele>
        <time>2022-03-06T13:45:35Z</time>
      </trkpt>
      <trkpt lat="44.50701" lon="4.54859">
        <ele>485</ele>
        <time>2022-03-06T13:45:41Z</time>
      </trkpt>
      <trkpt lat="44.50698" lon="4.54861">
        <ele>485</ele>
        <time>2022-03-06T13:45:44Z</time>
      </trkpt>
      <trkpt lat="44.50694" lon="4.54861">
        <ele>485</ele>
        <time>2022-03-06T13:45:47Z</time>
      </trkpt>
      <trkpt lat="44.50688" lon="4.54867">
        <ele>485</ele>
        <time>2022-03-06T13:45:53Z</time>
      </trkpt>
      <trkpt lat="44.50685" lon="4.5487">
        <ele>484</ele>
        <time>2022-03-06T13:45:56Z</time>
      </trkpt>
      <trkpt lat="44.5068" lon="4.54872">
        <ele>484</ele>
        <time>2022-03-06T13:45:59Z</time>
      </trkpt>
      <trkpt lat="44.50671" lon="4.54876">
        <ele>484</ele>
        <time>2022-03-06T13:46:09Z</time>
      </trkpt>
      <trkpt lat="44.50667" lon="4.54878">
        <ele>484</ele>
        <time>2022-03-06T13:46:12Z</time>
      </trkpt>
      <trkpt lat="44.50661" lon="4.5488">
        <ele>487</ele>
        <time>2022-03-06T13:46:18Z</time>
      </trkpt>
      <trkpt lat="44.50657" lon="4.54879">
        <ele>487</ele>
        <time>2022-03-06T13:46:21Z</time>
      </trkpt>
      <trkpt lat="44.50653" lon="4.54881">
        <ele>486</ele>
        <time>2022-03-06T13:46:25Z</time>
      </trkpt>
      <trkpt lat="44.5065" lon="4.54882">
        <ele>485</ele>
        <time>2022-03-06T13:46:27Z</time>
      </trkpt>
      <trkpt lat="44.50648" lon="4.54884">
        <ele>483</ele>
        <time>2022-03-06T13:46:29Z</time>
      </trkpt>
      <trkpt lat="44.50644" lon="4.54884">
        <ele>482</ele>
        <time>2022-03-06T13:46:32Z</time>
      </trkpt>
      <trkpt lat="44.50637" lon="4.54889">
        <ele>479</ele>
        <time>2022-03-06T13:46:38Z</time>
      </trkpt>
      <trkpt lat="44.50634" lon="4.5489">
        <ele>480</ele>
        <time>2022-03-06T13:46:40Z</time>
      </trkpt>
      <trkpt lat="44.5063" lon="4.54894">
        <ele>481</ele>
        <time>2022-03-06T13:46:43Z</time>
      </trkpt>
      <trkpt lat="44.50625" lon="4.54899">
        <ele>479</ele>
        <time>2022-03-06T13:46:49Z</time>
      </trkpt>
      <trkpt lat="44.50618" lon="4.54905">
        <ele>478</ele>
        <time>2022-03-06T13:46:55Z</time>
      </trkpt>
      <trkpt lat="44.50615" lon="4.54906">
        <ele>479</ele>
        <time>2022-03-06T13:46:57Z</time>
      </trkpt>
      <trkpt lat="44.50612" lon="4.5491">
        <ele>481</ele>
        <time>2022-03-06T13:47:01Z</time>
      </trkpt>
      <trkpt lat="44.50608" lon="4.54913">
        <ele>482</ele>
        <time>2022-03-06T13:47:04Z</time>
      </trkpt>
      <trkpt lat="44.50603" lon="4.5492">
        <ele>480</ele>
        <time>2022-03-06T13:47:10Z</time>
      </trkpt>
      <trkpt lat="44.50602" lon="4.54924">
        <ele>479</ele>
        <time>2022-03-06T13:47:16Z</time>
      </trkpt>
      <trkpt lat="44.50601" lon="4.54924">
        <ele>478</ele>
        <time>2022-03-06T13:47:28Z</time>
      </trkpt>
      <trkpt lat="44.50598" lon="4.54924">
        <ele>477</ele>
        <time>2022-03-06T13:47:33Z</time>
      </trkpt>
      <trkpt lat="44.50583" lon="4.54932">
        <ele>478</ele>
        <time>2022-03-06T13:47:47Z</time>
      </trkpt>
      <trkpt lat="44.50579" lon="4.54931">
        <ele>480</ele>
        <time>2022-03-06T13:47:51Z</time>
      </trkpt>
      <trkpt lat="44.50576" lon="4.54933">
        <ele>480</ele>
        <time>2022-03-06T13:47:55Z</time>
      </trkpt>
      <trkpt lat="44.50571" lon="4.54935">
        <ele>479</ele>
        <time>2022-03-06T13:47:58Z</time>
      </trkpt>
      <trkpt lat="44.50563" lon="4.54936">
        <ele>475</ele>
        <time>2022-03-06T13:48:05Z</time>
      </trkpt>
      <trkpt lat="44.50549" lon="4.54938">
        <ele>476</ele>
        <time>2022-03-06T13:48:17Z</time>
      </trkpt>
      <trkpt lat="44.50545" lon="4.5494">
        <ele>476</ele>
        <time>2022-03-06T13:48:21Z</time>
      </trkpt>
      <trkpt lat="44.50508" lon="4.54951">
        <ele>473</ele>
        <time>2022-03-06T13:48:52Z</time>
      </trkpt>
      <trkpt lat="44.50474" lon="4.5497">
        <ele>473</ele>
        <time>2022-03-06T13:49:20Z</time>
      </trkpt>
      <trkpt lat="44.50471" lon="4.54971">
        <ele>474</ele>
        <time>2022-03-06T13:49:22Z</time>
      </trkpt>
      <trkpt lat="44.50467" lon="4.54972">
        <ele>473</ele>
        <time>2022-03-06T13:49:25Z</time>
      </trkpt>
      <trkpt lat="44.50463" lon="4.54976">
        <ele>473</ele>
        <time>2022-03-06T13:49:29Z</time>
      </trkpt>
      <trkpt lat="44.50461" lon="4.5498">
        <ele>473</ele>
        <time>2022-03-06T13:49:31Z</time>
      </trkpt>
      <trkpt lat="44.50455" lon="4.54979">
        <ele>473</ele>
        <time>2022-03-06T13:49:39Z</time>
      </trkpt>
      <trkpt lat="44.50448" lon="4.54976">
        <ele>474</ele>
        <time>2022-03-06T13:49:43Z</time>
      </trkpt>
      <trkpt lat="44.5043" lon="4.54988">
        <ele>477</ele>
        <time>2022-03-06T13:50:00Z</time>
      </trkpt>
      <trkpt lat="44.50414" lon="4.54995">
        <ele>480</ele>
        <time>2022-03-06T13:50:12Z</time>
      </trkpt>
      <trkpt lat="44.50401" lon="4.55005">
        <ele>480</ele>
        <time>2022-03-06T13:50:24Z</time>
      </trkpt>
      <trkpt lat="44.50387" lon="4.55004">
        <ele>480</ele>
        <time>2022-03-06T13:50:36Z</time>
      </trkpt>
      <trkpt lat="44.50383" lon="4.55008">
        <ele>480</ele>
        <time>2022-03-06T13:50:39Z</time>
      </trkpt>
      <trkpt lat="44.50381" lon="4.55011">
        <ele>479</ele>
        <time>2022-03-06T13:50:41Z</time>
      </trkpt>
      <trkpt lat="44.50381" lon="4.55016">
        <ele>480</ele>
        <time>2022-03-06T13:50:44Z</time>
      </trkpt>
      <trkpt lat="44.50381" lon="4.55015">
        <ele>481</ele>
        <time>2022-03-06T13:51:26Z</time>
      </trkpt>
      <trkpt lat="44.50377" lon="4.55014">
        <ele>481</ele>
        <time>2022-03-06T13:51:29Z</time>
      </trkpt>
      <trkpt lat="44.50374" lon="4.55015">
        <ele>484</ele>
        <time>2022-03-06T13:51:32Z</time>
      </trkpt>
      <trkpt lat="44.50371" lon="4.55012">
        <ele>484</ele>
        <time>2022-03-06T13:51:36Z</time>
      </trkpt>
      <trkpt lat="44.50368" lon="4.55011">
        <ele>485</ele>
        <time>2022-03-06T13:51:40Z</time>
      </trkpt>
      <trkpt lat="44.50366" lon="4.55011">
        <ele>483</ele>
        <time>2022-03-06T13:51:57Z</time>
      </trkpt>
      <trkpt lat="44.50368" lon="4.55015">
        <ele>482</ele>
        <time>2022-03-06T13:52:08Z</time>
      </trkpt>
      <trkpt lat="44.5037" lon="4.55017">
        <ele>481</ele>
        <time>2022-03-06T13:52:12Z</time>
      </trkpt>
      <trkpt lat="44.50374" lon="4.55019">
        <ele>481</ele>
        <time>2022-03-06T13:52:17Z</time>
      </trkpt>
      <trkpt lat="44.50373" lon="4.5502">
        <ele>482</ele>
        <time>2022-03-06T13:52:59Z</time>
      </trkpt>
      <trkpt lat="44.50373" lon="4.55022">
        <ele>481</ele>
        <time>2022-03-06T13:53:53Z</time>
      </trkpt>
      <trkpt lat="44.50374" lon="4.55023">
        <ele>482</ele>
        <time>2022-03-06T13:54:12Z</time>
      </trkpt>
      <trkpt lat="44.50376" lon="4.5502">
        <ele>483</ele>
        <time>2022-03-06T13:54:44Z</time>
      </trkpt>
      <trkpt lat="44.50378" lon="4.55019">
        <ele>481</ele>
        <time>2022-03-06T13:54:50Z</time>
      </trkpt>
      <trkpt lat="44.50377" lon="4.55018">
        <ele>481</ele>
        <time>2022-03-06T13:55:11Z</time>
      </trkpt>
      <trkpt lat="44.50375" lon="4.55018">
        <ele>481</ele>
        <time>2022-03-06T13:55:18Z</time>
      </trkpt>
      <trkpt lat="44.50374" lon="4.5502">
        <ele>481</ele>
        <time>2022-03-06T13:55:40Z</time>
      </trkpt>
      <trkpt lat="44.50374" lon="4.55022">
        <ele>482</ele>
        <time>2022-03-06T13:56:16Z</time>
      </trkpt>
      <trkpt lat="44.50375" lon="4.55023">
        <ele>482</ele>
        <time>2022-03-06T13:56:20Z</time>
      </trkpt>
      <trkpt lat="44.50374" lon="4.55025">
        <ele>482</ele>
        <time>2022-03-06T13:56:25Z</time>
      </trkpt>
      <trkpt lat="44.50376" lon="4.55027">
        <ele>484</ele>
        <time>2022-03-06T13:56:28Z</time>
      </trkpt>
      <trkpt lat="44.50377" lon="4.55025">
        <ele>484</ele>
        <time>2022-03-06T13:56:31Z</time>
      </trkpt>
      <trkpt lat="44.50379" lon="4.55024">
        <ele>483</ele>
        <time>2022-03-06T13:56:38Z</time>
      </trkpt>
      <trkpt lat="44.50384" lon="4.55027">
        <ele>481</ele>
        <time>2022-03-06T13:56:46Z</time>
      </trkpt>
      <trkpt lat="44.50389" lon="4.55036">
        <ele>480</ele>
        <time>2022-03-06T13:56:54Z</time>
      </trkpt>
      <trkpt lat="44.50392" lon="4.55039">
        <ele>481</ele>
        <time>2022-03-06T13:57:01Z</time>
      </trkpt>
      <trkpt lat="44.50403" lon="4.55053">
        <ele>480</ele>
        <time>2022-03-06T13:57:15Z</time>
      </trkpt>
      <trkpt lat="44.50407" lon="4.55057">
        <ele>480</ele>
        <time>2022-03-06T13:57:21Z</time>
      </trkpt>
      <trkpt lat="44.50409" lon="4.55063">
        <ele>479</ele>
        <time>2022-03-06T13:57:27Z</time>
      </trkpt>
      <trkpt lat="44.50411" lon="4.55068">
        <ele>478</ele>
        <time>2022-03-06T13:57:31Z</time>
      </trkpt>
      <trkpt lat="44.50414" lon="4.55073">
        <ele>476</ele>
        <time>2022-03-06T13:57:36Z</time>
      </trkpt>
      <trkpt lat="44.50418" lon="4.55077">
        <ele>475</ele>
        <time>2022-03-06T13:57:41Z</time>
      </trkpt>
      <trkpt lat="44.50421" lon="4.55085">
        <ele>475</ele>
        <time>2022-03-06T13:57:45Z</time>
      </trkpt>
      <trkpt lat="44.50424" lon="4.55089">
        <ele>474</ele>
        <time>2022-03-06T13:57:49Z</time>
      </trkpt>
      <trkpt lat="44.50428" lon="4.5509">
        <ele>473</ele>
        <time>2022-03-06T13:57:53Z</time>
      </trkpt>
      <trkpt lat="44.50431" lon="4.55096">
        <ele>472</ele>
        <time>2022-03-06T13:57:57Z</time>
      </trkpt>
      <trkpt lat="44.50436" lon="4.55099">
        <ele>471</ele>
        <time>2022-03-06T13:58:02Z</time>
      </trkpt>
      <trkpt lat="44.5044" lon="4.55118">
        <ele>470</ele>
        <time>2022-03-06T13:58:13Z</time>
      </trkpt>
      <trkpt lat="44.50447" lon="4.55125">
        <ele>467</ele>
        <time>2022-03-06T13:58:23Z</time>
      </trkpt>
      <trkpt lat="44.50461" lon="4.55158">
        <ele>466</ele>
        <time>2022-03-06T13:58:48Z</time>
      </trkpt>
      <trkpt lat="44.50466" lon="4.55169">
        <ele>465</ele>
        <time>2022-03-06T13:58:56Z</time>
      </trkpt>
      <trkpt lat="44.5047" lon="4.55173">
        <ele>465</ele>
        <time>2022-03-06T13:59:00Z</time>
      </trkpt>
      <trkpt lat="44.50474" lon="4.55178">
        <ele>466</ele>
        <time>2022-03-06T13:59:03Z</time>
      </trkpt>
      <trkpt lat="44.50476" lon="4.55184">
        <ele>466</ele>
        <time>2022-03-06T13:59:07Z</time>
      </trkpt>
      <trkpt lat="44.50484" lon="4.55192">
        <ele>467</ele>
        <time>2022-03-06T13:59:15Z</time>
      </trkpt>
      <trkpt lat="44.50487" lon="4.55198">
        <ele>468</ele>
        <time>2022-03-06T13:59:20Z</time>
      </trkpt>
      <trkpt lat="44.50489" lon="4.55203">
        <ele>466</ele>
        <time>2022-03-06T13:59:30Z</time>
      </trkpt>
      <trkpt lat="44.50492" lon="4.55202">
        <ele>463</ele>
        <time>2022-03-06T13:59:39Z</time>
      </trkpt>
      <trkpt lat="44.50495" lon="4.55205">
        <ele>462</ele>
        <time>2022-03-06T13:59:44Z</time>
      </trkpt>
      <trkpt lat="44.50499" lon="4.55213">
        <ele>459</ele>
        <time>2022-03-06T14:00:03Z</time>
      </trkpt>
      <trkpt lat="44.50499" lon="4.55217">
        <ele>459</ele>
        <time>2022-03-06T14:00:05Z</time>
      </trkpt>
      <trkpt lat="44.50501" lon="4.55221">
        <ele>459</ele>
        <time>2022-03-06T14:00:09Z</time>
      </trkpt>
      <trkpt lat="44.50506" lon="4.55232">
        <ele>456</ele>
        <time>2022-03-06T14:00:19Z</time>
      </trkpt>
      <trkpt lat="44.50509" lon="4.55238">
        <ele>457</ele>
        <time>2022-03-06T14:00:23Z</time>
      </trkpt>
      <trkpt lat="44.50512" lon="4.5524">
        <ele>457</ele>
        <time>2022-03-06T14:00:26Z</time>
      </trkpt>
      <trkpt lat="44.50514" lon="4.55244">
        <ele>457</ele>
        <time>2022-03-06T14:00:30Z</time>
      </trkpt>
      <trkpt lat="44.50518" lon="4.55244">
        <ele>457</ele>
        <time>2022-03-06T14:00:36Z</time>
      </trkpt>
      <trkpt lat="44.50519" lon="4.5525">
        <ele>456</ele>
        <time>2022-03-06T14:00:39Z</time>
      </trkpt>
      <trkpt lat="44.50524" lon="4.55252">
        <ele>451</ele>
        <time>2022-03-06T14:01:10Z</time>
      </trkpt>
      <trkpt lat="44.50529" lon="4.55254">
        <ele>451</ele>
        <time>2022-03-06T14:01:18Z</time>
      </trkpt>
      <trkpt lat="44.50531" lon="4.55258">
        <ele>450</ele>
        <time>2022-03-06T14:01:36Z</time>
      </trkpt>
      <trkpt lat="44.50534" lon="4.55262">
        <ele>447</ele>
        <time>2022-03-06T14:01:44Z</time>
      </trkpt>
      <trkpt lat="44.50533" lon="4.55267">
        <ele>445</ele>
        <time>2022-03-06T14:01:49Z</time>
      </trkpt>
      <trkpt lat="44.50537" lon="4.5527">
        <ele>444</ele>
        <time>2022-03-06T14:01:55Z</time>
      </trkpt>
      <trkpt lat="44.50539" lon="4.55275">
        <ele>443</ele>
        <time>2022-03-06T14:01:59Z</time>
      </trkpt>
      <trkpt lat="44.50543" lon="4.55276">
        <ele>444</ele>
        <time>2022-03-06T14:02:04Z</time>
      </trkpt>
      <trkpt lat="44.50544" lon="4.55282">
        <ele>443</ele>
        <time>2022-03-06T14:02:09Z</time>
      </trkpt>
      <trkpt lat="44.50546" lon="4.55287">
        <ele>442</ele>
        <time>2022-03-06T14:02:14Z</time>
      </trkpt>
      <trkpt lat="44.50547" lon="4.553">
        <ele>442</ele>
        <time>2022-03-06T14:02:22Z</time>
      </trkpt>
      <trkpt lat="44.50549" lon="4.55303">
        <ele>443</ele>
        <time>2022-03-06T14:02:26Z</time>
      </trkpt>
      <trkpt lat="44.50553" lon="4.55307">
        <ele>444</ele>
        <time>2022-03-06T14:02:31Z</time>
      </trkpt>
      <trkpt lat="44.50555" lon="4.55318">
        <ele>439</ele>
        <time>2022-03-06T14:02:45Z</time>
      </trkpt>
      <trkpt lat="44.50555" lon="4.55325">
        <ele>440</ele>
        <time>2022-03-06T14:02:49Z</time>
      </trkpt>
      <trkpt lat="44.50556" lon="4.55331">
        <ele>441</ele>
        <time>2022-03-06T14:02:53Z</time>
      </trkpt>
      <trkpt lat="44.50558" lon="4.55336">
        <ele>441</ele>
        <time>2022-03-06T14:02:58Z</time>
      </trkpt>
      <trkpt lat="44.50562" lon="4.55339">
        <ele>441</ele>
        <time>2022-03-06T14:03:04Z</time>
      </trkpt>
      <trkpt lat="44.50567" lon="4.55342">
        <ele>437</ele>
        <time>2022-03-06T14:03:09Z</time>
      </trkpt>
      <trkpt lat="44.50571" lon="4.55347">
        <ele>436</ele>
        <time>2022-03-06T14:03:15Z</time>
      </trkpt>
      <trkpt lat="44.50582" lon="4.55366">
        <ele>432</ele>
        <time>2022-03-06T14:03:33Z</time>
      </trkpt>
      <trkpt lat="44.50585" lon="4.55371">
        <ele>432</ele>
        <time>2022-03-06T14:03:39Z</time>
      </trkpt>
      <trkpt lat="44.50587" lon="4.55374">
        <ele>432</ele>
        <time>2022-03-06T14:03:44Z</time>
      </trkpt>
      <trkpt lat="44.50588" lon="4.55381">
        <ele>433</ele>
        <time>2022-03-06T14:03:48Z</time>
      </trkpt>
      <trkpt lat="44.5059" lon="4.55385">
        <ele>432</ele>
        <time>2022-03-06T14:03:53Z</time>
      </trkpt>
      <trkpt lat="44.50594" lon="4.55389">
        <ele>431</ele>
        <time>2022-03-06T14:03:57Z</time>
      </trkpt>
      <trkpt lat="44.50597" lon="4.55394">
        <ele>429</ele>
        <time>2022-03-06T14:04:03Z</time>
      </trkpt>
      <trkpt lat="44.50602" lon="4.55394">
        <ele>428</ele>
        <time>2022-03-06T14:04:08Z</time>
      </trkpt>
      <trkpt lat="44.50608" lon="4.55406">
        <ele>426</ele>
        <time>2022-03-06T14:04:22Z</time>
      </trkpt>
      <trkpt lat="44.50613" lon="4.55408">
        <ele>425</ele>
        <time>2022-03-06T14:04:27Z</time>
      </trkpt>
      <trkpt lat="44.50616" lon="4.5541">
        <ele>424</ele>
        <time>2022-03-06T14:04:32Z</time>
      </trkpt>
      <trkpt lat="44.50618" lon="4.55416">
        <ele>424</ele>
        <time>2022-03-06T14:04:39Z</time>
      </trkpt>
      <trkpt lat="44.50621" lon="4.55422">
        <ele>421</ele>
        <time>2022-03-06T14:04:47Z</time>
      </trkpt>
      <trkpt lat="44.50628" lon="4.55429">
        <ele>419</ele>
        <time>2022-03-06T14:05:01Z</time>
      </trkpt>
      <trkpt lat="44.50629" lon="4.5544">
        <ele>418</ele>
        <time>2022-03-06T14:05:12Z</time>
      </trkpt>
      <trkpt lat="44.50635" lon="4.55445">
        <ele>419</ele>
        <time>2022-03-06T14:05:27Z</time>
      </trkpt>
      <trkpt lat="44.50644" lon="4.55462">
        <ele>417</ele>
        <time>2022-03-06T14:05:43Z</time>
      </trkpt>
      <trkpt lat="44.50648" lon="4.55466">
        <ele>414</ele>
        <time>2022-03-06T14:05:49Z</time>
      </trkpt>
      <trkpt lat="44.50651" lon="4.55471">
        <ele>413</ele>
        <time>2022-03-06T14:05:54Z</time>
      </trkpt>
      <trkpt lat="44.50653" lon="4.55476">
        <ele>411</ele>
        <time>2022-03-06T14:06:00Z</time>
      </trkpt>
      <trkpt lat="44.50657" lon="4.55478">
        <ele>409</ele>
        <time>2022-03-06T14:06:06Z</time>
      </trkpt>
      <trkpt lat="44.50662" lon="4.55492">
        <ele>403</ele>
        <time>2022-03-06T14:06:24Z</time>
      </trkpt>
      <trkpt lat="44.50663" lon="4.55497">
        <ele>402</ele>
        <time>2022-03-06T14:06:29Z</time>
      </trkpt>
      <trkpt lat="44.50665" lon="4.555">
        <ele>399</ele>
        <time>2022-03-06T14:06:36Z</time>
      </trkpt>
      <trkpt lat="44.50666" lon="4.55506">
        <ele>398</ele>
        <time>2022-03-06T14:06:42Z</time>
      </trkpt>
      <trkpt lat="44.50668" lon="4.5551">
        <ele>396</ele>
        <time>2022-03-06T14:06:47Z</time>
      </trkpt>
      <trkpt lat="44.50669" lon="4.55515">
        <ele>395</ele>
        <time>2022-03-06T14:06:52Z</time>
      </trkpt>
      <trkpt lat="44.5067" lon="4.5552">
        <ele>394</ele>
        <time>2022-03-06T14:06:57Z</time>
      </trkpt>
      <trkpt lat="44.50672" lon="4.55529">
        <ele>394</ele>
        <time>2022-03-06T14:07:07Z</time>
      </trkpt>
      <trkpt lat="44.50672" lon="4.55534">
        <ele>393</ele>
        <time>2022-03-06T14:07:11Z</time>
      </trkpt>
      <trkpt lat="44.50672" lon="4.55539">
        <ele>393</ele>
        <time>2022-03-06T14:07:14Z</time>
      </trkpt>
      <trkpt lat="44.50672" lon="4.55544">
        <ele>392</ele>
        <time>2022-03-06T14:07:18Z</time>
      </trkpt>
      <trkpt lat="44.50672" lon="4.55548">
        <ele>392</ele>
        <time>2022-03-06T14:07:22Z</time>
      </trkpt>
      <trkpt lat="44.50673" lon="4.55553">
        <ele>391</ele>
        <time>2022-03-06T14:07:27Z</time>
      </trkpt>
      <trkpt lat="44.50674" lon="4.55558">
        <ele>390</ele>
        <time>2022-03-06T14:07:33Z</time>
      </trkpt>
      <trkpt lat="44.50673" lon="4.55563">
        <ele>389</ele>
        <time>2022-03-06T14:07:37Z</time>
      </trkpt>
      <trkpt lat="44.50675" lon="4.55567">
        <ele>389</ele>
        <time>2022-03-06T14:07:44Z</time>
      </trkpt>
      <trkpt lat="44.50675" lon="4.55576">
        <ele>388</ele>
        <time>2022-03-06T14:07:51Z</time>
      </trkpt>
      <trkpt lat="44.50673" lon="4.55582">
        <ele>389</ele>
        <time>2022-03-06T14:07:55Z</time>
      </trkpt>
      <trkpt lat="44.50675" lon="4.55587">
        <ele>390</ele>
        <time>2022-03-06T14:07:59Z</time>
      </trkpt>
      <trkpt lat="44.50678" lon="4.5559">
        <ele>388</ele>
        <time>2022-03-06T14:08:06Z</time>
      </trkpt>
      <trkpt lat="44.50682" lon="4.55598">
        <ele>384</ele>
        <time>2022-03-06T14:08:18Z</time>
      </trkpt>
      <trkpt lat="44.50682" lon="4.55601">
        <ele>382</ele>
        <time>2022-03-06T14:08:26Z</time>
      </trkpt>
      <trkpt lat="44.50679" lon="4.55601">
        <ele>381</ele>
        <time>2022-03-06T14:08:30Z</time>
      </trkpt>
      <trkpt lat="44.50676" lon="4.55603">
        <ele>380</ele>
        <time>2022-03-06T14:08:35Z</time>
      </trkpt>
      <trkpt lat="44.50673" lon="4.55603">
        <ele>380</ele>
        <time>2022-03-06T14:08:38Z</time>
      </trkpt>
      <trkpt lat="44.5067" lon="4.55602">
        <ele>379</ele>
        <time>2022-03-06T14:08:43Z</time>
      </trkpt>
      <trkpt lat="44.50668" lon="4.556">
        <ele>379</ele>
        <time>2022-03-06T14:08:54Z</time>
      </trkpt>
      <trkpt lat="44.50665" lon="4.55601">
        <ele>378</ele>
        <time>2022-03-06T14:09:00Z</time>
      </trkpt>
      <trkpt lat="44.50664" lon="4.55605">
        <ele>377</ele>
        <time>2022-03-06T14:09:04Z</time>
      </trkpt>
      <trkpt lat="44.50664" lon="4.55609">
        <ele>376</ele>
        <time>2022-03-06T14:09:07Z</time>
      </trkpt>
      <trkpt lat="44.50665" lon="4.55613">
        <ele>375</ele>
        <time>2022-03-06T14:09:12Z</time>
      </trkpt>
      <trkpt lat="44.50668" lon="4.55616">
        <ele>374</ele>
        <time>2022-03-06T14:09:17Z</time>
      </trkpt>
      <trkpt lat="44.5067" lon="4.55619">
        <ele>374</ele>
        <time>2022-03-06T14:09:22Z</time>
      </trkpt>
      <trkpt lat="44.50671" lon="4.55623">
        <ele>375</ele>
        <time>2022-03-06T14:09:27Z</time>
      </trkpt>
      <trkpt lat="44.5067" lon="4.55627">
        <ele>375</ele>
        <time>2022-03-06T14:09:32Z</time>
      </trkpt>
      <trkpt lat="44.50667" lon="4.55629">
        <ele>375</ele>
        <time>2022-03-06T14:09:36Z</time>
      </trkpt>
      <trkpt lat="44.50664" lon="4.5563">
        <ele>374</ele>
        <time>2022-03-06T14:09:40Z</time>
      </trkpt>
      <trkpt lat="44.50661" lon="4.55631">
        <ele>373</ele>
        <time>2022-03-06T14:09:44Z</time>
      </trkpt>
      <trkpt lat="44.50658" lon="4.55633">
        <ele>373</ele>
        <time>2022-03-06T14:09:48Z</time>
      </trkpt>
      <trkpt lat="44.50656" lon="4.55634">
        <ele>373</ele>
        <time>2022-03-06T14:09:54Z</time>
      </trkpt>
      <trkpt lat="44.50653" lon="4.55635">
        <ele>373</ele>
        <time>2022-03-06T14:09:58Z</time>
      </trkpt>
      <trkpt lat="44.5065" lon="4.55634">
        <ele>372</ele>
        <time>2022-03-06T14:10:02Z</time>
      </trkpt>
      <trkpt lat="44.50647" lon="4.55636">
        <ele>371</ele>
        <time>2022-03-06T14:10:06Z</time>
      </trkpt>
      <trkpt lat="44.50645" lon="4.55639">
        <ele>369</ele>
        <time>2022-03-06T14:10:18Z</time>
      </trkpt>
      <trkpt lat="44.50645" lon="4.55644">
        <ele>368</ele>
        <time>2022-03-06T14:10:24Z</time>
      </trkpt>
      <trkpt lat="44.50643" lon="4.55646">
        <ele>366</ele>
        <time>2022-03-06T14:10:29Z</time>
      </trkpt>
      <trkpt lat="44.5064" lon="4.55645">
        <ele>366</ele>
        <time>2022-03-06T14:10:37Z</time>
      </trkpt>
      <trkpt lat="44.50637" lon="4.55645">
        <ele>364</ele>
        <time>2022-03-06T14:10:49Z</time>
      </trkpt>
      <trkpt lat="44.50634" lon="4.55653">
        <ele>363</ele>
        <time>2022-03-06T14:10:59Z</time>
      </trkpt>
      <trkpt lat="44.50634" lon="4.55657">
        <ele>363</ele>
        <time>2022-03-06T14:11:02Z</time>
      </trkpt>
      <trkpt lat="44.50634" lon="4.55664">
        <ele>363</ele>
        <time>2022-03-06T14:11:16Z</time>
      </trkpt>
      <trkpt lat="44.50638" lon="4.55666">
        <ele>364</ele>
        <time>2022-03-06T14:11:20Z</time>
      </trkpt>
      <trkpt lat="44.5064" lon="4.55668">
        <ele>364</ele>
        <time>2022-03-06T14:11:23Z</time>
      </trkpt>
      <trkpt lat="44.50643" lon="4.55671">
        <ele>364</ele>
        <time>2022-03-06T14:11:27Z</time>
      </trkpt>
      <trkpt lat="44.50646" lon="4.55673">
        <ele>362</ele>
        <time>2022-03-06T14:11:34Z</time>
      </trkpt>
      <trkpt lat="44.50648" lon="4.55676">
        <ele>362</ele>
        <time>2022-03-06T14:11:38Z</time>
      </trkpt>
      <trkpt lat="44.50651" lon="4.55676">
        <ele>361</ele>
        <time>2022-03-06T14:11:42Z</time>
      </trkpt>
      <trkpt lat="44.50657" lon="4.55677">
        <ele>360</ele>
        <time>2022-03-06T14:11:48Z</time>
      </trkpt>
      <trkpt lat="44.5066" lon="4.55676">
        <ele>360</ele>
        <time>2022-03-06T14:11:51Z</time>
      </trkpt>
      <trkpt lat="44.50671" lon="4.55677">
        <ele>359</ele>
        <time>2022-03-06T14:12:04Z</time>
      </trkpt>
      <trkpt lat="44.50677" lon="4.55676">
        <ele>358</ele>
        <time>2022-03-06T14:12:10Z</time>
      </trkpt>
      <trkpt lat="44.50694" lon="4.55681">
        <ele>358</ele>
        <time>2022-03-06T14:12:25Z</time>
      </trkpt>
      <trkpt lat="44.50696" lon="4.55683">
        <ele>359</ele>
        <time>2022-03-06T14:12:27Z</time>
      </trkpt>
      <trkpt lat="44.50698" lon="4.55687">
        <ele>360</ele>
        <time>2022-03-06T14:12:30Z</time>
      </trkpt>
      <trkpt lat="44.50706" lon="4.55705">
        <ele>360</ele>
        <time>2022-03-06T14:12:41Z</time>
      </trkpt>
      <trkpt lat="44.50708" lon="4.55708">
        <ele>358</ele>
        <time>2022-03-06T14:12:45Z</time>
      </trkpt>
      <trkpt lat="44.5071" lon="4.55718">
        <ele>357</ele>
        <time>2022-03-06T14:12:51Z</time>
      </trkpt>
      <trkpt lat="44.50712" lon="4.55728">
        <ele>355</ele>
        <time>2022-03-06T14:12:59Z</time>
      </trkpt>
      <trkpt lat="44.50714" lon="4.55741">
        <ele>352</ele>
        <time>2022-03-06T14:13:09Z</time>
      </trkpt>
      <trkpt lat="44.50716" lon="4.5575">
        <ele>350</ele>
        <time>2022-03-06T14:13:20Z</time>
      </trkpt>
      <trkpt lat="44.50716" lon="4.55754">
        <ele>349</ele>
        <time>2022-03-06T14:13:24Z</time>
      </trkpt>
      <trkpt lat="44.50718" lon="4.55758">
        <ele>348</ele>
        <time>2022-03-06T14:13:31Z</time>
      </trkpt>
      <trkpt lat="44.50716" lon="4.55763">
        <ele>346</ele>
        <time>2022-03-06T14:13:37Z</time>
      </trkpt>
      <trkpt lat="44.50715" lon="4.55767">
        <ele>346</ele>
        <time>2022-03-06T14:13:41Z</time>
      </trkpt>
      <trkpt lat="44.50716" lon="4.55772">
        <ele>344</ele>
        <time>2022-03-06T14:13:46Z</time>
      </trkpt>
      <trkpt lat="44.50719" lon="4.55778">
        <ele>343</ele>
        <time>2022-03-06T14:13:50Z</time>
      </trkpt>
      <trkpt lat="44.50719" lon="4.55785">
        <ele>342</ele>
        <time>2022-03-06T14:13:57Z</time>
      </trkpt>
      <trkpt lat="44.50719" lon="4.55792">
        <ele>341</ele>
        <time>2022-03-06T14:14:00Z</time>
      </trkpt>
      <trkpt lat="44.5072" lon="4.55796">
        <ele>340</ele>
        <time>2022-03-06T14:14:04Z</time>
      </trkpt>
      <trkpt lat="44.50719" lon="4.55805">
        <ele>337</ele>
        <time>2022-03-06T14:14:13Z</time>
      </trkpt>
      <trkpt lat="44.50716" lon="4.55813">
        <ele>335</ele>
        <time>2022-03-06T14:14:23Z</time>
      </trkpt>
      <trkpt lat="44.50713" lon="4.55845">
        <ele>334</ele>
        <time>2022-03-06T14:14:53Z</time>
      </trkpt>
      <trkpt lat="44.50715" lon="4.55878">
        <ele>329</ele>
        <time>2022-03-06T14:15:20Z</time>
      </trkpt>
      <trkpt lat="44.50713" lon="4.55881">
        <ele>328</ele>
        <time>2022-03-06T14:15:26Z</time>
      </trkpt>
      <trkpt lat="44.50711" lon="4.55881">
        <ele>327</ele>
        <time>2022-03-06T14:15:29Z</time>
      </trkpt>
      <trkpt lat="44.5071" lon="4.55874">
        <ele>329</ele>
        <time>2022-03-06T14:15:39Z</time>
      </trkpt>
      <trkpt lat="44.50705" lon="4.55872">
        <ele>330</ele>
        <time>2022-03-06T14:15:44Z</time>
      </trkpt>
      <trkpt lat="44.50701" lon="4.55872">
        <ele>331</ele>
        <time>2022-03-06T14:15:48Z</time>
      </trkpt>
      <trkpt lat="44.50699" lon="4.55878">
        <ele>331</ele>
        <time>2022-03-06T14:15:54Z</time>
      </trkpt>
      <trkpt lat="44.507" lon="4.55884">
        <ele>330</ele>
        <time>2022-03-06T14:16:01Z</time>
      </trkpt>
      <trkpt lat="44.50703" lon="4.55887">
        <ele>326</ele>
        <time>2022-03-06T14:16:07Z</time>
      </trkpt>
      <trkpt lat="44.50703" lon="4.55892">
        <ele>325</ele>
        <time>2022-03-06T14:16:12Z</time>
      </trkpt>
      <trkpt lat="44.50703" lon="4.55898">
        <ele>325</ele>
        <time>2022-03-06T14:16:26Z</time>
      </trkpt>
      <trkpt lat="44.50704" lon="4.55903">
        <ele>325</ele>
        <time>2022-03-06T14:16:29Z</time>
      </trkpt>
      <trkpt lat="44.50706" lon="4.55907">
        <ele>326</ele>
        <time>2022-03-06T14:16:34Z</time>
      </trkpt>
      <trkpt lat="44.50707" lon="4.55911">
        <ele>326</ele>
        <time>2022-03-06T14:16:37Z</time>
      </trkpt>
      <trkpt lat="44.50713" lon="4.55917">
        <ele>326</ele>
        <time>2022-03-06T14:16:46Z</time>
      </trkpt>
      <trkpt lat="44.50716" lon="4.55921">
        <ele>325</ele>
        <time>2022-03-06T14:16:51Z</time>
      </trkpt>
      <trkpt lat="44.50717" lon="4.55926">
        <ele>325</ele>
        <time>2022-03-06T14:16:56Z</time>
      </trkpt>
      <trkpt lat="44.50717" lon="4.55935">
        <ele>325</ele>
        <time>2022-03-06T14:17:08Z</time>
      </trkpt>
      <trkpt lat="44.50722" lon="4.55938">
        <ele>326</ele>
        <time>2022-03-06T14:17:19Z</time>
      </trkpt>
      <trkpt lat="44.50726" lon="4.55947">
        <ele>324</ele>
        <time>2022-03-06T14:17:28Z</time>
      </trkpt>
      <trkpt lat="44.50725" lon="4.55957">
        <ele>324</ele>
        <time>2022-03-06T14:17:34Z</time>
      </trkpt>
      <trkpt lat="44.5073" lon="4.55963">
        <ele>322</ele>
        <time>2022-03-06T14:17:41Z</time>
      </trkpt>
      <trkpt lat="44.50732" lon="4.55972">
        <ele>321</ele>
        <time>2022-03-06T14:17:47Z</time>
      </trkpt>
      <trkpt lat="44.50734" lon="4.55981">
        <ele>319</ele>
        <time>2022-03-06T14:17:59Z</time>
      </trkpt>
      <trkpt lat="44.5073" lon="4.55989">
        <ele>319</ele>
        <time>2022-03-06T14:18:06Z</time>
      </trkpt>
      <trkpt lat="44.50726" lon="4.55995">
        <ele>318</ele>
        <time>2022-03-06T14:18:14Z</time>
      </trkpt>
      <trkpt lat="44.50723" lon="4.56">
        <ele>318</ele>
        <time>2022-03-06T14:18:31Z</time>
      </trkpt>
      <trkpt lat="44.50719" lon="4.5601">
        <ele>314</ele>
        <time>2022-03-06T14:18:53Z</time>
      </trkpt>
      <trkpt lat="44.50721" lon="4.5602">
        <ele>312</ele>
        <time>2022-03-06T14:19:00Z</time>
      </trkpt>
      <trkpt lat="44.5072" lon="4.56029">
        <ele>311</ele>
        <time>2022-03-06T14:19:13Z</time>
      </trkpt>
      <trkpt lat="44.50719" lon="4.56036">
        <ele>307</ele>
        <time>2022-03-06T14:19:17Z</time>
      </trkpt>
      <trkpt lat="44.50717" lon="4.5605">
        <ele>299</ele>
        <time>2022-03-06T14:19:28Z</time>
      </trkpt>
      <trkpt lat="44.50714" lon="4.56052">
        <ele>298</ele>
        <time>2022-03-06T14:19:32Z</time>
      </trkpt>
      <trkpt lat="44.50712" lon="4.56057">
        <ele>296</ele>
        <time>2022-03-06T14:19:37Z</time>
      </trkpt>
      <trkpt lat="44.5071" lon="4.56061">
        <ele>296</ele>
        <time>2022-03-06T14:19:41Z</time>
      </trkpt>
      <trkpt lat="44.5071" lon="4.56067">
        <ele>292</ele>
        <time>2022-03-06T14:19:49Z</time>
      </trkpt>
      <trkpt lat="44.50703" lon="4.56083">
        <ele>291</ele>
        <time>2022-03-06T14:20:01Z</time>
      </trkpt>
      <trkpt lat="44.50699" lon="4.56091">
        <ele>290</ele>
        <time>2022-03-06T14:20:08Z</time>
      </trkpt>
      <trkpt lat="44.50697" lon="4.56095">
        <ele>290</ele>
        <time>2022-03-06T14:20:11Z</time>
      </trkpt>
      <trkpt lat="44.50695" lon="4.56099">
        <ele>290</ele>
        <time>2022-03-06T14:20:16Z</time>
      </trkpt>
      <trkpt lat="44.50692" lon="4.56103">
        <ele>290</ele>
        <time>2022-03-06T14:20:22Z</time>
      </trkpt>
      <trkpt lat="44.50689" lon="4.56108">
        <ele>289</ele>
        <time>2022-03-06T14:20:26Z</time>
      </trkpt>
      <trkpt lat="44.50687" lon="4.56114">
        <ele>287</ele>
        <time>2022-03-06T14:20:30Z</time>
      </trkpt>
      <trkpt lat="44.50687" lon="4.56119">
        <ele>288</ele>
        <time>2022-03-06T14:20:36Z</time>
      </trkpt>
      <trkpt lat="44.50684" lon="4.56123">
        <ele>287</ele>
        <time>2022-03-06T14:20:41Z</time>
      </trkpt>
      <trkpt lat="44.50681" lon="4.56129">
        <ele>288</ele>
        <time>2022-03-06T14:20:46Z</time>
      </trkpt>
      <trkpt lat="44.50681" lon="4.56136">
        <ele>287</ele>
        <time>2022-03-06T14:20:49Z</time>
      </trkpt>
      <trkpt lat="44.50676" lon="4.56143">
        <ele>287</ele>
        <time>2022-03-06T14:20:56Z</time>
      </trkpt>
      <trkpt lat="44.50673" lon="4.56146">
        <ele>287</ele>
        <time>2022-03-06T14:21:00Z</time>
      </trkpt>
      <trkpt lat="44.5067" lon="4.56151">
        <ele>287</ele>
        <time>2022-03-06T14:21:04Z</time>
      </trkpt>
      <trkpt lat="44.50669" lon="4.56156">
        <ele>286</ele>
        <time>2022-03-06T14:21:07Z</time>
      </trkpt>
      <trkpt lat="44.5066" lon="4.56177">
        <ele>282</ele>
        <time>2022-03-06T14:21:27Z</time>
      </trkpt>
      <trkpt lat="44.50659" lon="4.56182">
        <ele>282</ele>
        <time>2022-03-06T14:21:32Z</time>
      </trkpt>
      <trkpt lat="44.50658" lon="4.56188">
        <ele>282</ele>
        <time>2022-03-06T14:21:35Z</time>
      </trkpt>
      <trkpt lat="44.50655" lon="4.56191">
        <ele>280</ele>
        <time>2022-03-06T14:21:38Z</time>
      </trkpt>
      <trkpt lat="44.50653" lon="4.56197">
        <ele>281</ele>
        <time>2022-03-06T14:21:41Z</time>
      </trkpt>
      <trkpt lat="44.50652" lon="4.56201">
        <ele>282</ele>
        <time>2022-03-06T14:21:45Z</time>
      </trkpt>
      <trkpt lat="44.50649" lon="4.56206">
        <ele>282</ele>
        <time>2022-03-06T14:21:49Z</time>
      </trkpt>
      <trkpt lat="44.50645" lon="4.56206">
        <ele>282</ele>
        <time>2022-03-06T14:21:53Z</time>
      </trkpt>
      <trkpt lat="44.50642" lon="4.56204">
        <ele>281</ele>
        <time>2022-03-06T14:21:58Z</time>
      </trkpt>
      <trkpt lat="44.50638" lon="4.56202">
        <ele>282</ele>
        <time>2022-03-06T14:22:05Z</time>
      </trkpt>
      <trkpt lat="44.50631" lon="4.56207">
        <ele>279</ele>
        <time>2022-03-06T14:22:23Z</time>
      </trkpt>
      <trkpt lat="44.50626" lon="4.56206">
        <ele>277</ele>
        <time>2022-03-06T14:22:27Z</time>
      </trkpt>
      <trkpt lat="44.50622" lon="4.56207">
        <ele>276</ele>
        <time>2022-03-06T14:22:31Z</time>
      </trkpt>
      <trkpt lat="44.50619" lon="4.56207">
        <ele>275</ele>
        <time>2022-03-06T14:22:35Z</time>
      </trkpt>
      <trkpt lat="44.50616" lon="4.5621">
        <ele>274</ele>
        <time>2022-03-06T14:22:39Z</time>
      </trkpt>
      <trkpt lat="44.50613" lon="4.56215">
        <ele>272</ele>
        <time>2022-03-06T14:22:42Z</time>
      </trkpt>
      <trkpt lat="44.50603" lon="4.56218">
        <ele>272</ele>
        <time>2022-03-06T14:22:53Z</time>
      </trkpt>
      <trkpt lat="44.50599" lon="4.5622">
        <ele>272</ele>
        <time>2022-03-06T14:22:56Z</time>
      </trkpt>
      <trkpt lat="44.50596" lon="4.5622">
        <ele>272</ele>
        <time>2022-03-06T14:23:00Z</time>
      </trkpt>
      <trkpt lat="44.50589" lon="4.56223">
        <ele>271</ele>
        <time>2022-03-06T14:23:11Z</time>
      </trkpt>
      <trkpt lat="44.50577" lon="4.56229">
        <ele>268</ele>
        <time>2022-03-06T14:23:23Z</time>
      </trkpt>
      <trkpt lat="44.50568" lon="4.56234">
        <ele>267</ele>
        <time>2022-03-06T14:23:34Z</time>
      </trkpt>
      <trkpt lat="44.50561" lon="4.56234">
        <ele>266</ele>
        <time>2022-03-06T14:23:41Z</time>
      </trkpt>
      <trkpt lat="44.50559" lon="4.56238">
        <ele>267</ele>
        <time>2022-03-06T14:23:52Z</time>
      </trkpt>
      <trkpt lat="44.50553" lon="4.5624">
        <ele>268</ele>
        <time>2022-03-06T14:23:57Z</time>
      </trkpt>
      <trkpt lat="44.50551" lon="4.56244">
        <ele>267</ele>
        <time>2022-03-06T14:24:01Z</time>
      </trkpt>
      <trkpt lat="44.50547" lon="4.56244">
        <ele>266</ele>
        <time>2022-03-06T14:24:04Z</time>
      </trkpt>
      <trkpt lat="44.50544" lon="4.56244">
        <ele>266</ele>
        <time>2022-03-06T14:24:08Z</time>
      </trkpt>
      <trkpt lat="44.50534" lon="4.5625">
        <ele>263</ele>
        <time>2022-03-06T14:24:22Z</time>
      </trkpt>
      <trkpt lat="44.50532" lon="4.56253">
        <ele>263</ele>
        <time>2022-03-06T14:24:26Z</time>
      </trkpt>
      <trkpt lat="44.50526" lon="4.56255">
        <ele>262</ele>
        <time>2022-03-06T14:24:34Z</time>
      </trkpt>
      <trkpt lat="44.50524" lon="4.56258">
        <ele>262</ele>
        <time>2022-03-06T14:24:38Z</time>
      </trkpt>
      <trkpt lat="44.50519" lon="4.56261">
        <ele>261</ele>
        <time>2022-03-06T14:24:46Z</time>
      </trkpt>
      <trkpt lat="44.50516" lon="4.56261">
        <ele>261</ele>
        <time>2022-03-06T14:24:51Z</time>
      </trkpt>
      <trkpt lat="44.50512" lon="4.56267">
        <ele>261</ele>
        <time>2022-03-06T14:24:59Z</time>
      </trkpt>
      <trkpt lat="44.5051" lon="4.56272">
        <ele>259</ele>
        <time>2022-03-06T14:25:03Z</time>
      </trkpt>
      <trkpt lat="44.50508" lon="4.56274">
        <ele>259</ele>
        <time>2022-03-06T14:25:07Z</time>
      </trkpt>
      <trkpt lat="44.50505" lon="4.56276">
        <ele>259</ele>
        <time>2022-03-06T14:25:10Z</time>
      </trkpt>
      <trkpt lat="44.50502" lon="4.56278">
        <ele>258</ele>
        <time>2022-03-06T14:25:14Z</time>
      </trkpt>
      <trkpt lat="44.505" lon="4.5628">
        <ele>258</ele>
        <time>2022-03-06T14:25:17Z</time>
      </trkpt>
      <trkpt lat="44.50498" lon="4.56283">
        <ele>257</ele>
        <time>2022-03-06T14:25:21Z</time>
      </trkpt>
      <trkpt lat="44.50496" lon="4.56286">
        <ele>257</ele>
        <time>2022-03-06T14:25:25Z</time>
      </trkpt>
      <trkpt lat="44.50493" lon="4.56287">
        <ele>255</ele>
        <time>2022-03-06T14:25:29Z</time>
      </trkpt>
      <trkpt lat="44.50489" lon="4.56287">
        <ele>256</ele>
        <time>2022-03-06T14:25:33Z</time>
      </trkpt>
      <trkpt lat="44.50486" lon="4.56288">
        <ele>257</ele>
        <time>2022-03-06T14:25:37Z</time>
      </trkpt>
      <trkpt lat="44.50483" lon="4.56294">
        <ele>258</ele>
        <time>2022-03-06T14:25:42Z</time>
      </trkpt>
      <trkpt lat="44.50479" lon="4.56296">
        <ele>259</ele>
        <time>2022-03-06T14:25:51Z</time>
      </trkpt>
      <trkpt lat="44.50475" lon="4.56302">
        <ele>257</ele>
        <time>2022-03-06T14:25:57Z</time>
      </trkpt>
      <trkpt lat="44.50473" lon="4.56307">
        <ele>257</ele>
        <time>2022-03-06T14:26:01Z</time>
      </trkpt>
      <trkpt lat="44.50469" lon="4.5631">
        <ele>255</ele>
        <time>2022-03-06T14:26:05Z</time>
      </trkpt>
      <trkpt lat="44.50465" lon="4.5631">
        <ele>254</ele>
        <time>2022-03-06T14:26:09Z</time>
      </trkpt>
      <trkpt lat="44.50461" lon="4.56315">
        <ele>252</ele>
        <time>2022-03-06T14:26:13Z</time>
      </trkpt>
      <trkpt lat="44.50457" lon="4.56316">
        <ele>252</ele>
        <time>2022-03-06T14:26:16Z</time>
      </trkpt>
      <trkpt lat="44.50451" lon="4.56323">
        <ele>251</ele>
        <time>2022-03-06T14:26:25Z</time>
      </trkpt>
      <trkpt lat="44.50443" lon="4.56323">
        <ele>251</ele>
        <time>2022-03-06T14:26:34Z</time>
      </trkpt>
      <trkpt lat="44.50441" lon="4.56327">
        <ele>249</ele>
        <time>2022-03-06T14:26:38Z</time>
      </trkpt>
      <trkpt lat="44.50439" lon="4.5633">
        <ele>248</ele>
        <time>2022-03-06T14:26:42Z</time>
      </trkpt>
      <trkpt lat="44.50436" lon="4.56335">
        <ele>246</ele>
        <time>2022-03-06T14:26:47Z</time>
      </trkpt>
      <trkpt lat="44.50433" lon="4.56337">
        <ele>245</ele>
        <time>2022-03-06T14:26:51Z</time>
      </trkpt>
      <trkpt lat="44.50431" lon="4.56341">
        <ele>246</ele>
        <time>2022-03-06T14:26:58Z</time>
      </trkpt>
      <trkpt lat="44.50428" lon="4.56344">
        <ele>245</ele>
        <time>2022-03-06T14:27:02Z</time>
      </trkpt>
      <trkpt lat="44.50424" lon="4.56344">
        <ele>245</ele>
        <time>2022-03-06T14:27:07Z</time>
      </trkpt>
      <trkpt lat="44.50421" lon="4.56347">
        <ele>244</ele>
        <time>2022-03-06T14:27:13Z</time>
      </trkpt>
      <trkpt lat="44.50415" lon="4.56353">
        <ele>241</ele>
        <time>2022-03-06T14:27:26Z</time>
      </trkpt>
      <trkpt lat="44.50412" lon="4.56352">
        <ele>241</ele>
        <time>2022-03-06T14:27:31Z</time>
      </trkpt>
      <trkpt lat="44.50406" lon="4.56356">
        <ele>240</ele>
        <time>2022-03-06T14:27:39Z</time>
      </trkpt>
      <trkpt lat="44.50404" lon="4.56358">
        <ele>239</ele>
        <time>2022-03-06T14:27:45Z</time>
      </trkpt>
      <trkpt lat="44.50403" lon="4.56363">
        <ele>237</ele>
        <time>2022-03-06T14:27:49Z</time>
      </trkpt>
      <trkpt lat="44.50406" lon="4.56373">
        <ele>232</ele>
        <time>2022-03-06T14:27:58Z</time>
      </trkpt>
      <trkpt lat="44.50417" lon="4.56381">
        <ele>232</ele>
        <time>2022-03-06T14:28:14Z</time>
      </trkpt>
      <trkpt lat="44.50419" lon="4.56386">
        <ele>231</ele>
        <time>2022-03-06T14:28:22Z</time>
      </trkpt>
      <trkpt lat="44.50411" lon="4.56393">
        <ele>229</ele>
        <time>2022-03-06T14:28:37Z</time>
      </trkpt>
      <trkpt lat="44.50408" lon="4.56395">
        <ele>228</ele>
        <time>2022-03-06T14:28:41Z</time>
      </trkpt>
      <trkpt lat="44.504" lon="4.56396">
        <ele>227</ele>
        <time>2022-03-06T14:28:50Z</time>
      </trkpt>
      <trkpt lat="44.50395" lon="4.56401">
        <ele>225</ele>
        <time>2022-03-06T14:28:58Z</time>
      </trkpt>
      <trkpt lat="44.50393" lon="4.56404">
        <ele>223</ele>
        <time>2022-03-06T14:29:02Z</time>
      </trkpt>
      <trkpt lat="44.50392" lon="4.56408">
        <ele>222</ele>
        <time>2022-03-06T14:29:07Z</time>
      </trkpt>
      <trkpt lat="44.5039" lon="4.56411">
        <ele>219</ele>
        <time>2022-03-06T14:29:13Z</time>
      </trkpt>
      <trkpt lat="44.50385" lon="4.56412">
        <ele>218</ele>
        <time>2022-03-06T14:29:23Z</time>
      </trkpt>
      <trkpt lat="44.50382" lon="4.56412">
        <ele>217</ele>
        <time>2022-03-06T14:29:29Z</time>
      </trkpt>
      <trkpt lat="44.50379" lon="4.56413">
        <ele>215</ele>
        <time>2022-03-06T14:29:34Z</time>
      </trkpt>
      <trkpt lat="44.50375" lon="4.56415">
        <ele>215</ele>
        <time>2022-03-06T14:29:45Z</time>
      </trkpt>
      <trkpt lat="44.50372" lon="4.56419">
        <ele>212</ele>
        <time>2022-03-06T14:29:56Z</time>
      </trkpt>
      <trkpt lat="44.5037" lon="4.56422">
        <ele>211</ele>
        <time>2022-03-06T14:30:00Z</time>
      </trkpt>
      <trkpt lat="44.50368" lon="4.56428">
        <ele>212</ele>
        <time>2022-03-06T14:30:06Z</time>
      </trkpt>
      <trkpt lat="44.50366" lon="4.56442">
        <ele>215</ele>
        <time>2022-03-06T14:30:24Z</time>
      </trkpt>
      <trkpt lat="44.50362" lon="4.56444">
        <ele>215</ele>
        <time>2022-03-06T14:30:38Z</time>
      </trkpt>
      <trkpt lat="44.5036" lon="4.56451">
        <ele>216</ele>
        <time>2022-03-06T14:30:45Z</time>
      </trkpt>
      <trkpt lat="44.50359" lon="4.56456">
        <ele>217</ele>
        <time>2022-03-06T14:30:49Z</time>
      </trkpt>
      <trkpt lat="44.50354" lon="4.56467">
        <ele>217</ele>
        <time>2022-03-06T14:30:57Z</time>
      </trkpt>
      <trkpt lat="44.50349" lon="4.5648">
        <ele>218</ele>
        <time>2022-03-06T14:31:08Z</time>
      </trkpt>
      <trkpt lat="44.50348" lon="4.56487">
        <ele>219</ele>
        <time>2022-03-06T14:31:14Z</time>
      </trkpt>
      <trkpt lat="44.50345" lon="4.56493">
        <ele>218</ele>
        <time>2022-03-06T14:31:18Z</time>
      </trkpt>
      <trkpt lat="44.50343" lon="4.56509">
        <ele>217</ele>
        <time>2022-03-06T14:31:29Z</time>
      </trkpt>
      <trkpt lat="44.5034" lon="4.56515">
        <ele>218</ele>
        <time>2022-03-06T14:31:32Z</time>
      </trkpt>
      <trkpt lat="44.50342" lon="4.56524">
        <ele>218</ele>
        <time>2022-03-06T14:31:36Z</time>
      </trkpt>
      <trkpt lat="44.50324" lon="4.56544">
        <ele>218</ele>
        <time>2022-03-06T14:31:54Z</time>
      </trkpt>
      <trkpt lat="44.50323" lon="4.56552">
        <ele>217</ele>
        <time>2022-03-06T14:31:57Z</time>
      </trkpt>
      <trkpt lat="44.50313" lon="4.56567">
        <ele>216</ele>
        <time>2022-03-06T14:32:17Z</time>
      </trkpt>
      <trkpt lat="44.50311" lon="4.56572">
        <ele>217</ele>
        <time>2022-03-06T14:32:35Z</time>
      </trkpt>
      <trkpt lat="44.50307" lon="4.56577">
        <ele>216</ele>
        <time>2022-03-06T14:32:39Z</time>
      </trkpt>
      <trkpt lat="44.50304" lon="4.56581">
        <ele>216</ele>
        <time>2022-03-06T14:32:43Z</time>
      </trkpt>
      <trkpt lat="44.50297" lon="4.56587">
        <ele>216</ele>
        <time>2022-03-06T14:32:50Z</time>
      </trkpt>
      <trkpt lat="44.50287" lon="4.56609">
        <ele>214</ele>
        <time>2022-03-06T14:33:04Z</time>
      </trkpt>
      <trkpt lat="44.50285" lon="4.5662">
        <ele>213</ele>
        <time>2022-03-06T14:33:11Z</time>
      </trkpt>
      <trkpt lat="44.50283" lon="4.56626">
        <ele>213</ele>
        <time>2022-03-06T14:33:16Z</time>
      </trkpt>
      <trkpt lat="44.5028" lon="4.56628">
        <ele>214</ele>
        <time>2022-03-06T14:33:30Z</time>
      </trkpt>
      <trkpt lat="44.50279" lon="4.5663">
        <ele>216</ele>
        <time>2022-03-06T14:33:42Z</time>
      </trkpt>
      <trkpt lat="44.50276" lon="4.56627">
        <ele>218</ele>
        <time>2022-03-06T14:33:50Z</time>
      </trkpt>
      <trkpt lat="44.50274" lon="4.56631">
        <ele>218</ele>
        <time>2022-03-06T14:33:53Z</time>
      </trkpt>
      <trkpt lat="44.50266" lon="4.56641">
        <ele>214</ele>
        <time>2022-03-06T14:34:05Z</time>
      </trkpt>
      <trkpt lat="44.50263" lon="4.56643">
        <ele>213</ele>
        <time>2022-03-06T14:34:07Z</time>
      </trkpt>
      <trkpt lat="44.50261" lon="4.56654">
        <ele>212</ele>
        <time>2022-03-06T14:34:13Z</time>
      </trkpt>
      <trkpt lat="44.50262" lon="4.56667">
        <ele>211</ele>
        <time>2022-03-06T14:34:34Z</time>
      </trkpt>
      <trkpt lat="44.50264" lon="4.5667">
        <ele>210</ele>
        <time>2022-03-06T14:34:36Z</time>
      </trkpt>
      <trkpt lat="44.50264" lon="4.56673">
        <ele>210</ele>
        <time>2022-03-06T14:34:38Z</time>
      </trkpt>
      <trkpt lat="44.50262" lon="4.5668">
        <ele>211</ele>
        <time>2022-03-06T14:34:41Z</time>
      </trkpt>
      <trkpt lat="44.50267" lon="4.56699">
        <ele>210</ele>
        <time>2022-03-06T14:34:56Z</time>
      </trkpt>
      <trkpt lat="44.50267" lon="4.56707">
        <ele>209</ele>
        <time>2022-03-06T14:35:02Z</time>
      </trkpt>
      <trkpt lat="44.50273" lon="4.56706">
        <ele>209</ele>
        <time>2022-03-06T14:35:09Z</time>
      </trkpt>
      <trkpt lat="44.50274" lon="4.56715">
        <ele>208</ele>
        <time>2022-03-06T14:35:14Z</time>
      </trkpt>
      <trkpt lat="44.50275" lon="4.56721">
        <ele>209</ele>
        <time>2022-03-06T14:35:20Z</time>
      </trkpt>
      <trkpt lat="44.50281" lon="4.56719">
        <ele>209</ele>
        <time>2022-03-06T14:35:25Z</time>
      </trkpt>
      <trkpt lat="44.50295" lon="4.5675">
        <ele>202</ele>
        <time>2022-03-06T14:35:53Z</time>
      </trkpt>
      <trkpt lat="44.50297" lon="4.56758">
        <ele>202</ele>
        <time>2022-03-06T14:35:59Z</time>
      </trkpt>
      <trkpt lat="44.50299" lon="4.56763">
        <ele>202</ele>
        <time>2022-03-06T14:36:02Z</time>
      </trkpt>
      <trkpt lat="44.50304" lon="4.56766">
        <ele>201</ele>
        <time>2022-03-06T14:36:09Z</time>
      </trkpt>
      <trkpt lat="44.50309" lon="4.56781">
        <ele>200</ele>
        <time>2022-03-06T14:36:18Z</time>
      </trkpt>
      <trkpt lat="44.50312" lon="4.56785">
        <ele>200</ele>
        <time>2022-03-06T14:36:23Z</time>
      </trkpt>
      <trkpt lat="44.50312" lon="4.56793">
        <ele>199</ele>
        <time>2022-03-06T14:36:28Z</time>
      </trkpt>
      <trkpt lat="44.50314" lon="4.56799">
        <ele>199</ele>
        <time>2022-03-06T14:36:31Z</time>
      </trkpt>
      <trkpt lat="44.50314" lon="4.56812">
        <ele>197</ele>
        <time>2022-03-06T14:36:38Z</time>
      </trkpt>
      <trkpt lat="44.50307" lon="4.56827">
        <ele>197</ele>
        <time>2022-03-06T14:37:00Z</time>
      </trkpt>
      <trkpt lat="44.50307" lon="4.56843">
        <ele>199</ele>
        <time>2022-03-06T14:37:08Z</time>
      </trkpt>
      <trkpt lat="44.50305" lon="4.56848">
        <ele>199</ele>
        <time>2022-03-06T14:37:11Z</time>
      </trkpt>
      <trkpt lat="44.50301" lon="4.56852">
        <ele>198</ele>
        <time>2022-03-06T14:37:14Z</time>
      </trkpt>
      <trkpt lat="44.50299" lon="4.56858">
        <ele>198</ele>
        <time>2022-03-06T14:37:19Z</time>
      </trkpt>
      <trkpt lat="44.50297" lon="4.56866">
        <ele>196</ele>
        <time>2022-03-06T14:37:23Z</time>
      </trkpt>
      <trkpt lat="44.50294" lon="4.56871">
        <ele>196</ele>
        <time>2022-03-06T14:37:27Z</time>
      </trkpt>
      <trkpt lat="44.50291" lon="4.56878">
        <ele>196</ele>
        <time>2022-03-06T14:37:32Z</time>
      </trkpt>
      <trkpt lat="44.50289" lon="4.56884">
        <ele>196</ele>
        <time>2022-03-06T14:37:37Z</time>
      </trkpt>
      <trkpt lat="44.50293" lon="4.56887">
        <ele>194</ele>
        <time>2022-03-06T14:37:41Z</time>
      </trkpt>
      <trkpt lat="44.50292" lon="4.56894">
        <ele>193</ele>
        <time>2022-03-06T14:37:46Z</time>
      </trkpt>
      <trkpt lat="44.50289" lon="4.569">
        <ele>192</ele>
        <time>2022-03-06T14:37:49Z</time>
      </trkpt>
      <trkpt lat="44.50287" lon="4.56906">
        <ele>191</ele>
        <time>2022-03-06T14:37:53Z</time>
      </trkpt>
      <trkpt lat="44.50275" lon="4.56919">
        <ele>190</ele>
        <time>2022-03-06T14:38:04Z</time>
      </trkpt>
      <trkpt lat="44.50267" lon="4.56939">
        <ele>189</ele>
        <time>2022-03-06T14:38:16Z</time>
      </trkpt>
      <trkpt lat="44.50265" lon="4.56943">
        <ele>189</ele>
        <time>2022-03-06T14:38:19Z</time>
      </trkpt>
      <trkpt lat="44.50262" lon="4.56953">
        <ele>189</ele>
        <time>2022-03-06T14:38:25Z</time>
      </trkpt>
      <trkpt lat="44.50256" lon="4.56965">
        <ele>189</ele>
        <time>2022-03-06T14:38:33Z</time>
      </trkpt>
      <trkpt lat="44.50256" lon="4.56968">
        <ele>189</ele>
        <time>2022-03-06T14:38:35Z</time>
      </trkpt>
      <trkpt lat="44.50248" lon="4.56985">
        <ele>191</ele>
        <time>2022-03-06T14:38:45Z</time>
      </trkpt>
      <trkpt lat="44.50245" lon="4.56994">
        <ele>191</ele>
        <time>2022-03-06T14:38:52Z</time>
      </trkpt>
      <trkpt lat="44.50241" lon="4.56999">
        <ele>189</ele>
        <time>2022-03-06T14:38:57Z</time>
      </trkpt>
      <trkpt lat="44.50233" lon="4.57005">
        <ele>190</ele>
        <time>2022-03-06T14:39:05Z</time>
      </trkpt>
      <trkpt lat="44.50232" lon="4.5701">
        <ele>190</ele>
        <time>2022-03-06T14:39:07Z</time>
      </trkpt>
      <trkpt lat="44.5023" lon="4.57014">
        <ele>189</ele>
        <time>2022-03-06T14:39:09Z</time>
      </trkpt>
      <trkpt lat="44.50228" lon="4.57016">
        <ele>189</ele>
        <time>2022-03-06T14:39:11Z</time>
      </trkpt>
      <trkpt lat="44.50226" lon="4.57018">
        <ele>188</ele>
        <time>2022-03-06T14:39:13Z</time>
      </trkpt>
      <trkpt lat="44.502" lon="4.57059">
        <ele>188</ele>
        <time>2022-03-06T14:39:44Z</time>
      </trkpt>
      <trkpt lat="44.50185" lon="4.57085">
        <ele>186</ele>
        <time>2022-03-06T14:40:02Z</time>
      </trkpt>
      <trkpt lat="44.50177" lon="4.5711">
        <ele>185</ele>
        <time>2022-03-06T14:40:16Z</time>
      </trkpt>
      <trkpt lat="44.50176" lon="4.57116">
        <ele>185</ele>
        <time>2022-03-06T14:40:20Z</time>
      </trkpt>
      <trkpt lat="44.50176" lon="4.57119">
        <ele>185</ele>
        <time>2022-03-06T14:40:22Z</time>
      </trkpt>
      <trkpt lat="44.50172" lon="4.57141">
        <ele>184</ele>
        <time>2022-03-06T14:40:36Z</time>
      </trkpt>
      <trkpt lat="44.50171" lon="4.57153">
        <ele>184</ele>
        <time>2022-03-06T14:40:44Z</time>
      </trkpt>
      <trkpt lat="44.50166" lon="4.57178">
        <ele>182</ele>
        <time>2022-03-06T14:40:59Z</time>
      </trkpt>
      <trkpt lat="44.50166" lon="4.57182">
        <ele>181</ele>
        <time>2022-03-06T14:41:01Z</time>
      </trkpt>
      <trkpt lat="44.5016" lon="4.57219">
        <ele>181</ele>
        <time>2022-03-06T14:41:24Z</time>
      </trkpt>
      <trkpt lat="44.50158" lon="4.5725">
        <ele>180</ele>
        <time>2022-03-06T14:41:43Z</time>
      </trkpt>
      <trkpt lat="44.50156" lon="4.57265">
        <ele>180</ele>
        <time>2022-03-06T14:41:52Z</time>
      </trkpt>
      <trkpt lat="44.50153" lon="4.57284">
        <ele>179</ele>
        <time>2022-03-06T14:42:03Z</time>
      </trkpt>
      <trkpt lat="44.5015" lon="4.57295">
        <ele>178</ele>
        <time>2022-03-06T14:42:10Z</time>
      </trkpt>
      <trkpt lat="44.50144" lon="4.57334">
        <ele>178</ele>
        <time>2022-03-06T14:42:33Z</time>
      </trkpt>
      <trkpt lat="44.50143" lon="4.57338">
        <ele>177</ele>
        <time>2022-03-06T14:42:36Z</time>
      </trkpt>
      <trkpt lat="44.50138" lon="4.57373">
        <ele>174</ele>
        <time>2022-03-06T14:42:58Z</time>
      </trkpt>
      <trkpt lat="44.50138" lon="4.57386">
        <ele>173</ele>
        <time>2022-03-06T14:43:06Z</time>
      </trkpt>
      <trkpt lat="44.50135" lon="4.57392">
        <ele>172</ele>
        <time>2022-03-06T14:43:11Z</time>
      </trkpt>
      <trkpt lat="44.50133" lon="4.57395">
        <ele>172</ele>
        <time>2022-03-06T14:43:14Z</time>
      </trkpt>
      <trkpt lat="44.5013" lon="4.57396">
        <ele>173</ele>
        <time>2022-03-06T14:43:16Z</time>
      </trkpt>
      <trkpt lat="44.50127" lon="4.57396">
        <ele>173</ele>
        <time>2022-03-06T14:43:18Z</time>
      </trkpt>
      <trkpt lat="44.50116" lon="4.57388">
        <ele>171</ele>
        <time>2022-03-06T14:43:28Z</time>
      </trkpt>
      <trkpt lat="44.50108" lon="4.57386">
        <ele>171</ele>
        <time>2022-03-06T14:43:35Z</time>
      </trkpt>
      <trkpt lat="44.50097" lon="4.57379">
        <ele>171</ele>
        <time>2022-03-06T14:43:46Z</time>
      </trkpt>
      <trkpt lat="44.50093" lon="4.57378">
        <ele>170</ele>
        <time>2022-03-06T14:43:49Z</time>
      </trkpt>
      <trkpt lat="44.50089" lon="4.57379">
        <ele>172</ele>
        <time>2022-03-06T14:43:53Z</time>
      </trkpt>
      <trkpt lat="44.50082" lon="4.57373">
        <ele>172</ele>
        <time>2022-03-06T14:44:00Z</time>
      </trkpt>
      <trkpt lat="44.50069" lon="4.57373">
        <ele>170</ele>
        <time>2022-03-06T14:44:09Z</time>
      </trkpt>
      <trkpt lat="44.50065" lon="4.57375">
        <ele>170</ele>
        <time>2022-03-06T14:44:13Z</time>
      </trkpt>
      <trkpt lat="44.50062" lon="4.57374">
        <ele>169</ele>
        <time>2022-03-06T14:44:17Z</time>
      </trkpt>
      <trkpt lat="44.50054" lon="4.57378">
        <ele>170</ele>
        <time>2022-03-06T14:44:26Z</time>
      </trkpt>
      <trkpt lat="44.50049" lon="4.57383">
        <ele>171</ele>
        <time>2022-03-06T14:44:32Z</time>
      </trkpt>
      <trkpt lat="44.50047" lon="4.57384">
        <ele>171</ele>
        <time>2022-03-06T14:44:35Z</time>
      </trkpt>
      <trkpt lat="44.50044" lon="4.57386">
        <ele>170</ele>
        <time>2022-03-06T14:44:38Z</time>
      </trkpt>
      <trkpt lat="44.50043" lon="4.57389">
        <ele>170</ele>
        <time>2022-03-06T14:44:40Z</time>
      </trkpt>
      <trkpt lat="44.50042" lon="4.57393">
        <ele>169</ele>
        <time>2022-03-06T14:44:42Z</time>
      </trkpt>
      <trkpt lat="44.50044" lon="4.57397">
        <ele>168</ele>
        <time>2022-03-06T14:45:16Z</time>
      </trkpt>
      <trkpt lat="44.50051" lon="4.57399">
        <ele>169</ele>
        <time>2022-03-06T14:45:30Z</time>
      </trkpt>
      <trkpt lat="44.50052" lon="4.57409">
        <ele>169</ele>
        <time>2022-03-06T14:45:35Z</time>
      </trkpt>
      <trkpt lat="44.50053" lon="4.57416">
        <ele>168</ele>
        <time>2022-03-06T14:45:38Z</time>
      </trkpt>
      <trkpt lat="44.50055" lon="4.57423">
        <ele>167</ele>
        <time>2022-03-06T14:45:41Z</time>
      </trkpt>
      <trkpt lat="44.50056" lon="4.57434">
        <ele>165</ele>
        <time>2022-03-06T14:45:48Z</time>
      </trkpt>
      <trkpt lat="44.50057" lon="4.57438">
        <ele>164</ele>
        <time>2022-03-06T14:45:51Z</time>
      </trkpt>
      <trkpt lat="44.50058" lon="4.57442">
        <ele>162</ele>
        <time>2022-03-06T14:45:56Z</time>
      </trkpt>
      <trkpt lat="44.50061" lon="4.57443">
        <ele>162</ele>
        <time>2022-03-06T14:45:59Z</time>
      </trkpt>
      <trkpt lat="44.50063" lon="4.57439">
        <ele>164</ele>
        <time>2022-03-06T14:46:06Z</time>
      </trkpt>
      <trkpt lat="44.50061" lon="4.57437">
        <ele>165</ele>
        <time>2022-03-06T14:46:22Z</time>
      </trkpt>
      <trkpt lat="44.50062" lon="4.57435">
        <ele>168</ele>
        <time>2022-03-06T14:47:12Z</time>
      </trkpt>
      <trkpt lat="44.50061" lon="4.57439">
        <ele>170</ele>
        <time>2022-03-06T14:47:40Z</time>
      </trkpt>
      <trkpt lat="44.50059" lon="4.57443">
        <ele>175</ele>
        <time>2022-03-06T14:48:51Z</time>
      </trkpt>
    </trkseg>
  </trk>
</gpx>